<?xml version="1.0" encoding="UTF-8" standalone="no" ?>
<gpx xmlns="http://www.topografix.com/GPX/1/1" xmlns:xsi="http://www.w3.org/2001/XMLSchema-instance" xsi:schemaLocation="http://www.topografix.com/GPX/1/1 http://www.topografix.com/GPX/1/1/gpx.xsd" version="1.1" creator="VisuGPX - https://www.visugpx.com">
  <metadata>
    <name>Randonnée sentier des roches la schlucht.</name>
    <desc><![CDATA[ la Schlucht- sentier des roches- Frankental- Gaschney- lac de Schiessrothried- lac de Fischboedle- Kerbholz- Firtsmiss
]]></desc>
  </metadata>
  <trk>
    <name><![CDATA[2018-07-08 16:46:37]]></name>
    <trkseg>
      <trkpt lat="48.06353" lon="7.02233">
        <ele>1144.94</ele>
        <time>2018-07-08T06:48:31Z</time>
      </trkpt>
      <trkpt lat="48.06353" lon="7.02233">
        <ele>1144.94</ele>
        <time>2018-07-08T06:48:32Z</time>
      </trkpt>
      <trkpt lat="48.06352" lon="7.02231">
        <ele>1141.39</ele>
        <time>2018-07-08T06:48:47Z</time>
      </trkpt>
      <trkpt lat="48.06352" lon="7.02229">
        <ele>1144.72</ele>
        <time>2018-07-08T06:48:50Z</time>
      </trkpt>
      <trkpt lat="48.06353" lon="7.02231">
        <ele>1143.96</ele>
        <time>2018-07-08T06:49:19Z</time>
      </trkpt>
      <trkpt lat="48.06354" lon="7.02232">
        <ele>1144.02</ele>
        <time>2018-07-08T06:49:36Z</time>
      </trkpt>
      <trkpt lat="48.06366" lon="7.02236">
        <ele>1144.69</ele>
        <time>2018-07-08T06:49:47Z</time>
      </trkpt>
      <trkpt lat="48.06367" lon="7.02241">
        <ele>1144.88</ele>
        <time>2018-07-08T06:49:50Z</time>
      </trkpt>
      <trkpt lat="48.06368" lon="7.02244">
        <ele>1144.6</ele>
        <time>2018-07-08T06:49:52Z</time>
      </trkpt>
      <trkpt lat="48.06368" lon="7.02255">
        <ele>1145.12</ele>
        <time>2018-07-08T06:49:57Z</time>
      </trkpt>
      <trkpt lat="48.06367" lon="7.02279">
        <ele>1145.94</ele>
        <time>2018-07-08T06:50:09Z</time>
      </trkpt>
      <trkpt lat="48.06365" lon="7.02309">
        <ele>1144.1</ele>
        <time>2018-07-08T06:50:26Z</time>
      </trkpt>
      <trkpt lat="48.06364" lon="7.02324">
        <ele>1145.36</ele>
        <time>2018-07-08T06:50:34Z</time>
      </trkpt>
      <trkpt lat="48.06364" lon="7.02336">
        <ele>1144.97</ele>
        <time>2018-07-08T06:50:41Z</time>
      </trkpt>
      <trkpt lat="48.06363" lon="7.0234">
        <ele>1145.4</ele>
        <time>2018-07-08T06:50:43Z</time>
      </trkpt>
      <trkpt lat="48.06363" lon="7.02348">
        <ele>1145.09</ele>
        <time>2018-07-08T06:50:47Z</time>
      </trkpt>
      <trkpt lat="48.06361" lon="7.02355">
        <ele>1145.64</ele>
        <time>2018-07-08T06:50:51Z</time>
      </trkpt>
      <trkpt lat="48.06361" lon="7.02373">
        <ele>1143.96</ele>
        <time>2018-07-08T06:51:03Z</time>
      </trkpt>
      <trkpt lat="48.06361" lon="7.02387">
        <ele>1143.51</ele>
        <time>2018-07-08T06:51:11Z</time>
      </trkpt>
      <trkpt lat="48.06359" lon="7.02396">
        <ele>1144.29</ele>
        <time>2018-07-08T06:51:16Z</time>
      </trkpt>
      <trkpt lat="48.06356" lon="7.02416">
        <ele>1142.64</ele>
        <time>2018-07-08T06:51:33Z</time>
      </trkpt>
      <trkpt lat="48.06359" lon="7.02425">
        <ele>1142.12</ele>
        <time>2018-07-08T06:51:39Z</time>
      </trkpt>
      <trkpt lat="48.06366" lon="7.02446">
        <ele>1142.71</ele>
        <time>2018-07-08T06:51:56Z</time>
      </trkpt>
      <trkpt lat="48.06367" lon="7.0245">
        <ele>1142.47</ele>
        <time>2018-07-08T06:51:58Z</time>
      </trkpt>
      <trkpt lat="48.06372" lon="7.02472">
        <ele>1141.41</ele>
        <time>2018-07-08T06:52:14Z</time>
      </trkpt>
      <trkpt lat="48.06372" lon="7.02492">
        <ele>1140.51</ele>
        <time>2018-07-08T06:52:31Z</time>
      </trkpt>
      <trkpt lat="48.0637" lon="7.0249">
        <ele>1141.06</ele>
        <time>2018-07-08T06:52:41Z</time>
      </trkpt>
      <trkpt lat="48.06368" lon="7.02483">
        <ele>1140.18</ele>
        <time>2018-07-08T06:52:46Z</time>
      </trkpt>
      <trkpt lat="48.06365" lon="7.02477">
        <ele>1139.04</ele>
        <time>2018-07-08T06:52:51Z</time>
      </trkpt>
      <trkpt lat="48.06363" lon="7.02464">
        <ele>1137.3</ele>
        <time>2018-07-08T06:53:06Z</time>
      </trkpt>
      <trkpt lat="48.06363" lon="7.02464">
        <ele>1137.2</ele>
        <time>2018-07-08T06:53:29Z</time>
      </trkpt>
      <trkpt lat="48.06364" lon="7.02463">
        <ele>1137.52</ele>
        <time>2018-07-08T06:54:01Z</time>
      </trkpt>
      <trkpt lat="48.06358" lon="7.02454">
        <ele>1136.61</ele>
        <time>2018-07-08T06:54:23Z</time>
      </trkpt>
      <trkpt lat="48.06349" lon="7.0245">
        <ele>1133.15</ele>
        <time>2018-07-08T06:54:41Z</time>
      </trkpt>
      <trkpt lat="48.06342" lon="7.02453">
        <ele>1129.99</ele>
        <time>2018-07-08T06:54:52Z</time>
      </trkpt>
      <trkpt lat="48.06341" lon="7.02453">
        <ele>1130.62</ele>
        <time>2018-07-08T06:54:53Z</time>
      </trkpt>
      <trkpt lat="48.06331" lon="7.02453">
        <ele>1128.48</ele>
        <time>2018-07-08T06:55:04Z</time>
      </trkpt>
      <trkpt lat="48.06322" lon="7.02451">
        <ele>1131.78</ele>
        <time>2018-07-08T06:55:16Z</time>
      </trkpt>
      <trkpt lat="48.06304" lon="7.02453">
        <ele>1133.76</ele>
        <time>2018-07-08T06:55:33Z</time>
      </trkpt>
      <trkpt lat="48.06297" lon="7.02452">
        <ele>1134.69</ele>
        <time>2018-07-08T06:55:40Z</time>
      </trkpt>
      <trkpt lat="48.06281" lon="7.02463">
        <ele>1132.24</ele>
        <time>2018-07-08T06:56:01Z</time>
      </trkpt>
      <trkpt lat="48.06262" lon="7.02481">
        <ele>1130.11</ele>
        <time>2018-07-08T06:56:22Z</time>
      </trkpt>
      <trkpt lat="48.06245" lon="7.02488">
        <ele>1127.3</ele>
        <time>2018-07-08T06:56:44Z</time>
      </trkpt>
      <trkpt lat="48.06225" lon="7.02508">
        <ele>1124.85</ele>
        <time>2018-07-08T06:57:08Z</time>
      </trkpt>
      <trkpt lat="48.06211" lon="7.0252">
        <ele>1124.07</ele>
        <time>2018-07-08T06:57:26Z</time>
      </trkpt>
      <trkpt lat="48.0621" lon="7.0252">
        <ele>1124.01</ele>
        <time>2018-07-08T06:57:27Z</time>
      </trkpt>
      <trkpt lat="48.06197" lon="7.02535">
        <ele>1120.69</ele>
        <time>2018-07-08T06:57:48Z</time>
      </trkpt>
      <trkpt lat="48.06193" lon="7.02543">
        <ele>1124.05</ele>
        <time>2018-07-08T06:57:56Z</time>
      </trkpt>
      <trkpt lat="48.06185" lon="7.02558">
        <ele>1122.17</ele>
        <time>2018-07-08T06:58:09Z</time>
      </trkpt>
      <trkpt lat="48.06173" lon="7.02581">
        <ele>1122.75</ele>
        <time>2018-07-08T06:58:28Z</time>
      </trkpt>
      <trkpt lat="48.06169" lon="7.02583">
        <ele>1120.8</ele>
        <time>2018-07-08T06:58:32Z</time>
      </trkpt>
      <trkpt lat="48.0616" lon="7.02589">
        <ele>1123.42</ele>
        <time>2018-07-08T06:58:43Z</time>
      </trkpt>
      <trkpt lat="48.06149" lon="7.02589">
        <ele>1123.34</ele>
        <time>2018-07-08T06:58:55Z</time>
      </trkpt>
      <trkpt lat="48.06134" lon="7.02594">
        <ele>1122.89</ele>
        <time>2018-07-08T06:59:13Z</time>
      </trkpt>
      <trkpt lat="48.06127" lon="7.02592">
        <ele>1124.02</ele>
        <time>2018-07-08T06:59:24Z</time>
      </trkpt>
      <trkpt lat="48.0612" lon="7.02608">
        <ele>1124.76</ele>
        <time>2018-07-08T06:59:42Z</time>
      </trkpt>
      <trkpt lat="48.06119" lon="7.0261">
        <ele>1125.99</ele>
        <time>2018-07-08T06:59:45Z</time>
      </trkpt>
      <trkpt lat="48.06112" lon="7.02596">
        <ele>1124.74</ele>
        <time>2018-07-08T07:00:02Z</time>
      </trkpt>
      <trkpt lat="48.06109" lon="7.02589">
        <ele>1126.49</ele>
        <time>2018-07-08T07:00:08Z</time>
      </trkpt>
      <trkpt lat="48.06107" lon="7.02585">
        <ele>1123.47</ele>
        <time>2018-07-08T07:00:23Z</time>
      </trkpt>
      <trkpt lat="48.06107" lon="7.02585">
        <ele>1123.23</ele>
        <time>2018-07-08T07:00:24Z</time>
      </trkpt>
      <trkpt lat="48.06104" lon="7.02588">
        <ele>1122.54</ele>
        <time>2018-07-08T07:00:29Z</time>
      </trkpt>
      <trkpt lat="48.06098" lon="7.02591">
        <ele>1122.74</ele>
        <time>2018-07-08T07:00:37Z</time>
      </trkpt>
      <trkpt lat="48.06094" lon="7.0259">
        <ele>1123.82</ele>
        <time>2018-07-08T07:00:42Z</time>
      </trkpt>
      <trkpt lat="48.0609" lon="7.02589">
        <ele>1122.86</ele>
        <time>2018-07-08T07:00:51Z</time>
      </trkpt>
      <trkpt lat="48.06087" lon="7.02596">
        <ele>1121.81</ele>
        <time>2018-07-08T07:00:57Z</time>
      </trkpt>
      <trkpt lat="48.06081" lon="7.02616">
        <ele>1121.12</ele>
        <time>2018-07-08T07:01:21Z</time>
      </trkpt>
      <trkpt lat="48.06075" lon="7.02614">
        <ele>1120.55</ele>
        <time>2018-07-08T07:01:40Z</time>
      </trkpt>
      <trkpt lat="48.06074" lon="7.02612">
        <ele>1119.63</ele>
        <time>2018-07-08T07:02:03Z</time>
      </trkpt>
      <trkpt lat="48.06072" lon="7.02613">
        <ele>1119.42</ele>
        <time>2018-07-08T07:02:31Z</time>
      </trkpt>
      <trkpt lat="48.0607" lon="7.02613">
        <ele>1115.87</ele>
        <time>2018-07-08T07:02:38Z</time>
      </trkpt>
      <trkpt lat="48.06069" lon="7.02612">
        <ele>1122.79</ele>
        <time>2018-07-08T07:02:39Z</time>
      </trkpt>
      <trkpt lat="48.06069" lon="7.02612">
        <ele>1118.54</ele>
        <time>2018-07-08T07:02:40Z</time>
      </trkpt>
      <trkpt lat="48.06066" lon="7.02611">
        <ele>1117.48</ele>
        <time>2018-07-08T07:02:47Z</time>
      </trkpt>
      <trkpt lat="48.06053" lon="7.02612">
        <ele>1117.12</ele>
        <time>2018-07-08T07:03:09Z</time>
      </trkpt>
      <trkpt lat="48.06046" lon="7.02609">
        <ele>1117.12</ele>
        <time>2018-07-08T07:03:26Z</time>
      </trkpt>
      <trkpt lat="48.06042" lon="7.02607">
        <ele>1120.33</ele>
        <time>2018-07-08T07:03:36Z</time>
      </trkpt>
      <trkpt lat="48.06042" lon="7.02606">
        <ele>1116.66</ele>
        <time>2018-07-08T07:03:37Z</time>
      </trkpt>
      <trkpt lat="48.06036" lon="7.026">
        <ele>1116.73</ele>
        <time>2018-07-08T07:03:49Z</time>
      </trkpt>
      <trkpt lat="48.06031" lon="7.02598">
        <ele>1115.76</ele>
        <time>2018-07-08T07:04:08Z</time>
      </trkpt>
      <trkpt lat="48.06032" lon="7.02589">
        <ele>1114.61</ele>
        <time>2018-07-08T07:04:26Z</time>
      </trkpt>
      <trkpt lat="48.06033" lon="7.02583">
        <ele>1111.96</ele>
        <time>2018-07-08T07:04:47Z</time>
      </trkpt>
      <trkpt lat="48.06037" lon="7.02578">
        <ele>1111.82</ele>
        <time>2018-07-08T07:05:03Z</time>
      </trkpt>
      <trkpt lat="48.06029" lon="7.0257">
        <ele>1110.1</ele>
        <time>2018-07-08T07:05:27Z</time>
      </trkpt>
      <trkpt lat="48.06018" lon="7.0256">
        <ele>1109.27</ele>
        <time>2018-07-08T07:05:41Z</time>
      </trkpt>
      <trkpt lat="48.06015" lon="7.02558">
        <ele>1108.7</ele>
        <time>2018-07-08T07:05:56Z</time>
      </trkpt>
      <trkpt lat="48.06021" lon="7.02559">
        <ele>1105.56</ele>
        <time>2018-07-08T07:06:13Z</time>
      </trkpt>
      <trkpt lat="48.0602" lon="7.0256">
        <ele>1105.58</ele>
        <time>2018-07-08T07:06:16Z</time>
      </trkpt>
      <trkpt lat="48.06016" lon="7.02559">
        <ele>1105.13</ele>
        <time>2018-07-08T07:06:24Z</time>
      </trkpt>
      <trkpt lat="48.06011" lon="7.02551">
        <ele>1100.91</ele>
        <time>2018-07-08T07:06:42Z</time>
      </trkpt>
      <trkpt lat="48.06011" lon="7.02552">
        <ele>1107.01</ele>
        <time>2018-07-08T07:06:43Z</time>
      </trkpt>
      <trkpt lat="48.06011" lon="7.02552">
        <ele>1102.67</ele>
        <time>2018-07-08T07:06:44Z</time>
      </trkpt>
      <trkpt lat="48.06011" lon="7.0255">
        <ele>1102.6</ele>
        <time>2018-07-08T07:06:48Z</time>
      </trkpt>
      <trkpt lat="48.06001" lon="7.02548">
        <ele>1100.77</ele>
        <time>2018-07-08T07:06:58Z</time>
      </trkpt>
      <trkpt lat="48.06001" lon="7.02547">
        <ele>1102.65</ele>
        <time>2018-07-08T07:07:00Z</time>
      </trkpt>
      <trkpt lat="48.05995" lon="7.02541">
        <ele>1102.02</ele>
        <time>2018-07-08T07:07:14Z</time>
      </trkpt>
      <trkpt lat="48.05991" lon="7.02542">
        <ele>1101.22</ele>
        <time>2018-07-08T07:07:19Z</time>
      </trkpt>
      <trkpt lat="48.05988" lon="7.02548">
        <ele>1101.96</ele>
        <time>2018-07-08T07:07:45Z</time>
      </trkpt>
      <trkpt lat="48.0599" lon="7.02551">
        <ele>1102.62</ele>
        <time>2018-07-08T07:08:07Z</time>
      </trkpt>
      <trkpt lat="48.05984" lon="7.02541">
        <ele>1101.45</ele>
        <time>2018-07-08T07:08:31Z</time>
      </trkpt>
      <trkpt lat="48.05979" lon="7.0253">
        <ele>1101.33</ele>
        <time>2018-07-08T07:08:44Z</time>
      </trkpt>
      <trkpt lat="48.05972" lon="7.02521">
        <ele>1103.19</ele>
        <time>2018-07-08T07:08:59Z</time>
      </trkpt>
      <trkpt lat="48.0597" lon="7.02521">
        <ele>1099.7</ele>
        <time>2018-07-08T07:09:04Z</time>
      </trkpt>
      <trkpt lat="48.05961" lon="7.02523">
        <ele>1098.26</ele>
        <time>2018-07-08T07:09:18Z</time>
      </trkpt>
      <trkpt lat="48.05954" lon="7.0252">
        <ele>1101.86</ele>
        <time>2018-07-08T07:09:24Z</time>
      </trkpt>
      <trkpt lat="48.05953" lon="7.02519">
        <ele>1098.67</ele>
        <time>2018-07-08T07:09:26Z</time>
      </trkpt>
      <trkpt lat="48.05952" lon="7.0252">
        <ele>1103.75</ele>
        <time>2018-07-08T07:09:27Z</time>
      </trkpt>
      <trkpt lat="48.0595" lon="7.02518">
        <ele>1099.26</ele>
        <time>2018-07-08T07:09:29Z</time>
      </trkpt>
      <trkpt lat="48.05949" lon="7.02518">
        <ele>1103.19</ele>
        <time>2018-07-08T07:09:30Z</time>
      </trkpt>
      <trkpt lat="48.05948" lon="7.02518">
        <ele>1103.04</ele>
        <time>2018-07-08T07:09:31Z</time>
      </trkpt>
      <trkpt lat="48.05943" lon="7.02512">
        <ele>1106.43</ele>
        <time>2018-07-08T07:09:40Z</time>
      </trkpt>
      <trkpt lat="48.05933" lon="7.02504">
        <ele>1109.84</ele>
        <time>2018-07-08T07:09:56Z</time>
      </trkpt>
      <trkpt lat="48.05932" lon="7.02504">
        <ele>1106.12</ele>
        <time>2018-07-08T07:09:57Z</time>
      </trkpt>
      <trkpt lat="48.05931" lon="7.02498">
        <ele>1109.22</ele>
        <time>2018-07-08T07:10:05Z</time>
      </trkpt>
      <trkpt lat="48.05931" lon="7.02496">
        <ele>1109.58</ele>
        <time>2018-07-08T07:10:10Z</time>
      </trkpt>
      <trkpt lat="48.05933" lon="7.02492">
        <ele>1112.04</ele>
        <time>2018-07-08T07:10:25Z</time>
      </trkpt>
      <trkpt lat="48.0594" lon="7.02491">
        <ele>1111.15</ele>
        <time>2018-07-08T07:10:45Z</time>
      </trkpt>
      <trkpt lat="48.05944" lon="7.02489">
        <ele>1114.89</ele>
        <time>2018-07-08T07:10:53Z</time>
      </trkpt>
      <trkpt lat="48.05945" lon="7.02488">
        <ele>1110.99</ele>
        <time>2018-07-08T07:10:54Z</time>
      </trkpt>
      <trkpt lat="48.05945" lon="7.02487">
        <ele>1114.57</ele>
        <time>2018-07-08T07:10:55Z</time>
      </trkpt>
      <trkpt lat="48.05943" lon="7.02487">
        <ele>1116.18</ele>
        <time>2018-07-08T07:11:02Z</time>
      </trkpt>
      <trkpt lat="48.05943" lon="7.02487">
        <ele>1112.56</ele>
        <time>2018-07-08T07:11:03Z</time>
      </trkpt>
      <trkpt lat="48.05943" lon="7.02487">
        <ele>1116.89</ele>
        <time>2018-07-08T07:11:04Z</time>
      </trkpt>
      <trkpt lat="48.0594" lon="7.02485">
        <ele>1113.04</ele>
        <time>2018-07-08T07:11:13Z</time>
      </trkpt>
      <trkpt lat="48.0594" lon="7.02484">
        <ele>1118.19</ele>
        <time>2018-07-08T07:11:14Z</time>
      </trkpt>
      <trkpt lat="48.0594" lon="7.02484">
        <ele>1117.53</ele>
        <time>2018-07-08T07:11:15Z</time>
      </trkpt>
      <trkpt lat="48.0594" lon="7.02483">
        <ele>1110.31</ele>
        <time>2018-07-08T07:11:16Z</time>
      </trkpt>
      <trkpt lat="48.0594" lon="7.02482">
        <ele>1121.72</ele>
        <time>2018-07-08T07:11:17Z</time>
      </trkpt>
      <trkpt lat="48.0594" lon="7.02482">
        <ele>1117.6</ele>
        <time>2018-07-08T07:11:18Z</time>
      </trkpt>
      <trkpt lat="48.05939" lon="7.02482">
        <ele>1114.5</ele>
        <time>2018-07-08T07:11:19Z</time>
      </trkpt>
      <trkpt lat="48.0594" lon="7.02482">
        <ele>1118.79</ele>
        <time>2018-07-08T07:11:20Z</time>
      </trkpt>
      <trkpt lat="48.05938" lon="7.0248">
        <ele>1118.35</ele>
        <time>2018-07-08T07:11:25Z</time>
      </trkpt>
      <trkpt lat="48.05929" lon="7.02479">
        <ele>1118.48</ele>
        <time>2018-07-08T07:11:42Z</time>
      </trkpt>
      <trkpt lat="48.0592" lon="7.02483">
        <ele>1120.46</ele>
        <time>2018-07-08T07:11:53Z</time>
      </trkpt>
      <trkpt lat="48.05914" lon="7.02488">
        <ele>1122.36</ele>
        <time>2018-07-08T07:12:05Z</time>
      </trkpt>
      <trkpt lat="48.05909" lon="7.02492">
        <ele>1117.58</ele>
        <time>2018-07-08T07:12:11Z</time>
      </trkpt>
      <trkpt lat="48.05908" lon="7.02492">
        <ele>1124.96</ele>
        <time>2018-07-08T07:12:12Z</time>
      </trkpt>
      <trkpt lat="48.05906" lon="7.02493">
        <ele>1121.14</ele>
        <time>2018-07-08T07:12:14Z</time>
      </trkpt>
      <trkpt lat="48.05905" lon="7.02492">
        <ele>1121.65</ele>
        <time>2018-07-08T07:12:17Z</time>
      </trkpt>
      <trkpt lat="48.05899" lon="7.02484">
        <ele>1126.15</ele>
        <time>2018-07-08T07:12:33Z</time>
      </trkpt>
      <trkpt lat="48.05898" lon="7.02483">
        <ele>1122.08</ele>
        <time>2018-07-08T07:12:34Z</time>
      </trkpt>
      <trkpt lat="48.05898" lon="7.02482">
        <ele>1125.25</ele>
        <time>2018-07-08T07:12:35Z</time>
      </trkpt>
      <trkpt lat="48.05885" lon="7.02464">
        <ele>1124.32</ele>
        <time>2018-07-08T07:12:55Z</time>
      </trkpt>
      <trkpt lat="48.05877" lon="7.02463">
        <ele>1123.96</ele>
        <time>2018-07-08T07:13:09Z</time>
      </trkpt>
      <trkpt lat="48.0587" lon="7.02467">
        <ele>1124.11</ele>
        <time>2018-07-08T07:13:16Z</time>
      </trkpt>
      <trkpt lat="48.05851" lon="7.02481">
        <ele>1123.05</ele>
        <time>2018-07-08T07:13:39Z</time>
      </trkpt>
      <trkpt lat="48.05848" lon="7.02498">
        <ele>1123</ele>
        <time>2018-07-08T07:13:59Z</time>
      </trkpt>
      <trkpt lat="48.05849" lon="7.0251">
        <ele>1122.16</ele>
        <time>2018-07-08T07:14:18Z</time>
      </trkpt>
      <trkpt lat="48.05849" lon="7.02512">
        <ele>1122.01</ele>
        <time>2018-07-08T07:14:20Z</time>
      </trkpt>
      <trkpt lat="48.05849" lon="7.02515">
        <ele>1121.37</ele>
        <time>2018-07-08T07:14:22Z</time>
      </trkpt>
      <trkpt lat="48.05851" lon="7.02522">
        <ele>1121.66</ele>
        <time>2018-07-08T07:14:29Z</time>
      </trkpt>
      <trkpt lat="48.05853" lon="7.02524">
        <ele>1120.61</ele>
        <time>2018-07-08T07:14:31Z</time>
      </trkpt>
      <trkpt lat="48.05858" lon="7.02531">
        <ele>1121.06</ele>
        <time>2018-07-08T07:14:47Z</time>
      </trkpt>
      <trkpt lat="48.05858" lon="7.02532">
        <ele>1119.97</ele>
        <time>2018-07-08T07:14:51Z</time>
      </trkpt>
      <trkpt lat="48.05857" lon="7.02541">
        <ele>1116.14</ele>
        <time>2018-07-08T07:15:06Z</time>
      </trkpt>
      <trkpt lat="48.05857" lon="7.02541">
        <ele>1119.14</ele>
        <time>2018-07-08T07:15:07Z</time>
      </trkpt>
      <trkpt lat="48.05859" lon="7.02543">
        <ele>1118.28</ele>
        <time>2018-07-08T07:15:33Z</time>
      </trkpt>
      <trkpt lat="48.05859" lon="7.02543">
        <ele>1117.75</ele>
        <time>2018-07-08T07:15:57Z</time>
      </trkpt>
      <trkpt lat="48.05858" lon="7.02545">
        <ele>1118.4</ele>
        <time>2018-07-08T07:16:16Z</time>
      </trkpt>
      <trkpt lat="48.05859" lon="7.02541">
        <ele>1115.12</ele>
        <time>2018-07-08T07:16:26Z</time>
      </trkpt>
      <trkpt lat="48.05859" lon="7.02541">
        <ele>1118.41</ele>
        <time>2018-07-08T07:16:27Z</time>
      </trkpt>
      <trkpt lat="48.05859" lon="7.02533">
        <ele>1117.2</ele>
        <time>2018-07-08T07:16:49Z</time>
      </trkpt>
      <trkpt lat="48.05859" lon="7.02533">
        <ele>1120.74</ele>
        <time>2018-07-08T07:16:50Z</time>
      </trkpt>
      <trkpt lat="48.05856" lon="7.02525">
        <ele>1121.4</ele>
        <time>2018-07-08T07:17:10Z</time>
      </trkpt>
      <trkpt lat="48.05856" lon="7.02526">
        <ele>1120.96</ele>
        <time>2018-07-08T07:17:13Z</time>
      </trkpt>
      <trkpt lat="48.05862" lon="7.02527">
        <ele>1120.49</ele>
        <time>2018-07-08T07:17:37Z</time>
      </trkpt>
      <trkpt lat="48.05857" lon="7.02524">
        <ele>1120.8</ele>
        <time>2018-07-08T07:17:56Z</time>
      </trkpt>
      <trkpt lat="48.05857" lon="7.02523">
        <ele>1120.77</ele>
        <time>2018-07-08T07:18:21Z</time>
      </trkpt>
      <trkpt lat="48.05857" lon="7.02526">
        <ele>1120</ele>
        <time>2018-07-08T07:18:27Z</time>
      </trkpt>
      <trkpt lat="48.05855" lon="7.02532">
        <ele>1119.61</ele>
        <time>2018-07-08T07:18:53Z</time>
      </trkpt>
      <trkpt lat="48.05852" lon="7.02534">
        <ele>1119.88</ele>
        <time>2018-07-08T07:19:17Z</time>
      </trkpt>
      <trkpt lat="48.05856" lon="7.02536">
        <ele>1119.63</ele>
        <time>2018-07-08T07:19:50Z</time>
      </trkpt>
      <trkpt lat="48.05846" lon="7.02525">
        <ele>1118.96</ele>
        <time>2018-07-08T07:20:13Z</time>
      </trkpt>
      <trkpt lat="48.05826" lon="7.02514">
        <ele>1118.32</ele>
        <time>2018-07-08T07:20:38Z</time>
      </trkpt>
      <trkpt lat="48.05824" lon="7.02514">
        <ele>1117.5</ele>
        <time>2018-07-08T07:20:43Z</time>
      </trkpt>
      <trkpt lat="48.0581" lon="7.02538">
        <ele>1116.44</ele>
        <time>2018-07-08T07:21:12Z</time>
      </trkpt>
      <trkpt lat="48.058" lon="7.02559">
        <ele>1114.56</ele>
        <time>2018-07-08T07:21:36Z</time>
      </trkpt>
      <trkpt lat="48.05787" lon="7.02574">
        <ele>1113.69</ele>
        <time>2018-07-08T07:21:58Z</time>
      </trkpt>
      <trkpt lat="48.05772" lon="7.02586">
        <ele>1113.12</ele>
        <time>2018-07-08T07:22:20Z</time>
      </trkpt>
      <trkpt lat="48.05752" lon="7.02594">
        <ele>1113.36</ele>
        <time>2018-07-08T07:22:44Z</time>
      </trkpt>
      <trkpt lat="48.0574" lon="7.02609">
        <ele>1112.96</ele>
        <time>2018-07-08T07:23:04Z</time>
      </trkpt>
      <trkpt lat="48.05739" lon="7.02613">
        <ele>1114.24</ele>
        <time>2018-07-08T07:23:09Z</time>
      </trkpt>
      <trkpt lat="48.05736" lon="7.02628">
        <ele>1114.17</ele>
        <time>2018-07-08T07:23:29Z</time>
      </trkpt>
      <trkpt lat="48.05736" lon="7.02628">
        <ele>1114.12</ele>
        <time>2018-07-08T07:23:30Z</time>
      </trkpt>
      <trkpt lat="48.05727" lon="7.02648">
        <ele>1114.96</ele>
        <time>2018-07-08T07:23:47Z</time>
      </trkpt>
      <trkpt lat="48.05712" lon="7.02668">
        <ele>1112.87</ele>
        <time>2018-07-08T07:24:12Z</time>
      </trkpt>
      <trkpt lat="48.05704" lon="7.02686">
        <ele>1113.12</ele>
        <time>2018-07-08T07:24:31Z</time>
      </trkpt>
      <trkpt lat="48.05699" lon="7.02705">
        <ele>1112.39</ele>
        <time>2018-07-08T07:24:54Z</time>
      </trkpt>
      <trkpt lat="48.05696" lon="7.02721">
        <ele>1109.38</ele>
        <time>2018-07-08T07:25:13Z</time>
      </trkpt>
      <trkpt lat="48.0569" lon="7.02741">
        <ele>1109.18</ele>
        <time>2018-07-08T07:25:35Z</time>
      </trkpt>
      <trkpt lat="48.0569" lon="7.02746">
        <ele>1107.88</ele>
        <time>2018-07-08T07:25:41Z</time>
      </trkpt>
      <trkpt lat="48.05679" lon="7.02761">
        <ele>1106.17</ele>
        <time>2018-07-08T07:26:01Z</time>
      </trkpt>
      <trkpt lat="48.05678" lon="7.02763">
        <ele>1105.72</ele>
        <time>2018-07-08T07:26:06Z</time>
      </trkpt>
      <trkpt lat="48.05676" lon="7.02762">
        <ele>1106.37</ele>
        <time>2018-07-08T07:26:09Z</time>
      </trkpt>
      <trkpt lat="48.05665" lon="7.02775">
        <ele>1106.72</ele>
        <time>2018-07-08T07:26:32Z</time>
      </trkpt>
      <trkpt lat="48.05656" lon="7.02772">
        <ele>1108.02</ele>
        <time>2018-07-08T07:26:45Z</time>
      </trkpt>
      <trkpt lat="48.05641" lon="7.02775">
        <ele>1108.93</ele>
        <time>2018-07-08T07:27:09Z</time>
      </trkpt>
      <trkpt lat="48.05646" lon="7.0278">
        <ele>1108.84</ele>
        <time>2018-07-08T07:27:41Z</time>
      </trkpt>
      <trkpt lat="48.05645" lon="7.02781">
        <ele>1108.91</ele>
        <time>2018-07-08T07:28:14Z</time>
      </trkpt>
      <trkpt lat="48.05646" lon="7.02783">
        <ele>1109.38</ele>
        <time>2018-07-08T07:28:18Z</time>
      </trkpt>
      <trkpt lat="48.05641" lon="7.02789">
        <ele>1112.92</ele>
        <time>2018-07-08T07:28:43Z</time>
      </trkpt>
      <trkpt lat="48.0564" lon="7.02787">
        <ele>1109.81</ele>
        <time>2018-07-08T07:28:44Z</time>
      </trkpt>
      <trkpt lat="48.05628" lon="7.02783">
        <ele>1110.18</ele>
        <time>2018-07-08T07:28:58Z</time>
      </trkpt>
      <trkpt lat="48.05627" lon="7.02782">
        <ele>1113.61</ele>
        <time>2018-07-08T07:28:59Z</time>
      </trkpt>
      <trkpt lat="48.05625" lon="7.02781">
        <ele>1111.37</ele>
        <time>2018-07-08T07:29:02Z</time>
      </trkpt>
      <trkpt lat="48.05621" lon="7.02782">
        <ele>1112.23</ele>
        <time>2018-07-08T07:29:05Z</time>
      </trkpt>
      <trkpt lat="48.05613" lon="7.02788">
        <ele>1112.26</ele>
        <time>2018-07-08T07:29:16Z</time>
      </trkpt>
      <trkpt lat="48.05599" lon="7.02794">
        <ele>1113.09</ele>
        <time>2018-07-08T07:29:32Z</time>
      </trkpt>
      <trkpt lat="48.05586" lon="7.02801">
        <ele>1116.11</ele>
        <time>2018-07-08T07:29:47Z</time>
      </trkpt>
      <trkpt lat="48.05574" lon="7.02805">
        <ele>1116.01</ele>
        <time>2018-07-08T07:30:02Z</time>
      </trkpt>
      <trkpt lat="48.05565" lon="7.02803">
        <ele>1115.18</ele>
        <time>2018-07-08T07:30:18Z</time>
      </trkpt>
      <trkpt lat="48.05557" lon="7.0281">
        <ele>1113.72</ele>
        <time>2018-07-08T07:30:36Z</time>
      </trkpt>
      <trkpt lat="48.05554" lon="7.02809">
        <ele>1113.55</ele>
        <time>2018-07-08T07:30:42Z</time>
      </trkpt>
      <trkpt lat="48.05547" lon="7.02822">
        <ele>1113.34</ele>
        <time>2018-07-08T07:31:01Z</time>
      </trkpt>
      <trkpt lat="48.05544" lon="7.02827">
        <ele>1112.91</ele>
        <time>2018-07-08T07:31:12Z</time>
      </trkpt>
      <trkpt lat="48.05538" lon="7.02841">
        <ele>1113.18</ele>
        <time>2018-07-08T07:31:25Z</time>
      </trkpt>
      <trkpt lat="48.05533" lon="7.02862">
        <ele>1113.78</ele>
        <time>2018-07-08T07:31:45Z</time>
      </trkpt>
      <trkpt lat="48.05536" lon="7.02864">
        <ele>1114.15</ele>
        <time>2018-07-08T07:31:52Z</time>
      </trkpt>
      <trkpt lat="48.05537" lon="7.02867">
        <ele>1113.07</ele>
        <time>2018-07-08T07:32:00Z</time>
      </trkpt>
      <trkpt lat="48.05537" lon="7.02869">
        <ele>1115.73</ele>
        <time>2018-07-08T07:32:02Z</time>
      </trkpt>
      <trkpt lat="48.05531" lon="7.02869">
        <ele>1115.16</ele>
        <time>2018-07-08T07:32:23Z</time>
      </trkpt>
      <trkpt lat="48.05527" lon="7.02851">
        <ele>1116.03</ele>
        <time>2018-07-08T07:32:42Z</time>
      </trkpt>
      <trkpt lat="48.05508" lon="7.02875">
        <ele>1112.85</ele>
        <time>2018-07-08T07:33:23Z</time>
      </trkpt>
      <trkpt lat="48.05513" lon="7.02876">
        <ele>1111.48</ele>
        <time>2018-07-08T07:33:29Z</time>
      </trkpt>
      <trkpt lat="48.05518" lon="7.02887">
        <ele>1109.23</ele>
        <time>2018-07-08T07:33:51Z</time>
      </trkpt>
      <trkpt lat="48.05521" lon="7.02894">
        <ele>1105.76</ele>
        <time>2018-07-08T07:34:04Z</time>
      </trkpt>
      <trkpt lat="48.05521" lon="7.02895">
        <ele>1110.46</ele>
        <time>2018-07-08T07:34:05Z</time>
      </trkpt>
      <trkpt lat="48.05521" lon="7.02895">
        <ele>1106.28</ele>
        <time>2018-07-08T07:34:06Z</time>
      </trkpt>
      <trkpt lat="48.05521" lon="7.02889">
        <ele>1105.69</ele>
        <time>2018-07-08T07:34:28Z</time>
      </trkpt>
      <trkpt lat="48.05524" lon="7.0289">
        <ele>1105.98</ele>
        <time>2018-07-08T07:34:53Z</time>
      </trkpt>
      <trkpt lat="48.05528" lon="7.02891">
        <ele>1106.14</ele>
        <time>2018-07-08T07:35:13Z</time>
      </trkpt>
      <trkpt lat="48.0553" lon="7.0289">
        <ele>1105.85</ele>
        <time>2018-07-08T07:35:22Z</time>
      </trkpt>
      <trkpt lat="48.05533" lon="7.02887">
        <ele>1102.77</ele>
        <time>2018-07-08T07:35:30Z</time>
      </trkpt>
      <trkpt lat="48.05533" lon="7.02886">
        <ele>1106.92</ele>
        <time>2018-07-08T07:35:31Z</time>
      </trkpt>
      <trkpt lat="48.05532" lon="7.02884">
        <ele>1102.03</ele>
        <time>2018-07-08T07:35:33Z</time>
      </trkpt>
      <trkpt lat="48.05532" lon="7.02883">
        <ele>1108.74</ele>
        <time>2018-07-08T07:35:34Z</time>
      </trkpt>
      <trkpt lat="48.05531" lon="7.02883">
        <ele>1104.47</ele>
        <time>2018-07-08T07:35:35Z</time>
      </trkpt>
      <trkpt lat="48.05527" lon="7.02877">
        <ele>1104.32</ele>
        <time>2018-07-08T07:35:55Z</time>
      </trkpt>
      <trkpt lat="48.05526" lon="7.02877">
        <ele>1101.76</ele>
        <time>2018-07-08T07:36:04Z</time>
      </trkpt>
      <trkpt lat="48.05521" lon="7.02882">
        <ele>1099.65</ele>
        <time>2018-07-08T07:36:22Z</time>
      </trkpt>
      <trkpt lat="48.05518" lon="7.02887">
        <ele>1098.43</ele>
        <time>2018-07-08T07:36:41Z</time>
      </trkpt>
      <trkpt lat="48.05514" lon="7.02885">
        <ele>1096.56</ele>
        <time>2018-07-08T07:37:03Z</time>
      </trkpt>
      <trkpt lat="48.05513" lon="7.02883">
        <ele>1095.29</ele>
        <time>2018-07-08T07:37:28Z</time>
      </trkpt>
      <trkpt lat="48.05513" lon="7.0288">
        <ele>1093.72</ele>
        <time>2018-07-08T07:37:32Z</time>
      </trkpt>
      <trkpt lat="48.05514" lon="7.02875">
        <ele>1091.61</ele>
        <time>2018-07-08T07:37:36Z</time>
      </trkpt>
      <trkpt lat="48.05514" lon="7.02876">
        <ele>1095.66</ele>
        <time>2018-07-08T07:37:38Z</time>
      </trkpt>
      <trkpt lat="48.05513" lon="7.02875">
        <ele>1093.14</ele>
        <time>2018-07-08T07:37:39Z</time>
      </trkpt>
      <trkpt lat="48.05509" lon="7.02888">
        <ele>1091.26</ele>
        <time>2018-07-08T07:37:57Z</time>
      </trkpt>
      <trkpt lat="48.05513" lon="7.02899">
        <ele>1088.82</ele>
        <time>2018-07-08T07:38:20Z</time>
      </trkpt>
      <trkpt lat="48.05508" lon="7.02893">
        <ele>1087.04</ele>
        <time>2018-07-08T07:38:42Z</time>
      </trkpt>
      <trkpt lat="48.05505" lon="7.02886">
        <ele>1086.08</ele>
        <time>2018-07-08T07:39:03Z</time>
      </trkpt>
      <trkpt lat="48.05499" lon="7.0289">
        <ele>1086.25</ele>
        <time>2018-07-08T07:39:27Z</time>
      </trkpt>
      <trkpt lat="48.05498" lon="7.02896">
        <ele>1086.25</ele>
        <time>2018-07-08T07:39:58Z</time>
      </trkpt>
      <trkpt lat="48.05494" lon="7.02887">
        <ele>1084.89</ele>
        <time>2018-07-08T07:40:27Z</time>
      </trkpt>
      <trkpt lat="48.05491" lon="7.02881">
        <ele>1083.54</ele>
        <time>2018-07-08T07:40:33Z</time>
      </trkpt>
      <trkpt lat="48.05486" lon="7.02878">
        <ele>1083.72</ele>
        <time>2018-07-08T07:40:37Z</time>
      </trkpt>
      <trkpt lat="48.0548" lon="7.02864">
        <ele>1084.49</ele>
        <time>2018-07-08T07:40:54Z</time>
      </trkpt>
      <trkpt lat="48.05472" lon="7.0286">
        <ele>1083.17</ele>
        <time>2018-07-08T07:41:08Z</time>
      </trkpt>
      <trkpt lat="48.05462" lon="7.02856">
        <ele>1082.27</ele>
        <time>2018-07-08T07:41:31Z</time>
      </trkpt>
      <trkpt lat="48.05455" lon="7.02856">
        <ele>1082.92</ele>
        <time>2018-07-08T07:41:45Z</time>
      </trkpt>
      <trkpt lat="48.05447" lon="7.02854">
        <ele>1080.52</ele>
        <time>2018-07-08T07:42:05Z</time>
      </trkpt>
      <trkpt lat="48.0544" lon="7.02849">
        <ele>1080.41</ele>
        <time>2018-07-08T07:42:22Z</time>
      </trkpt>
      <trkpt lat="48.05431" lon="7.02851">
        <ele>1079.72</ele>
        <time>2018-07-08T07:42:42Z</time>
      </trkpt>
      <trkpt lat="48.0543" lon="7.02856">
        <ele>1077.41</ele>
        <time>2018-07-08T07:43:09Z</time>
      </trkpt>
      <trkpt lat="48.05431" lon="7.02857">
        <ele>1077.94</ele>
        <time>2018-07-08T07:43:10Z</time>
      </trkpt>
      <trkpt lat="48.0543" lon="7.02861">
        <ele>1077.36</ele>
        <time>2018-07-08T07:43:14Z</time>
      </trkpt>
      <trkpt lat="48.05426" lon="7.02877">
        <ele>1073.57</ele>
        <time>2018-07-08T07:43:28Z</time>
      </trkpt>
      <trkpt lat="48.05426" lon="7.02877">
        <ele>1078.71</ele>
        <time>2018-07-08T07:43:29Z</time>
      </trkpt>
      <trkpt lat="48.05426" lon="7.02877">
        <ele>1073.37</ele>
        <time>2018-07-08T07:43:30Z</time>
      </trkpt>
      <trkpt lat="48.05426" lon="7.02878">
        <ele>1079.9</ele>
        <time>2018-07-08T07:43:31Z</time>
      </trkpt>
      <trkpt lat="48.05425" lon="7.02879">
        <ele>1076.4</ele>
        <time>2018-07-08T07:43:32Z</time>
      </trkpt>
      <trkpt lat="48.05421" lon="7.02893">
        <ele>1070.46</ele>
        <time>2018-07-08T07:43:50Z</time>
      </trkpt>
      <trkpt lat="48.05421" lon="7.02893">
        <ele>1079.65</ele>
        <time>2018-07-08T07:43:51Z</time>
      </trkpt>
      <trkpt lat="48.0542" lon="7.02893">
        <ele>1076.82</ele>
        <time>2018-07-08T07:43:52Z</time>
      </trkpt>
      <trkpt lat="48.05418" lon="7.029">
        <ele>1074.57</ele>
        <time>2018-07-08T07:44:04Z</time>
      </trkpt>
      <trkpt lat="48.05414" lon="7.02906">
        <ele>1070.59</ele>
        <time>2018-07-08T07:44:14Z</time>
      </trkpt>
      <trkpt lat="48.05415" lon="7.02906">
        <ele>1076.46</ele>
        <time>2018-07-08T07:44:15Z</time>
      </trkpt>
      <trkpt lat="48.05416" lon="7.02906">
        <ele>1073.2</ele>
        <time>2018-07-08T07:44:16Z</time>
      </trkpt>
      <trkpt lat="48.05415" lon="7.02914">
        <ele>1072.48</ele>
        <time>2018-07-08T07:44:28Z</time>
      </trkpt>
      <trkpt lat="48.05416" lon="7.02925">
        <ele>1070.74</ele>
        <time>2018-07-08T07:44:41Z</time>
      </trkpt>
      <trkpt lat="48.05421" lon="7.02924">
        <ele>1069.05</ele>
        <time>2018-07-08T07:45:02Z</time>
      </trkpt>
      <trkpt lat="48.05422" lon="7.02928">
        <ele>1068.2</ele>
        <time>2018-07-08T07:45:22Z</time>
      </trkpt>
      <trkpt lat="48.05428" lon="7.02924">
        <ele>1065.95</ele>
        <time>2018-07-08T07:45:38Z</time>
      </trkpt>
      <trkpt lat="48.05434" lon="7.02904">
        <ele>1065.28</ele>
        <time>2018-07-08T07:46:01Z</time>
      </trkpt>
      <trkpt lat="48.05437" lon="7.02894">
        <ele>1064.56</ele>
        <time>2018-07-08T07:46:19Z</time>
      </trkpt>
      <trkpt lat="48.05444" lon="7.02893">
        <ele>1061.27</ele>
        <time>2018-07-08T07:46:38Z</time>
      </trkpt>
      <trkpt lat="48.05449" lon="7.02909">
        <ele>1060.89</ele>
        <time>2018-07-08T07:47:00Z</time>
      </trkpt>
      <trkpt lat="48.05451" lon="7.0291">
        <ele>1064.55</ele>
        <time>2018-07-08T07:47:05Z</time>
      </trkpt>
      <trkpt lat="48.05451" lon="7.02911">
        <ele>1061.24</ele>
        <time>2018-07-08T07:47:06Z</time>
      </trkpt>
      <trkpt lat="48.05456" lon="7.02916">
        <ele>1060.07</ele>
        <time>2018-07-08T07:47:14Z</time>
      </trkpt>
      <trkpt lat="48.05467" lon="7.02921">
        <ele>1058.93</ele>
        <time>2018-07-08T07:47:36Z</time>
      </trkpt>
      <trkpt lat="48.05469" lon="7.02923">
        <ele>1059.29</ele>
        <time>2018-07-08T07:47:41Z</time>
      </trkpt>
      <trkpt lat="48.05472" lon="7.02925">
        <ele>1059.32</ele>
        <time>2018-07-08T07:47:45Z</time>
      </trkpt>
      <trkpt lat="48.05477" lon="7.02936">
        <ele>1056.91</ele>
        <time>2018-07-08T07:48:02Z</time>
      </trkpt>
      <trkpt lat="48.05481" lon="7.02941">
        <ele>1053.69</ele>
        <time>2018-07-08T07:48:15Z</time>
      </trkpt>
      <trkpt lat="48.0549" lon="7.02947">
        <ele>1053.98</ele>
        <time>2018-07-08T07:48:34Z</time>
      </trkpt>
      <trkpt lat="48.05498" lon="7.02954">
        <ele>1050.96</ele>
        <time>2018-07-08T07:48:52Z</time>
      </trkpt>
      <trkpt lat="48.05496" lon="7.02956">
        <ele>1048.63</ele>
        <time>2018-07-08T07:49:12Z</time>
      </trkpt>
      <trkpt lat="48.05494" lon="7.02955">
        <ele>1045.34</ele>
        <time>2018-07-08T07:49:16Z</time>
      </trkpt>
      <trkpt lat="48.05493" lon="7.02955">
        <ele>1048.92</ele>
        <time>2018-07-08T07:49:17Z</time>
      </trkpt>
      <trkpt lat="48.0549" lon="7.02953">
        <ele>1045.72</ele>
        <time>2018-07-08T07:49:23Z</time>
      </trkpt>
      <trkpt lat="48.05486" lon="7.02954">
        <ele>1042.53</ele>
        <time>2018-07-08T07:49:40Z</time>
      </trkpt>
      <trkpt lat="48.05479" lon="7.02952">
        <ele>1041.44</ele>
        <time>2018-07-08T07:49:57Z</time>
      </trkpt>
      <trkpt lat="48.05474" lon="7.02954">
        <ele>1041.85</ele>
        <time>2018-07-08T07:50:17Z</time>
      </trkpt>
      <trkpt lat="48.05476" lon="7.02956">
        <ele>1041.63</ele>
        <time>2018-07-08T07:50:43Z</time>
      </trkpt>
      <trkpt lat="48.05482" lon="7.02953">
        <ele>1041.35</ele>
        <time>2018-07-08T07:51:08Z</time>
      </trkpt>
      <trkpt lat="48.05484" lon="7.02954">
        <ele>1041.25</ele>
        <time>2018-07-08T07:51:35Z</time>
      </trkpt>
      <trkpt lat="48.05485" lon="7.0296">
        <ele>1041.02</ele>
        <time>2018-07-08T07:51:47Z</time>
      </trkpt>
      <trkpt lat="48.05481" lon="7.02954">
        <ele>1041.11</ele>
        <time>2018-07-08T07:52:21Z</time>
      </trkpt>
      <trkpt lat="48.0547" lon="7.02958">
        <ele>1041.68</ele>
        <time>2018-07-08T07:52:45Z</time>
      </trkpt>
      <trkpt lat="48.05462" lon="7.02953">
        <ele>1038.02</ele>
        <time>2018-07-08T07:53:08Z</time>
      </trkpt>
      <trkpt lat="48.05453" lon="7.02967">
        <ele>1038.32</ele>
        <time>2018-07-08T07:53:28Z</time>
      </trkpt>
      <trkpt lat="48.05445" lon="7.02974">
        <ele>1037.18</ele>
        <time>2018-07-08T07:53:45Z</time>
      </trkpt>
      <trkpt lat="48.05442" lon="7.02976">
        <ele>1036.98</ele>
        <time>2018-07-08T07:53:58Z</time>
      </trkpt>
      <trkpt lat="48.0543" lon="7.02987">
        <ele>1035.41</ele>
        <time>2018-07-08T07:54:17Z</time>
      </trkpt>
      <trkpt lat="48.0542" lon="7.03006">
        <ele>1031.83</ele>
        <time>2018-07-08T07:54:38Z</time>
      </trkpt>
      <trkpt lat="48.05419" lon="7.03007">
        <ele>1036.61</ele>
        <time>2018-07-08T07:54:40Z</time>
      </trkpt>
      <trkpt lat="48.05419" lon="7.03007">
        <ele>1035.12</ele>
        <time>2018-07-08T07:54:41Z</time>
      </trkpt>
      <trkpt lat="48.05419" lon="7.03008">
        <ele>1031.9</ele>
        <time>2018-07-08T07:54:42Z</time>
      </trkpt>
      <trkpt lat="48.05418" lon="7.03008">
        <ele>1037.6</ele>
        <time>2018-07-08T07:54:43Z</time>
      </trkpt>
      <trkpt lat="48.05418" lon="7.03009">
        <ele>1034.01</ele>
        <time>2018-07-08T07:54:44Z</time>
      </trkpt>
      <trkpt lat="48.05419" lon="7.03012">
        <ele>1037.38</ele>
        <time>2018-07-08T07:54:48Z</time>
      </trkpt>
      <trkpt lat="48.05419" lon="7.03013">
        <ele>1033.38</ele>
        <time>2018-07-08T07:54:49Z</time>
      </trkpt>
      <trkpt lat="48.05419" lon="7.03014">
        <ele>1038.43</ele>
        <time>2018-07-08T07:54:50Z</time>
      </trkpt>
      <trkpt lat="48.05421" lon="7.03019">
        <ele>1034.54</ele>
        <time>2018-07-08T07:54:54Z</time>
      </trkpt>
      <trkpt lat="48.0542" lon="7.03028">
        <ele>1037.84</ele>
        <time>2018-07-08T07:55:01Z</time>
      </trkpt>
      <trkpt lat="48.0542" lon="7.03037">
        <ele>1034.99</ele>
        <time>2018-07-08T07:55:18Z</time>
      </trkpt>
      <trkpt lat="48.05419" lon="7.03037">
        <ele>1037.78</ele>
        <time>2018-07-08T07:55:20Z</time>
      </trkpt>
      <trkpt lat="48.0542" lon="7.03039">
        <ele>1034.66</ele>
        <time>2018-07-08T07:55:24Z</time>
      </trkpt>
      <trkpt lat="48.0542" lon="7.0304">
        <ele>1033.47</ele>
        <time>2018-07-08T07:55:28Z</time>
      </trkpt>
      <trkpt lat="48.05422" lon="7.03058">
        <ele>1030.26</ele>
        <time>2018-07-08T07:55:51Z</time>
      </trkpt>
      <trkpt lat="48.05422" lon="7.03063">
        <ele>1027.05</ele>
        <time>2018-07-08T07:55:58Z</time>
      </trkpt>
      <trkpt lat="48.05422" lon="7.03064">
        <ele>1030.96</ele>
        <time>2018-07-08T07:55:59Z</time>
      </trkpt>
      <trkpt lat="48.05422" lon="7.03066">
        <ele>1027.1</ele>
        <time>2018-07-08T07:56:04Z</time>
      </trkpt>
      <trkpt lat="48.05417" lon="7.03077">
        <ele>1026.6</ele>
        <time>2018-07-08T07:56:20Z</time>
      </trkpt>
      <trkpt lat="48.05404" lon="7.03081">
        <ele>1028.8</ele>
        <time>2018-07-08T07:56:40Z</time>
      </trkpt>
      <trkpt lat="48.05399" lon="7.03081">
        <ele>1025.45</ele>
        <time>2018-07-08T07:56:49Z</time>
      </trkpt>
      <trkpt lat="48.05399" lon="7.03081">
        <ele>1032.8</ele>
        <time>2018-07-08T07:56:50Z</time>
      </trkpt>
      <trkpt lat="48.05399" lon="7.03081">
        <ele>1027.25</ele>
        <time>2018-07-08T07:56:51Z</time>
      </trkpt>
      <trkpt lat="48.05399" lon="7.0308">
        <ele>1031.94</ele>
        <time>2018-07-08T07:56:52Z</time>
      </trkpt>
      <trkpt lat="48.05393" lon="7.0308">
        <ele>1023.65</ele>
        <time>2018-07-08T07:57:09Z</time>
      </trkpt>
      <trkpt lat="48.05393" lon="7.03081">
        <ele>1036.16</ele>
        <time>2018-07-08T07:57:10Z</time>
      </trkpt>
      <trkpt lat="48.05393" lon="7.03081">
        <ele>1031.48</ele>
        <time>2018-07-08T07:57:11Z</time>
      </trkpt>
      <trkpt lat="48.05392" lon="7.03081">
        <ele>1027.82</ele>
        <time>2018-07-08T07:57:12Z</time>
      </trkpt>
      <trkpt lat="48.05393" lon="7.03082">
        <ele>1032.1</ele>
        <time>2018-07-08T07:57:13Z</time>
      </trkpt>
      <trkpt lat="48.05392" lon="7.03082">
        <ele>1028.99</ele>
        <time>2018-07-08T07:57:14Z</time>
      </trkpt>
      <trkpt lat="48.0539" lon="7.03082">
        <ele>1032.47</ele>
        <time>2018-07-08T07:57:20Z</time>
      </trkpt>
      <trkpt lat="48.05382" lon="7.03082">
        <ele>1030.91</ele>
        <time>2018-07-08T07:57:34Z</time>
      </trkpt>
      <trkpt lat="48.05381" lon="7.03084">
        <ele>1032.7</ele>
        <time>2018-07-08T07:57:42Z</time>
      </trkpt>
      <trkpt lat="48.05374" lon="7.03095">
        <ele>1031.51</ele>
        <time>2018-07-08T07:57:56Z</time>
      </trkpt>
      <trkpt lat="48.05376" lon="7.03091">
        <ele>1031.69</ele>
        <time>2018-07-08T07:58:22Z</time>
      </trkpt>
      <trkpt lat="48.05378" lon="7.03088">
        <ele>1031.63</ele>
        <time>2018-07-08T07:58:45Z</time>
      </trkpt>
      <trkpt lat="48.05381" lon="7.03086">
        <ele>1031.89</ele>
        <time>2018-07-08T07:59:16Z</time>
      </trkpt>
      <trkpt lat="48.05379" lon="7.0309">
        <ele>1032.02</ele>
        <time>2018-07-08T07:59:40Z</time>
      </trkpt>
      <trkpt lat="48.05378" lon="7.03092">
        <ele>1032.12</ele>
        <time>2018-07-08T07:59:48Z</time>
      </trkpt>
      <trkpt lat="48.05378" lon="7.03089">
        <ele>1032.66</ele>
        <time>2018-07-08T08:00:12Z</time>
      </trkpt>
      <trkpt lat="48.0538" lon="7.03095">
        <ele>1032.04</ele>
        <time>2018-07-08T08:00:31Z</time>
      </trkpt>
      <trkpt lat="48.05379" lon="7.03099">
        <ele>1030.97</ele>
        <time>2018-07-08T08:00:38Z</time>
      </trkpt>
      <trkpt lat="48.05375" lon="7.03104">
        <ele>1034.58</ele>
        <time>2018-07-08T08:00:46Z</time>
      </trkpt>
      <trkpt lat="48.05368" lon="7.03114">
        <ele>1038.28</ele>
        <time>2018-07-08T08:01:02Z</time>
      </trkpt>
      <trkpt lat="48.05362" lon="7.03121">
        <ele>1035.06</ele>
        <time>2018-07-08T08:01:12Z</time>
      </trkpt>
      <trkpt lat="48.05362" lon="7.03119">
        <ele>1039.85</ele>
        <time>2018-07-08T08:01:21Z</time>
      </trkpt>
      <trkpt lat="48.05364" lon="7.03117">
        <ele>1036.85</ele>
        <time>2018-07-08T08:01:25Z</time>
      </trkpt>
      <trkpt lat="48.05364" lon="7.03116">
        <ele>1034.51</ele>
        <time>2018-07-08T08:01:28Z</time>
      </trkpt>
      <trkpt lat="48.05365" lon="7.03116">
        <ele>1036.28</ele>
        <time>2018-07-08T08:01:31Z</time>
      </trkpt>
      <trkpt lat="48.05365" lon="7.03116">
        <ele>1039.61</ele>
        <time>2018-07-08T08:01:32Z</time>
      </trkpt>
      <trkpt lat="48.05365" lon="7.03115">
        <ele>1035.52</ele>
        <time>2018-07-08T08:01:36Z</time>
      </trkpt>
      <trkpt lat="48.05365" lon="7.03115">
        <ele>1036.25</ele>
        <time>2018-07-08T08:01:37Z</time>
      </trkpt>
      <trkpt lat="48.05367" lon="7.03112">
        <ele>1039.25</ele>
        <time>2018-07-08T08:01:39Z</time>
      </trkpt>
      <trkpt lat="48.05367" lon="7.03112">
        <ele>1038.67</ele>
        <time>2018-07-08T08:01:40Z</time>
      </trkpt>
      <trkpt lat="48.05366" lon="7.03112">
        <ele>1042.24</ele>
        <time>2018-07-08T08:01:41Z</time>
      </trkpt>
      <trkpt lat="48.05366" lon="7.03111">
        <ele>1038.89</ele>
        <time>2018-07-08T08:01:42Z</time>
      </trkpt>
      <trkpt lat="48.05365" lon="7.03109">
        <ele>1042.16</ele>
        <time>2018-07-08T08:01:44Z</time>
      </trkpt>
      <trkpt lat="48.05364" lon="7.03107">
        <ele>1038.5</ele>
        <time>2018-07-08T08:01:51Z</time>
      </trkpt>
      <trkpt lat="48.05364" lon="7.03107">
        <ele>1043.53</ele>
        <time>2018-07-08T08:01:52Z</time>
      </trkpt>
      <trkpt lat="48.05363" lon="7.03106">
        <ele>1043.69</ele>
        <time>2018-07-08T08:01:53Z</time>
      </trkpt>
      <trkpt lat="48.05359" lon="7.03102">
        <ele>1044.78</ele>
        <time>2018-07-08T08:02:07Z</time>
      </trkpt>
      <trkpt lat="48.05358" lon="7.03103">
        <ele>1040.15</ele>
        <time>2018-07-08T08:02:10Z</time>
      </trkpt>
      <trkpt lat="48.05358" lon="7.03104">
        <ele>1047.48</ele>
        <time>2018-07-08T08:02:11Z</time>
      </trkpt>
      <trkpt lat="48.05359" lon="7.03106">
        <ele>1042.45</ele>
        <time>2018-07-08T08:02:14Z</time>
      </trkpt>
      <trkpt lat="48.05358" lon="7.03107">
        <ele>1043.26</ele>
        <time>2018-07-08T08:02:15Z</time>
      </trkpt>
      <trkpt lat="48.05356" lon="7.03108">
        <ele>1049.1</ele>
        <time>2018-07-08T08:02:16Z</time>
      </trkpt>
      <trkpt lat="48.05356" lon="7.03109">
        <ele>1045.42</ele>
        <time>2018-07-08T08:02:17Z</time>
      </trkpt>
      <trkpt lat="48.05355" lon="7.03127">
        <ele>1045.12</ele>
        <time>2018-07-08T08:02:38Z</time>
      </trkpt>
      <trkpt lat="48.05356" lon="7.03131">
        <ele>1041.95</ele>
        <time>2018-07-08T08:02:47Z</time>
      </trkpt>
      <trkpt lat="48.05356" lon="7.03132">
        <ele>1048.14</ele>
        <time>2018-07-08T08:02:48Z</time>
      </trkpt>
      <trkpt lat="48.05356" lon="7.03132">
        <ele>1044.72</ele>
        <time>2018-07-08T08:02:50Z</time>
      </trkpt>
      <trkpt lat="48.05355" lon="7.03133">
        <ele>1049.93</ele>
        <time>2018-07-08T08:02:54Z</time>
      </trkpt>
      <trkpt lat="48.05355" lon="7.03133">
        <ele>1045.41</ele>
        <time>2018-07-08T08:02:55Z</time>
      </trkpt>
      <trkpt lat="48.05354" lon="7.03134">
        <ele>1049.25</ele>
        <time>2018-07-08T08:02:56Z</time>
      </trkpt>
      <trkpt lat="48.05354" lon="7.03133">
        <ele>1043.7</ele>
        <time>2018-07-08T08:02:57Z</time>
      </trkpt>
      <trkpt lat="48.05355" lon="7.03135">
        <ele>1047.04</ele>
        <time>2018-07-08T08:02:59Z</time>
      </trkpt>
      <trkpt lat="48.05354" lon="7.03138">
        <ele>1043.67</ele>
        <time>2018-07-08T08:03:05Z</time>
      </trkpt>
      <trkpt lat="48.05354" lon="7.03138">
        <ele>1053.26</ele>
        <time>2018-07-08T08:03:06Z</time>
      </trkpt>
      <trkpt lat="48.05354" lon="7.03138">
        <ele>1044.15</ele>
        <time>2018-07-08T08:03:07Z</time>
      </trkpt>
      <trkpt lat="48.05354" lon="7.03138">
        <ele>1052.9</ele>
        <time>2018-07-08T08:03:08Z</time>
      </trkpt>
      <trkpt lat="48.05354" lon="7.03138">
        <ele>1048.45</ele>
        <time>2018-07-08T08:03:09Z</time>
      </trkpt>
      <trkpt lat="48.05356" lon="7.03139">
        <ele>1052.61</ele>
        <time>2018-07-08T08:03:16Z</time>
      </trkpt>
      <trkpt lat="48.05355" lon="7.03137">
        <ele>1050.62</ele>
        <time>2018-07-08T08:03:37Z</time>
      </trkpt>
      <trkpt lat="48.05348" lon="7.03138">
        <ele>1047.64</ele>
        <time>2018-07-08T08:03:57Z</time>
      </trkpt>
      <trkpt lat="48.05341" lon="7.03132">
        <ele>1044.26</ele>
        <time>2018-07-08T08:04:14Z</time>
      </trkpt>
      <trkpt lat="48.05339" lon="7.03131">
        <ele>1047.77</ele>
        <time>2018-07-08T08:04:20Z</time>
      </trkpt>
      <trkpt lat="48.05338" lon="7.03131">
        <ele>1044.4</ele>
        <time>2018-07-08T08:04:21Z</time>
      </trkpt>
      <trkpt lat="48.05332" lon="7.03129">
        <ele>1042.64</ele>
        <time>2018-07-08T08:04:39Z</time>
      </trkpt>
      <trkpt lat="48.0533" lon="7.03127">
        <ele>1041.38</ele>
        <time>2018-07-08T08:04:45Z</time>
      </trkpt>
      <trkpt lat="48.05329" lon="7.03127">
        <ele>1038.06</ele>
        <time>2018-07-08T08:04:46Z</time>
      </trkpt>
      <trkpt lat="48.05329" lon="7.03127">
        <ele>1044.28</ele>
        <time>2018-07-08T08:04:47Z</time>
      </trkpt>
      <trkpt lat="48.05329" lon="7.03126">
        <ele>1041.03</ele>
        <time>2018-07-08T08:04:49Z</time>
      </trkpt>
      <trkpt lat="48.05329" lon="7.03125">
        <ele>1036.59</ele>
        <time>2018-07-08T08:05:02Z</time>
      </trkpt>
      <trkpt lat="48.05328" lon="7.03125">
        <ele>1042.19</ele>
        <time>2018-07-08T08:05:03Z</time>
      </trkpt>
      <trkpt lat="48.05328" lon="7.03126">
        <ele>1039.14</ele>
        <time>2018-07-08T08:05:05Z</time>
      </trkpt>
      <trkpt lat="48.05322" lon="7.03127">
        <ele>1036.49</ele>
        <time>2018-07-08T08:05:21Z</time>
      </trkpt>
      <trkpt lat="48.05321" lon="7.03126">
        <ele>1036.68</ele>
        <time>2018-07-08T08:05:22Z</time>
      </trkpt>
      <trkpt lat="48.05316" lon="7.03123">
        <ele>1037.31</ele>
        <time>2018-07-08T08:05:26Z</time>
      </trkpt>
      <trkpt lat="48.05302" lon="7.03106">
        <ele>1036.45</ele>
        <time>2018-07-08T08:05:47Z</time>
      </trkpt>
      <trkpt lat="48.05294" lon="7.03101">
        <ele>1036</ele>
        <time>2018-07-08T08:06:01Z</time>
      </trkpt>
      <trkpt lat="48.05288" lon="7.03097">
        <ele>1039.05</ele>
        <time>2018-07-08T08:06:18Z</time>
      </trkpt>
      <trkpt lat="48.05287" lon="7.03097">
        <ele>1035.54</ele>
        <time>2018-07-08T08:06:19Z</time>
      </trkpt>
      <trkpt lat="48.05287" lon="7.03097">
        <ele>1035.53</ele>
        <time>2018-07-08T08:06:20Z</time>
      </trkpt>
      <trkpt lat="48.05284" lon="7.03098">
        <ele>1034.42</ele>
        <time>2018-07-08T08:06:37Z</time>
      </trkpt>
      <trkpt lat="48.05284" lon="7.03102">
        <ele>1023.92</ele>
        <time>2018-07-08T08:06:50Z</time>
      </trkpt>
      <trkpt lat="48.05284" lon="7.03103">
        <ele>1041.85</ele>
        <time>2018-07-08T08:06:51Z</time>
      </trkpt>
      <trkpt lat="48.05283" lon="7.03103">
        <ele>1033.24</ele>
        <time>2018-07-08T08:06:52Z</time>
      </trkpt>
      <trkpt lat="48.05276" lon="7.03094">
        <ele>1030.1</ele>
        <time>2018-07-08T08:07:03Z</time>
      </trkpt>
      <trkpt lat="48.05273" lon="7.0309">
        <ele>1030.61</ele>
        <time>2018-07-08T08:07:07Z</time>
      </trkpt>
      <trkpt lat="48.05267" lon="7.03078">
        <ele>1030.89</ele>
        <time>2018-07-08T08:07:21Z</time>
      </trkpt>
      <trkpt lat="48.05258" lon="7.03069">
        <ele>1028.29</ele>
        <time>2018-07-08T08:07:45Z</time>
      </trkpt>
      <trkpt lat="48.05253" lon="7.0306">
        <ele>1026.85</ele>
        <time>2018-07-08T08:08:01Z</time>
      </trkpt>
      <trkpt lat="48.05251" lon="7.03058">
        <ele>1023.21</ele>
        <time>2018-07-08T08:08:14Z</time>
      </trkpt>
      <trkpt lat="48.05251" lon="7.03058">
        <ele>1027.86</ele>
        <time>2018-07-08T08:08:15Z</time>
      </trkpt>
      <trkpt lat="48.0525" lon="7.03057">
        <ele>1024.71</ele>
        <time>2018-07-08T08:08:23Z</time>
      </trkpt>
      <trkpt lat="48.0525" lon="7.0306">
        <ele>1025.06</ele>
        <time>2018-07-08T08:08:28Z</time>
      </trkpt>
      <trkpt lat="48.05246" lon="7.03065">
        <ele>1022.34</ele>
        <time>2018-07-08T08:08:37Z</time>
      </trkpt>
      <trkpt lat="48.05241" lon="7.03069">
        <ele>1022.02</ele>
        <time>2018-07-08T08:08:54Z</time>
      </trkpt>
      <trkpt lat="48.05239" lon="7.0307">
        <ele>1018.7</ele>
        <time>2018-07-08T08:08:57Z</time>
      </trkpt>
      <trkpt lat="48.05239" lon="7.03069">
        <ele>1023.92</ele>
        <time>2018-07-08T08:08:58Z</time>
      </trkpt>
      <trkpt lat="48.05236" lon="7.03069">
        <ele>1020.77</ele>
        <time>2018-07-08T08:09:01Z</time>
      </trkpt>
      <trkpt lat="48.05227" lon="7.03074">
        <ele>1020.74</ele>
        <time>2018-07-08T08:09:22Z</time>
      </trkpt>
      <trkpt lat="48.05222" lon="7.0308">
        <ele>1018</ele>
        <time>2018-07-08T08:09:35Z</time>
      </trkpt>
      <trkpt lat="48.05214" lon="7.0308">
        <ele>1017.1</ele>
        <time>2018-07-08T08:09:54Z</time>
      </trkpt>
      <trkpt lat="48.05201" lon="7.0309">
        <ele>1015.45</ele>
        <time>2018-07-08T08:10:17Z</time>
      </trkpt>
      <trkpt lat="48.05191" lon="7.03101">
        <ele>1014.64</ele>
        <time>2018-07-08T08:10:33Z</time>
      </trkpt>
      <trkpt lat="48.05182" lon="7.03107">
        <ele>1014.9</ele>
        <time>2018-07-08T08:10:46Z</time>
      </trkpt>
      <trkpt lat="48.05178" lon="7.03115">
        <ele>1014.21</ele>
        <time>2018-07-08T08:11:07Z</time>
      </trkpt>
      <trkpt lat="48.05175" lon="7.03122">
        <ele>1014.41</ele>
        <time>2018-07-08T08:11:27Z</time>
      </trkpt>
      <trkpt lat="48.05177" lon="7.03115">
        <ele>1014.54</ele>
        <time>2018-07-08T08:11:54Z</time>
      </trkpt>
      <trkpt lat="48.05179" lon="7.03115">
        <ele>1014.84</ele>
        <time>2018-07-08T08:12:21Z</time>
      </trkpt>
      <trkpt lat="48.05179" lon="7.03112">
        <ele>1014.86</ele>
        <time>2018-07-08T08:12:53Z</time>
      </trkpt>
      <trkpt lat="48.05177" lon="7.03111">
        <ele>1014.26</ele>
        <time>2018-07-08T08:13:23Z</time>
      </trkpt>
      <trkpt lat="48.05178" lon="7.03106">
        <ele>1013.92</ele>
        <time>2018-07-08T08:13:50Z</time>
      </trkpt>
      <trkpt lat="48.0517" lon="7.03105">
        <ele>1016.14</ele>
        <time>2018-07-08T08:14:14Z</time>
      </trkpt>
      <trkpt lat="48.05166" lon="7.03104">
        <ele>1011.87</ele>
        <time>2018-07-08T08:14:23Z</time>
      </trkpt>
      <trkpt lat="48.05165" lon="7.03103">
        <ele>1022.11</ele>
        <time>2018-07-08T08:14:24Z</time>
      </trkpt>
      <trkpt lat="48.05165" lon="7.03103">
        <ele>1014.64</ele>
        <time>2018-07-08T08:14:25Z</time>
      </trkpt>
      <trkpt lat="48.05164" lon="7.03103">
        <ele>1019.38</ele>
        <time>2018-07-08T08:14:26Z</time>
      </trkpt>
      <trkpt lat="48.05164" lon="7.03103">
        <ele>1015.85</ele>
        <time>2018-07-08T08:14:27Z</time>
      </trkpt>
      <trkpt lat="48.05162" lon="7.03102">
        <ele>1022.28</ele>
        <time>2018-07-08T08:14:30Z</time>
      </trkpt>
      <trkpt lat="48.05161" lon="7.03102">
        <ele>1016.09</ele>
        <time>2018-07-08T08:14:31Z</time>
      </trkpt>
      <trkpt lat="48.05159" lon="7.03102">
        <ele>1019.5</ele>
        <time>2018-07-08T08:14:35Z</time>
      </trkpt>
      <trkpt lat="48.05149" lon="7.03099">
        <ele>1020.55</ele>
        <time>2018-07-08T08:14:53Z</time>
      </trkpt>
      <trkpt lat="48.05143" lon="7.03099">
        <ele>1020.55</ele>
        <time>2018-07-08T08:15:00Z</time>
      </trkpt>
      <trkpt lat="48.0514" lon="7.03095">
        <ele>1023.74</ele>
        <time>2018-07-08T08:15:07Z</time>
      </trkpt>
      <trkpt lat="48.05138" lon="7.03095">
        <ele>1019.84</ele>
        <time>2018-07-08T08:15:09Z</time>
      </trkpt>
      <trkpt lat="48.05138" lon="7.03094">
        <ele>1023.56</ele>
        <time>2018-07-08T08:15:10Z</time>
      </trkpt>
      <trkpt lat="48.05127" lon="7.03077">
        <ele>1021.54</ele>
        <time>2018-07-08T08:15:30Z</time>
      </trkpt>
      <trkpt lat="48.05117" lon="7.03067">
        <ele>1019.03</ele>
        <time>2018-07-08T08:15:50Z</time>
      </trkpt>
      <trkpt lat="48.05106" lon="7.0306">
        <ele>1015.94</ele>
        <time>2018-07-08T08:16:12Z</time>
      </trkpt>
      <trkpt lat="48.051" lon="7.03063">
        <ele>1013.85</ele>
        <time>2018-07-08T08:16:33Z</time>
      </trkpt>
      <trkpt lat="48.05088" lon="7.0306">
        <ele>1011.41</ele>
        <time>2018-07-08T08:16:54Z</time>
      </trkpt>
      <trkpt lat="48.05075" lon="7.03057">
        <ele>1009.05</ele>
        <time>2018-07-08T08:17:18Z</time>
      </trkpt>
      <trkpt lat="48.05065" lon="7.03048">
        <ele>1009.22</ele>
        <time>2018-07-08T08:17:41Z</time>
      </trkpt>
      <trkpt lat="48.05059" lon="7.03048">
        <ele>1005.21</ele>
        <time>2018-07-08T08:17:52Z</time>
      </trkpt>
      <trkpt lat="48.05056" lon="7.03048">
        <ele>1008.67</ele>
        <time>2018-07-08T08:18:01Z</time>
      </trkpt>
      <trkpt lat="48.05053" lon="7.03056">
        <ele>1007.43</ele>
        <time>2018-07-08T08:18:25Z</time>
      </trkpt>
      <trkpt lat="48.05048" lon="7.03058">
        <ele>1007.86</ele>
        <time>2018-07-08T08:18:43Z</time>
      </trkpt>
      <trkpt lat="48.05043" lon="7.0305">
        <ele>1009.52</ele>
        <time>2018-07-08T08:19:09Z</time>
      </trkpt>
      <trkpt lat="48.05042" lon="7.03051">
        <ele>1009.62</ele>
        <time>2018-07-08T08:19:10Z</time>
      </trkpt>
      <trkpt lat="48.05027" lon="7.03041">
        <ele>1010.18</ele>
        <time>2018-07-08T08:19:29Z</time>
      </trkpt>
      <trkpt lat="48.0502" lon="7.03041">
        <ele>1013.09</ele>
        <time>2018-07-08T08:19:42Z</time>
      </trkpt>
      <trkpt lat="48.0501" lon="7.03036">
        <ele>1012.25</ele>
        <time>2018-07-08T08:20:02Z</time>
      </trkpt>
      <trkpt lat="48.05002" lon="7.03048">
        <ele>1013.82</ele>
        <time>2018-07-08T08:20:22Z</time>
      </trkpt>
      <trkpt lat="48.05001" lon="7.03049">
        <ele>1012.92</ele>
        <time>2018-07-08T08:20:23Z</time>
      </trkpt>
      <trkpt lat="48.04996" lon="7.0306">
        <ele>1013.6</ele>
        <time>2018-07-08T08:20:36Z</time>
      </trkpt>
      <trkpt lat="48.04993" lon="7.03068">
        <ele>1014.74</ele>
        <time>2018-07-08T08:20:43Z</time>
      </trkpt>
      <trkpt lat="48.04986" lon="7.03076">
        <ele>1019.67</ele>
        <time>2018-07-08T08:20:52Z</time>
      </trkpt>
      <trkpt lat="48.04986" lon="7.03075">
        <ele>1017.52</ele>
        <time>2018-07-08T08:20:53Z</time>
      </trkpt>
      <trkpt lat="48.04984" lon="7.03078">
        <ele>1016.37</ele>
        <time>2018-07-08T08:20:55Z</time>
      </trkpt>
      <trkpt lat="48.04979" lon="7.03085">
        <ele>1015.84</ele>
        <time>2018-07-08T08:21:03Z</time>
      </trkpt>
      <trkpt lat="48.04974" lon="7.03086">
        <ele>1019.59</ele>
        <time>2018-07-08T08:21:07Z</time>
      </trkpt>
      <trkpt lat="48.04974" lon="7.03086">
        <ele>1014.93</ele>
        <time>2018-07-08T08:21:08Z</time>
      </trkpt>
      <trkpt lat="48.04973" lon="7.03086">
        <ele>1019.74</ele>
        <time>2018-07-08T08:21:09Z</time>
      </trkpt>
      <trkpt lat="48.04973" lon="7.03086">
        <ele>1016.68</ele>
        <time>2018-07-08T08:21:11Z</time>
      </trkpt>
      <trkpt lat="48.04973" lon="7.03086">
        <ele>1020.67</ele>
        <time>2018-07-08T08:21:12Z</time>
      </trkpt>
      <trkpt lat="48.04965" lon="7.031">
        <ele>1021.96</ele>
        <time>2018-07-08T08:21:28Z</time>
      </trkpt>
      <trkpt lat="48.04964" lon="7.03104">
        <ele>1021.23</ele>
        <time>2018-07-08T08:21:32Z</time>
      </trkpt>
      <trkpt lat="48.04961" lon="7.03091">
        <ele>1022.84</ele>
        <time>2018-07-08T08:21:52Z</time>
      </trkpt>
      <trkpt lat="48.04963" lon="7.03085">
        <ele>1026.11</ele>
        <time>2018-07-08T08:22:00Z</time>
      </trkpt>
      <trkpt lat="48.04962" lon="7.03084">
        <ele>1022.31</ele>
        <time>2018-07-08T08:22:06Z</time>
      </trkpt>
      <trkpt lat="48.04961" lon="7.03084">
        <ele>1027.07</ele>
        <time>2018-07-08T08:22:07Z</time>
      </trkpt>
      <trkpt lat="48.04955" lon="7.03082">
        <ele>1029.85</ele>
        <time>2018-07-08T08:22:28Z</time>
      </trkpt>
      <trkpt lat="48.04948" lon="7.03089">
        <ele>1029.59</ele>
        <time>2018-07-08T08:22:49Z</time>
      </trkpt>
      <trkpt lat="48.0495" lon="7.03099">
        <ele>1029.75</ele>
        <time>2018-07-08T08:23:06Z</time>
      </trkpt>
      <trkpt lat="48.04952" lon="7.03099">
        <ele>1030.86</ele>
        <time>2018-07-08T08:23:34Z</time>
      </trkpt>
      <trkpt lat="48.0495" lon="7.03099">
        <ele>1029.64</ele>
        <time>2018-07-08T08:24:02Z</time>
      </trkpt>
      <trkpt lat="48.04948" lon="7.03095">
        <ele>1027.75</ele>
        <time>2018-07-08T08:24:21Z</time>
      </trkpt>
      <trkpt lat="48.04954" lon="7.03083">
        <ele>1028.45</ele>
        <time>2018-07-08T08:24:47Z</time>
      </trkpt>
      <trkpt lat="48.04951" lon="7.03075">
        <ele>1028.36</ele>
        <time>2018-07-08T08:25:15Z</time>
      </trkpt>
      <trkpt lat="48.04948" lon="7.03075">
        <ele>1027.82</ele>
        <time>2018-07-08T08:25:42Z</time>
      </trkpt>
      <trkpt lat="48.04948" lon="7.03078">
        <ele>1028.03</ele>
        <time>2018-07-08T08:25:52Z</time>
      </trkpt>
      <trkpt lat="48.04947" lon="7.03083">
        <ele>1027.71</ele>
        <time>2018-07-08T08:25:55Z</time>
      </trkpt>
      <trkpt lat="48.04948" lon="7.03092">
        <ele>1027.87</ele>
        <time>2018-07-08T08:26:09Z</time>
      </trkpt>
      <trkpt lat="48.04951" lon="7.03091">
        <ele>1028.13</ele>
        <time>2018-07-08T08:26:33Z</time>
      </trkpt>
      <trkpt lat="48.04952" lon="7.03085">
        <ele>1021.46</ele>
        <time>2018-07-08T08:26:55Z</time>
      </trkpt>
      <trkpt lat="48.04951" lon="7.03085">
        <ele>1036.44</ele>
        <time>2018-07-08T08:26:56Z</time>
      </trkpt>
      <trkpt lat="48.04951" lon="7.03085">
        <ele>1028.76</ele>
        <time>2018-07-08T08:26:57Z</time>
      </trkpt>
      <trkpt lat="48.04952" lon="7.03086">
        <ele>1027.8</ele>
        <time>2018-07-08T08:26:59Z</time>
      </trkpt>
      <trkpt lat="48.0495" lon="7.03092">
        <ele>1028.34</ele>
        <time>2018-07-08T08:27:17Z</time>
      </trkpt>
      <trkpt lat="48.04949" lon="7.03095">
        <ele>1027.9</ele>
        <time>2018-07-08T08:27:24Z</time>
      </trkpt>
      <trkpt lat="48.04949" lon="7.03102">
        <ele>1028.64</ele>
        <time>2018-07-08T08:27:46Z</time>
      </trkpt>
      <trkpt lat="48.04952" lon="7.03092">
        <ele>1028.5</ele>
        <time>2018-07-08T08:28:15Z</time>
      </trkpt>
      <trkpt lat="48.04949" lon="7.03095">
        <ele>1028.73</ele>
        <time>2018-07-08T08:28:44Z</time>
      </trkpt>
      <trkpt lat="48.04951" lon="7.03102">
        <ele>1027.83</ele>
        <time>2018-07-08T08:29:05Z</time>
      </trkpt>
      <trkpt lat="48.0495" lon="7.03095">
        <ele>1028.33</ele>
        <time>2018-07-08T08:29:29Z</time>
      </trkpt>
      <trkpt lat="48.0495" lon="7.03094">
        <ele>1028.1</ele>
        <time>2018-07-08T08:29:39Z</time>
      </trkpt>
      <trkpt lat="48.04948" lon="7.03094">
        <ele>1028.51</ele>
        <time>2018-07-08T08:30:06Z</time>
      </trkpt>
      <trkpt lat="48.04947" lon="7.03097">
        <ele>1028.67</ele>
        <time>2018-07-08T08:30:32Z</time>
      </trkpt>
      <trkpt lat="48.04948" lon="7.03097">
        <ele>1028.67</ele>
        <time>2018-07-08T08:30:57Z</time>
      </trkpt>
      <trkpt lat="48.04946" lon="7.03103">
        <ele>1028.46</ele>
        <time>2018-07-08T08:31:25Z</time>
      </trkpt>
      <trkpt lat="48.04947" lon="7.03107">
        <ele>1028.39</ele>
        <time>2018-07-08T08:31:49Z</time>
      </trkpt>
      <trkpt lat="48.04945" lon="7.03106">
        <ele>1028.14</ele>
        <time>2018-07-08T08:32:16Z</time>
      </trkpt>
      <trkpt lat="48.04946" lon="7.03101">
        <ele>1028.56</ele>
        <time>2018-07-08T08:32:40Z</time>
      </trkpt>
      <trkpt lat="48.04946" lon="7.03094">
        <ele>1028.54</ele>
        <time>2018-07-08T08:32:59Z</time>
      </trkpt>
      <trkpt lat="48.04947" lon="7.03096">
        <ele>1028.18</ele>
        <time>2018-07-08T08:33:22Z</time>
      </trkpt>
      <trkpt lat="48.04945" lon="7.03094">
        <ele>1028.32</ele>
        <time>2018-07-08T08:33:42Z</time>
      </trkpt>
      <trkpt lat="48.04945" lon="7.0309">
        <ele>1027.84</ele>
        <time>2018-07-08T08:34:07Z</time>
      </trkpt>
      <trkpt lat="48.04944" lon="7.031">
        <ele>1027.8</ele>
        <time>2018-07-08T08:34:32Z</time>
      </trkpt>
      <trkpt lat="48.04944" lon="7.03101">
        <ele>1027.4</ele>
        <time>2018-07-08T08:34:36Z</time>
      </trkpt>
      <trkpt lat="48.04941" lon="7.03096">
        <ele>1027.92</ele>
        <time>2018-07-08T08:34:56Z</time>
      </trkpt>
      <trkpt lat="48.04936" lon="7.03087">
        <ele>1027.84</ele>
        <time>2018-07-08T08:35:14Z</time>
      </trkpt>
      <trkpt lat="48.0493" lon="7.03078">
        <ele>1026.79</ele>
        <time>2018-07-08T08:35:23Z</time>
      </trkpt>
      <trkpt lat="48.04927" lon="7.03072">
        <ele>1026.44</ele>
        <time>2018-07-08T08:35:29Z</time>
      </trkpt>
      <trkpt lat="48.04917" lon="7.03058">
        <ele>1024.3</ele>
        <time>2018-07-08T08:35:48Z</time>
      </trkpt>
      <trkpt lat="48.04916" lon="7.03061">
        <ele>1023.02</ele>
        <time>2018-07-08T08:36:00Z</time>
      </trkpt>
      <trkpt lat="48.04914" lon="7.03065">
        <ele>1019.63</ele>
        <time>2018-07-08T08:36:18Z</time>
      </trkpt>
      <trkpt lat="48.04912" lon="7.03065">
        <ele>1019.44</ele>
        <time>2018-07-08T08:36:22Z</time>
      </trkpt>
      <trkpt lat="48.0491" lon="7.03065">
        <ele>1018.11</ele>
        <time>2018-07-08T08:36:26Z</time>
      </trkpt>
      <trkpt lat="48.04908" lon="7.03063">
        <ele>1017.47</ele>
        <time>2018-07-08T08:36:31Z</time>
      </trkpt>
      <trkpt lat="48.04906" lon="7.03061">
        <ele>1017.39</ele>
        <time>2018-07-08T08:36:33Z</time>
      </trkpt>
      <trkpt lat="48.04897" lon="7.03055">
        <ele>1013.45</ele>
        <time>2018-07-08T08:36:51Z</time>
      </trkpt>
      <trkpt lat="48.04897" lon="7.03055">
        <ele>1013.08</ele>
        <time>2018-07-08T08:36:54Z</time>
      </trkpt>
      <trkpt lat="48.04875" lon="7.03038">
        <ele>1009.85</ele>
        <time>2018-07-08T08:37:13Z</time>
      </trkpt>
      <trkpt lat="48.04871" lon="7.03032">
        <ele>1008.71</ele>
        <time>2018-07-08T08:37:19Z</time>
      </trkpt>
      <trkpt lat="48.04866" lon="7.03027">
        <ele>1007.05</ele>
        <time>2018-07-08T08:37:28Z</time>
      </trkpt>
      <trkpt lat="48.04854" lon="7.03003">
        <ele>1003.98</ele>
        <time>2018-07-08T08:37:47Z</time>
      </trkpt>
      <trkpt lat="48.04844" lon="7.0299">
        <ele>1002.1</ele>
        <time>2018-07-08T08:38:06Z</time>
      </trkpt>
      <trkpt lat="48.04839" lon="7.0298">
        <ele>1001.04</ele>
        <time>2018-07-08T08:38:13Z</time>
      </trkpt>
      <trkpt lat="48.04826" lon="7.02963">
        <ele>998.49</ele>
        <time>2018-07-08T08:38:37Z</time>
      </trkpt>
      <trkpt lat="48.04821" lon="7.02957">
        <ele>996.96</ele>
        <time>2018-07-08T08:38:48Z</time>
      </trkpt>
      <trkpt lat="48.04811" lon="7.02951">
        <ele>996.27</ele>
        <time>2018-07-08T08:38:56Z</time>
      </trkpt>
      <trkpt lat="48.04802" lon="7.02933">
        <ele>994.34</ele>
        <time>2018-07-08T08:39:13Z</time>
      </trkpt>
      <trkpt lat="48.04795" lon="7.02926">
        <ele>993.02</ele>
        <time>2018-07-08T08:39:23Z</time>
      </trkpt>
      <trkpt lat="48.04791" lon="7.02923">
        <ele>992.65</ele>
        <time>2018-07-08T08:39:28Z</time>
      </trkpt>
      <trkpt lat="48.04789" lon="7.02912">
        <ele>992.55</ele>
        <time>2018-07-08T08:39:36Z</time>
      </trkpt>
      <trkpt lat="48.04777" lon="7.02891">
        <ele>989.56</ele>
        <time>2018-07-08T08:39:58Z</time>
      </trkpt>
      <trkpt lat="48.04767" lon="7.02884">
        <ele>988.35</ele>
        <time>2018-07-08T08:40:07Z</time>
      </trkpt>
      <trkpt lat="48.04759" lon="7.02883">
        <ele>985.04</ele>
        <time>2018-07-08T08:40:24Z</time>
      </trkpt>
      <trkpt lat="48.04748" lon="7.02876">
        <ele>981.85</ele>
        <time>2018-07-08T08:40:43Z</time>
      </trkpt>
      <trkpt lat="48.04744" lon="7.02868">
        <ele>980.5</ele>
        <time>2018-07-08T08:40:57Z</time>
      </trkpt>
      <trkpt lat="48.04734" lon="7.02855">
        <ele>978.68</ele>
        <time>2018-07-08T08:41:19Z</time>
      </trkpt>
      <trkpt lat="48.04732" lon="7.02852">
        <ele>978</ele>
        <time>2018-07-08T08:41:22Z</time>
      </trkpt>
      <trkpt lat="48.04731" lon="7.02848">
        <ele>977.97</ele>
        <time>2018-07-08T08:41:25Z</time>
      </trkpt>
      <trkpt lat="48.04729" lon="7.02845">
        <ele>978.02</ele>
        <time>2018-07-08T08:41:29Z</time>
      </trkpt>
      <trkpt lat="48.04728" lon="7.02838">
        <ele>977.08</ele>
        <time>2018-07-08T08:41:34Z</time>
      </trkpt>
      <trkpt lat="48.04725" lon="7.02828">
        <ele>975.88</ele>
        <time>2018-07-08T08:41:44Z</time>
      </trkpt>
      <trkpt lat="48.0472" lon="7.02818">
        <ele>975.09</ele>
        <time>2018-07-08T08:41:54Z</time>
      </trkpt>
      <trkpt lat="48.04709" lon="7.02806">
        <ele>973.2</ele>
        <time>2018-07-08T08:42:11Z</time>
      </trkpt>
      <trkpt lat="48.04704" lon="7.02802">
        <ele>971.9</ele>
        <time>2018-07-08T08:42:17Z</time>
      </trkpt>
      <trkpt lat="48.04691" lon="7.02784">
        <ele>972.04</ele>
        <time>2018-07-08T08:42:42Z</time>
      </trkpt>
      <trkpt lat="48.04686" lon="7.02779">
        <ele>971.92</ele>
        <time>2018-07-08T08:42:47Z</time>
      </trkpt>
      <trkpt lat="48.04684" lon="7.02774">
        <ele>971.61</ele>
        <time>2018-07-08T08:42:53Z</time>
      </trkpt>
      <trkpt lat="48.04683" lon="7.02772">
        <ele>971.13</ele>
        <time>2018-07-08T08:42:55Z</time>
      </trkpt>
      <trkpt lat="48.04674" lon="7.0275">
        <ele>970.2</ele>
        <time>2018-07-08T08:43:15Z</time>
      </trkpt>
      <trkpt lat="48.04666" lon="7.02726">
        <ele>971.96</ele>
        <time>2018-07-08T08:43:27Z</time>
      </trkpt>
      <trkpt lat="48.04649" lon="7.02695">
        <ele>973.63</ele>
        <time>2018-07-08T08:43:49Z</time>
      </trkpt>
      <trkpt lat="48.04639" lon="7.02683">
        <ele>973.19</ele>
        <time>2018-07-08T08:44:02Z</time>
      </trkpt>
      <trkpt lat="48.04621" lon="7.02665">
        <ele>975.3</ele>
        <time>2018-07-08T08:44:23Z</time>
      </trkpt>
      <trkpt lat="48.04621" lon="7.02629">
        <ele>976.6</ele>
        <time>2018-07-08T08:44:43Z</time>
      </trkpt>
      <trkpt lat="48.04622" lon="7.02623">
        <ele>977.24</ele>
        <time>2018-07-08T08:44:46Z</time>
      </trkpt>
      <trkpt lat="48.04635" lon="7.02611">
        <ele>977.11</ele>
        <time>2018-07-08T08:45:02Z</time>
      </trkpt>
      <trkpt lat="48.04642" lon="7.02604">
        <ele>977.76</ele>
        <time>2018-07-08T08:45:13Z</time>
      </trkpt>
      <trkpt lat="48.04651" lon="7.02582">
        <ele>978.94</ele>
        <time>2018-07-08T08:45:28Z</time>
      </trkpt>
      <trkpt lat="48.04657" lon="7.02567">
        <ele>979.19</ele>
        <time>2018-07-08T08:45:37Z</time>
      </trkpt>
      <trkpt lat="48.04668" lon="7.02548">
        <ele>979.17</ele>
        <time>2018-07-08T08:45:52Z</time>
      </trkpt>
      <trkpt lat="48.04673" lon="7.02536">
        <ele>979.9</ele>
        <time>2018-07-08T08:46:02Z</time>
      </trkpt>
      <trkpt lat="48.0468" lon="7.02516">
        <ele>980.87</ele>
        <time>2018-07-08T08:46:23Z</time>
      </trkpt>
      <trkpt lat="48.04675" lon="7.02508">
        <ele>982.36</ele>
        <time>2018-07-08T08:46:35Z</time>
      </trkpt>
      <trkpt lat="48.04676" lon="7.02474">
        <ele>982.88</ele>
        <time>2018-07-08T08:46:55Z</time>
      </trkpt>
      <trkpt lat="48.04681" lon="7.02429">
        <ele>983.98</ele>
        <time>2018-07-08T08:47:22Z</time>
      </trkpt>
      <trkpt lat="48.04681" lon="7.02401">
        <ele>984.44</ele>
        <time>2018-07-08T08:47:31Z</time>
      </trkpt>
      <trkpt lat="48.04682" lon="7.02391">
        <ele>985.09</ele>
        <time>2018-07-08T08:47:37Z</time>
      </trkpt>
      <trkpt lat="48.04678" lon="7.02361">
        <ele>985.9</ele>
        <time>2018-07-08T08:47:57Z</time>
      </trkpt>
      <trkpt lat="48.04678" lon="7.02354">
        <ele>987</ele>
        <time>2018-07-08T08:48:05Z</time>
      </trkpt>
      <trkpt lat="48.04685" lon="7.02338">
        <ele>989.35</ele>
        <time>2018-07-08T08:48:20Z</time>
      </trkpt>
      <trkpt lat="48.04682" lon="7.02312">
        <ele>990.92</ele>
        <time>2018-07-08T08:48:36Z</time>
      </trkpt>
      <trkpt lat="48.04676" lon="7.02299">
        <ele>991.54</ele>
        <time>2018-07-08T08:48:46Z</time>
      </trkpt>
      <trkpt lat="48.0467" lon="7.02283">
        <ele>993.11</ele>
        <time>2018-07-08T08:49:00Z</time>
      </trkpt>
      <trkpt lat="48.04668" lon="7.02276">
        <ele>993.99</ele>
        <time>2018-07-08T08:49:04Z</time>
      </trkpt>
      <trkpt lat="48.04661" lon="7.02249">
        <ele>994.85</ele>
        <time>2018-07-08T08:49:18Z</time>
      </trkpt>
      <trkpt lat="48.0466" lon="7.02243">
        <ele>995.46</ele>
        <time>2018-07-08T08:49:20Z</time>
      </trkpt>
      <trkpt lat="48.04656" lon="7.02213">
        <ele>994.88</ele>
        <time>2018-07-08T08:49:33Z</time>
      </trkpt>
      <trkpt lat="48.04655" lon="7.02208">
        <ele>996.88</ele>
        <time>2018-07-08T08:49:36Z</time>
      </trkpt>
      <trkpt lat="48.04657" lon="7.02194">
        <ele>996.43</ele>
        <time>2018-07-08T08:49:44Z</time>
      </trkpt>
      <trkpt lat="48.04656" lon="7.02179">
        <ele>997.98</ele>
        <time>2018-07-08T08:49:51Z</time>
      </trkpt>
      <trkpt lat="48.04647" lon="7.02153">
        <ele>998.74</ele>
        <time>2018-07-08T08:50:05Z</time>
      </trkpt>
      <trkpt lat="48.04642" lon="7.02139">
        <ele>1000.33</ele>
        <time>2018-07-08T08:50:12Z</time>
      </trkpt>
      <trkpt lat="48.04635" lon="7.02121">
        <ele>1003.41</ele>
        <time>2018-07-08T08:50:24Z</time>
      </trkpt>
      <trkpt lat="48.04634" lon="7.02119">
        <ele>1003.18</ele>
        <time>2018-07-08T08:50:25Z</time>
      </trkpt>
      <trkpt lat="48.04627" lon="7.02107">
        <ele>1003.22</ele>
        <time>2018-07-08T08:50:33Z</time>
      </trkpt>
      <trkpt lat="48.04608" lon="7.02087">
        <ele>1005.89</ele>
        <time>2018-07-08T08:50:50Z</time>
      </trkpt>
      <trkpt lat="48.046" lon="7.0208">
        <ele>1006.28</ele>
        <time>2018-07-08T08:51:00Z</time>
      </trkpt>
      <trkpt lat="48.04597" lon="7.02078">
        <ele>1007.24</ele>
        <time>2018-07-08T08:51:04Z</time>
      </trkpt>
      <trkpt lat="48.04571" lon="7.02071">
        <ele>1011.95</ele>
        <time>2018-07-08T08:51:23Z</time>
      </trkpt>
      <trkpt lat="48.04555" lon="7.02063">
        <ele>1012.21</ele>
        <time>2018-07-08T08:51:38Z</time>
      </trkpt>
      <trkpt lat="48.04545" lon="7.02053">
        <ele>1015.04</ele>
        <time>2018-07-08T08:51:49Z</time>
      </trkpt>
      <trkpt lat="48.04541" lon="7.02047">
        <ele>1016.02</ele>
        <time>2018-07-08T08:51:53Z</time>
      </trkpt>
      <trkpt lat="48.04537" lon="7.02041">
        <ele>1015.96</ele>
        <time>2018-07-08T08:51:57Z</time>
      </trkpt>
      <trkpt lat="48.04529" lon="7.02034">
        <ele>1017.14</ele>
        <time>2018-07-08T08:52:12Z</time>
      </trkpt>
      <trkpt lat="48.04514" lon="7.02038">
        <ele>1020.19</ele>
        <time>2018-07-08T08:52:29Z</time>
      </trkpt>
      <trkpt lat="48.04512" lon="7.02039">
        <ele>1019.59</ele>
        <time>2018-07-08T08:52:30Z</time>
      </trkpt>
      <trkpt lat="48.04504" lon="7.0206">
        <ele>1019.81</ele>
        <time>2018-07-08T08:52:50Z</time>
      </trkpt>
      <trkpt lat="48.04504" lon="7.02068">
        <ele>1018.99</ele>
        <time>2018-07-08T08:53:09Z</time>
      </trkpt>
      <trkpt lat="48.04503" lon="7.02066">
        <ele>1018.92</ele>
        <time>2018-07-08T08:53:17Z</time>
      </trkpt>
      <trkpt lat="48.04496" lon="7.0207">
        <ele>1018.17</ele>
        <time>2018-07-08T08:53:24Z</time>
      </trkpt>
      <trkpt lat="48.0449" lon="7.02078">
        <ele>1017.84</ele>
        <time>2018-07-08T08:53:31Z</time>
      </trkpt>
      <trkpt lat="48.04472" lon="7.02089">
        <ele>1018.01</ele>
        <time>2018-07-08T08:53:47Z</time>
      </trkpt>
      <trkpt lat="48.04459" lon="7.02104">
        <ele>1017.46</ele>
        <time>2018-07-08T08:54:01Z</time>
      </trkpt>
      <trkpt lat="48.04444" lon="7.02107">
        <ele>1015.85</ele>
        <time>2018-07-08T08:54:19Z</time>
      </trkpt>
      <trkpt lat="48.04438" lon="7.02106">
        <ele>1015.61</ele>
        <time>2018-07-08T08:54:31Z</time>
      </trkpt>
      <trkpt lat="48.04443" lon="7.02113">
        <ele>1015.36</ele>
        <time>2018-07-08T08:54:55Z</time>
      </trkpt>
      <trkpt lat="48.04446" lon="7.02108">
        <ele>1015.51</ele>
        <time>2018-07-08T08:55:20Z</time>
      </trkpt>
      <trkpt lat="48.04439" lon="7.02106">
        <ele>1015.34</ele>
        <time>2018-07-08T08:55:33Z</time>
      </trkpt>
      <trkpt lat="48.04423" lon="7.02111">
        <ele>1014.86</ele>
        <time>2018-07-08T08:55:48Z</time>
      </trkpt>
      <trkpt lat="48.04411" lon="7.02117">
        <ele>1015.33</ele>
        <time>2018-07-08T08:55:59Z</time>
      </trkpt>
      <trkpt lat="48.04402" lon="7.0212">
        <ele>1016.24</ele>
        <time>2018-07-08T08:56:08Z</time>
      </trkpt>
      <trkpt lat="48.04389" lon="7.02126">
        <ele>1017.72</ele>
        <time>2018-07-08T08:56:21Z</time>
      </trkpt>
      <trkpt lat="48.04378" lon="7.02129">
        <ele>1017.76</ele>
        <time>2018-07-08T08:56:32Z</time>
      </trkpt>
      <trkpt lat="48.04372" lon="7.02132">
        <ele>1017.43</ele>
        <time>2018-07-08T08:56:44Z</time>
      </trkpt>
      <trkpt lat="48.04361" lon="7.02134">
        <ele>1018.6</ele>
        <time>2018-07-08T08:57:04Z</time>
      </trkpt>
      <trkpt lat="48.04354" lon="7.02135">
        <ele>1019.49</ele>
        <time>2018-07-08T08:57:10Z</time>
      </trkpt>
      <trkpt lat="48.04348" lon="7.02135">
        <ele>1019</ele>
        <time>2018-07-08T08:57:14Z</time>
      </trkpt>
      <trkpt lat="48.04329" lon="7.02139">
        <ele>1021.16</ele>
        <time>2018-07-08T08:57:32Z</time>
      </trkpt>
      <trkpt lat="48.04331" lon="7.02135">
        <ele>1020.85</ele>
        <time>2018-07-08T08:57:55Z</time>
      </trkpt>
      <trkpt lat="48.04339" lon="7.02131">
        <ele>1019.62</ele>
        <time>2018-07-08T08:58:15Z</time>
      </trkpt>
      <trkpt lat="48.04336" lon="7.02138">
        <ele>1020.35</ele>
        <time>2018-07-08T08:58:38Z</time>
      </trkpt>
      <trkpt lat="48.04336" lon="7.02136">
        <ele>1020.01</ele>
        <time>2018-07-08T08:59:03Z</time>
      </trkpt>
      <trkpt lat="48.04334" lon="7.02135">
        <ele>1020.4</ele>
        <time>2018-07-08T08:59:25Z</time>
      </trkpt>
      <trkpt lat="48.04332" lon="7.02141">
        <ele>1020.74</ele>
        <time>2018-07-08T08:59:42Z</time>
      </trkpt>
      <trkpt lat="48.04328" lon="7.02146">
        <ele>1021.4</ele>
        <time>2018-07-08T09:00:02Z</time>
      </trkpt>
      <trkpt lat="48.04327" lon="7.02145">
        <ele>1020.68</ele>
        <time>2018-07-08T09:00:22Z</time>
      </trkpt>
      <trkpt lat="48.04328" lon="7.02144">
        <ele>1022.31</ele>
        <time>2018-07-08T09:00:45Z</time>
      </trkpt>
      <trkpt lat="48.04329" lon="7.02145">
        <ele>1021.02</ele>
        <time>2018-07-08T09:00:47Z</time>
      </trkpt>
      <trkpt lat="48.0433" lon="7.02144">
        <ele>1019.94</ele>
        <time>2018-07-08T09:00:53Z</time>
      </trkpt>
      <trkpt lat="48.0433" lon="7.02144">
        <ele>1024.03</ele>
        <time>2018-07-08T09:00:58Z</time>
      </trkpt>
      <trkpt lat="48.0433" lon="7.02145">
        <ele>1020.64</ele>
        <time>2018-07-08T09:00:59Z</time>
      </trkpt>
      <trkpt lat="48.04331" lon="7.02148">
        <ele>1016.83</ele>
        <time>2018-07-08T09:01:04Z</time>
      </trkpt>
      <trkpt lat="48.0433" lon="7.02148">
        <ele>1020.42</ele>
        <time>2018-07-08T09:01:05Z</time>
      </trkpt>
      <trkpt lat="48.0433" lon="7.02149">
        <ele>1021.13</ele>
        <time>2018-07-08T09:01:07Z</time>
      </trkpt>
      <trkpt lat="48.0433" lon="7.02147">
        <ele>1021.39</ele>
        <time>2018-07-08T09:01:32Z</time>
      </trkpt>
      <trkpt lat="48.04328" lon="7.02144">
        <ele>1021.6</ele>
        <time>2018-07-08T09:01:53Z</time>
      </trkpt>
      <trkpt lat="48.04331" lon="7.02144">
        <ele>1021.34</ele>
        <time>2018-07-08T09:02:13Z</time>
      </trkpt>
      <trkpt lat="48.0433" lon="7.02143">
        <ele>1021.33</ele>
        <time>2018-07-08T09:02:37Z</time>
      </trkpt>
      <trkpt lat="48.04329" lon="7.02142">
        <ele>1021.15</ele>
        <time>2018-07-08T09:02:59Z</time>
      </trkpt>
      <trkpt lat="48.04326" lon="7.0214">
        <ele>1021.21</ele>
        <time>2018-07-08T09:03:20Z</time>
      </trkpt>
      <trkpt lat="48.04313" lon="7.02145">
        <ele>1020.2</ele>
        <time>2018-07-08T09:03:36Z</time>
      </trkpt>
      <trkpt lat="48.04312" lon="7.02145">
        <ele>1019.86</ele>
        <time>2018-07-08T09:03:37Z</time>
      </trkpt>
      <trkpt lat="48.04311" lon="7.02148">
        <ele>1019.62</ele>
        <time>2018-07-08T09:03:39Z</time>
      </trkpt>
      <trkpt lat="48.04305" lon="7.02159">
        <ele>1018.06</ele>
        <time>2018-07-08T09:03:53Z</time>
      </trkpt>
      <trkpt lat="48.04301" lon="7.02168">
        <ele>1015.02</ele>
        <time>2018-07-08T09:04:09Z</time>
      </trkpt>
      <trkpt lat="48.04295" lon="7.02173">
        <ele>1013.71</ele>
        <time>2018-07-08T09:04:17Z</time>
      </trkpt>
      <trkpt lat="48.04284" lon="7.02176">
        <ele>1012.87</ele>
        <time>2018-07-08T09:04:25Z</time>
      </trkpt>
      <trkpt lat="48.04272" lon="7.0218">
        <ele>1011.9</ele>
        <time>2018-07-08T09:04:38Z</time>
      </trkpt>
      <trkpt lat="48.04265" lon="7.02194">
        <ele>1009.99</ele>
        <time>2018-07-08T09:04:52Z</time>
      </trkpt>
      <trkpt lat="48.04263" lon="7.022">
        <ele>1009.19</ele>
        <time>2018-07-08T09:04:56Z</time>
      </trkpt>
      <trkpt lat="48.04258" lon="7.02215">
        <ele>1009.19</ele>
        <time>2018-07-08T09:05:04Z</time>
      </trkpt>
      <trkpt lat="48.04253" lon="7.02231">
        <ele>1008.35</ele>
        <time>2018-07-08T09:05:15Z</time>
      </trkpt>
      <trkpt lat="48.04247" lon="7.02249">
        <ele>1008.72</ele>
        <time>2018-07-08T09:05:31Z</time>
      </trkpt>
      <trkpt lat="48.04244" lon="7.0226">
        <ele>1010.06</ele>
        <time>2018-07-08T09:05:49Z</time>
      </trkpt>
      <trkpt lat="48.04243" lon="7.02272">
        <ele>1013.58</ele>
        <time>2018-07-08T09:06:05Z</time>
      </trkpt>
      <trkpt lat="48.04244" lon="7.02286">
        <ele>1013.23</ele>
        <time>2018-07-08T09:06:28Z</time>
      </trkpt>
      <trkpt lat="48.04244" lon="7.02292">
        <ele>1016.24</ele>
        <time>2018-07-08T09:06:36Z</time>
      </trkpt>
      <trkpt lat="48.04238" lon="7.02308">
        <ele>1017.6</ele>
        <time>2018-07-08T09:06:58Z</time>
      </trkpt>
      <trkpt lat="48.04237" lon="7.02311">
        <ele>1020.6</ele>
        <time>2018-07-08T09:07:03Z</time>
      </trkpt>
      <trkpt lat="48.04237" lon="7.02311">
        <ele>1017.12</ele>
        <time>2018-07-08T09:07:04Z</time>
      </trkpt>
      <trkpt lat="48.04238" lon="7.0232">
        <ele>1020.33</ele>
        <time>2018-07-08T09:07:18Z</time>
      </trkpt>
      <trkpt lat="48.0424" lon="7.02328">
        <ele>1021.7</ele>
        <time>2018-07-08T09:07:31Z</time>
      </trkpt>
      <trkpt lat="48.04234" lon="7.02336">
        <ele>1024.72</ele>
        <time>2018-07-08T09:07:48Z</time>
      </trkpt>
      <trkpt lat="48.04232" lon="7.02336">
        <ele>1021.63</ele>
        <time>2018-07-08T09:07:54Z</time>
      </trkpt>
      <trkpt lat="48.04231" lon="7.02337">
        <ele>1026.12</ele>
        <time>2018-07-08T09:07:55Z</time>
      </trkpt>
      <trkpt lat="48.04219" lon="7.0235">
        <ele>1027.02</ele>
        <time>2018-07-08T09:08:17Z</time>
      </trkpt>
      <trkpt lat="48.04216" lon="7.02352">
        <ele>1028.15</ele>
        <time>2018-07-08T09:08:29Z</time>
      </trkpt>
      <trkpt lat="48.04215" lon="7.02351">
        <ele>1029.88</ele>
        <time>2018-07-08T09:08:50Z</time>
      </trkpt>
      <trkpt lat="48.04212" lon="7.02347">
        <ele>1031.31</ele>
        <time>2018-07-08T09:08:56Z</time>
      </trkpt>
      <trkpt lat="48.04206" lon="7.0235">
        <ele>1033.41</ele>
        <time>2018-07-08T09:09:13Z</time>
      </trkpt>
      <trkpt lat="48.04202" lon="7.0235">
        <ele>1035.29</ele>
        <time>2018-07-08T09:09:26Z</time>
      </trkpt>
      <trkpt lat="48.04201" lon="7.02348">
        <ele>1034.56</ele>
        <time>2018-07-08T09:09:30Z</time>
      </trkpt>
      <trkpt lat="48.04195" lon="7.02339">
        <ele>1037.04</ele>
        <time>2018-07-08T09:09:53Z</time>
      </trkpt>
      <trkpt lat="48.04195" lon="7.02338">
        <ele>1038.68</ele>
        <time>2018-07-08T09:09:55Z</time>
      </trkpt>
      <trkpt lat="48.04189" lon="7.02334">
        <ele>1038.51</ele>
        <time>2018-07-08T09:10:05Z</time>
      </trkpt>
      <trkpt lat="48.04187" lon="7.02334">
        <ele>1040.22</ele>
        <time>2018-07-08T09:10:08Z</time>
      </trkpt>
      <trkpt lat="48.04186" lon="7.02334">
        <ele>1040.83</ele>
        <time>2018-07-08T09:10:12Z</time>
      </trkpt>
      <trkpt lat="48.04186" lon="7.02344">
        <ele>1044.64</ele>
        <time>2018-07-08T09:10:33Z</time>
      </trkpt>
      <trkpt lat="48.04186" lon="7.02347">
        <ele>1041.15</ele>
        <time>2018-07-08T09:10:38Z</time>
      </trkpt>
      <trkpt lat="48.04185" lon="7.02347">
        <ele>1042.15</ele>
        <time>2018-07-08T09:10:39Z</time>
      </trkpt>
      <trkpt lat="48.04185" lon="7.02349">
        <ele>1043.03</ele>
        <time>2018-07-08T09:10:41Z</time>
      </trkpt>
      <trkpt lat="48.04184" lon="7.02354">
        <ele>1046.53</ele>
        <time>2018-07-08T09:10:50Z</time>
      </trkpt>
      <trkpt lat="48.04179" lon="7.02362">
        <ele>1046.27</ele>
        <time>2018-07-08T09:11:06Z</time>
      </trkpt>
      <trkpt lat="48.04169" lon="7.02364">
        <ele>1048.34</ele>
        <time>2018-07-08T09:11:27Z</time>
      </trkpt>
      <trkpt lat="48.04161" lon="7.02363">
        <ele>1051.42</ele>
        <time>2018-07-08T09:11:44Z</time>
      </trkpt>
      <trkpt lat="48.04159" lon="7.02362">
        <ele>1053.18</ele>
        <time>2018-07-08T09:11:46Z</time>
      </trkpt>
      <trkpt lat="48.04159" lon="7.02357">
        <ele>1053.31</ele>
        <time>2018-07-08T09:11:57Z</time>
      </trkpt>
      <trkpt lat="48.04155" lon="7.02355">
        <ele>1051.88</ele>
        <time>2018-07-08T09:12:12Z</time>
      </trkpt>
      <trkpt lat="48.04161" lon="7.02356">
        <ele>1052.89</ele>
        <time>2018-07-08T09:12:38Z</time>
      </trkpt>
      <trkpt lat="48.04159" lon="7.02354">
        <ele>1053.19</ele>
        <time>2018-07-08T09:12:44Z</time>
      </trkpt>
      <trkpt lat="48.04163" lon="7.02361">
        <ele>1053.25</ele>
        <time>2018-07-08T09:13:16Z</time>
      </trkpt>
      <trkpt lat="48.04159" lon="7.02356">
        <ele>1053.29</ele>
        <time>2018-07-08T09:13:44Z</time>
      </trkpt>
      <trkpt lat="48.04158" lon="7.02354">
        <ele>1052.77</ele>
        <time>2018-07-08T09:14:07Z</time>
      </trkpt>
      <trkpt lat="48.04167" lon="7.02358">
        <ele>1052.94</ele>
        <time>2018-07-08T09:14:33Z</time>
      </trkpt>
      <trkpt lat="48.04165" lon="7.02358">
        <ele>1052.84</ele>
        <time>2018-07-08T09:14:58Z</time>
      </trkpt>
      <trkpt lat="48.04163" lon="7.02359">
        <ele>1049.56</ele>
        <time>2018-07-08T09:15:06Z</time>
      </trkpt>
      <trkpt lat="48.04163" lon="7.02359">
        <ele>1056.78</ele>
        <time>2018-07-08T09:15:07Z</time>
      </trkpt>
      <trkpt lat="48.04163" lon="7.02358">
        <ele>1053.75</ele>
        <time>2018-07-08T09:15:08Z</time>
      </trkpt>
      <trkpt lat="48.04161" lon="7.02354">
        <ele>1054.46</ele>
        <time>2018-07-08T09:15:16Z</time>
      </trkpt>
      <trkpt lat="48.0416" lon="7.02345">
        <ele>1058.71</ele>
        <time>2018-07-08T09:15:40Z</time>
      </trkpt>
      <trkpt lat="48.04158" lon="7.02344">
        <ele>1058.26</ele>
        <time>2018-07-08T09:15:43Z</time>
      </trkpt>
      <trkpt lat="48.04154" lon="7.02341">
        <ele>1058.77</ele>
        <time>2018-07-08T09:15:50Z</time>
      </trkpt>
      <trkpt lat="48.04151" lon="7.02338">
        <ele>1063.26</ele>
        <time>2018-07-08T09:16:12Z</time>
      </trkpt>
      <trkpt lat="48.0415" lon="7.02339">
        <ele>1063.33</ele>
        <time>2018-07-08T09:16:16Z</time>
      </trkpt>
      <trkpt lat="48.04144" lon="7.02338">
        <ele>1065.63</ele>
        <time>2018-07-08T09:16:28Z</time>
      </trkpt>
      <trkpt lat="48.04136" lon="7.02336">
        <ele>1066.56</ele>
        <time>2018-07-08T09:16:43Z</time>
      </trkpt>
      <trkpt lat="48.04124" lon="7.02318">
        <ele>1065.8</ele>
        <time>2018-07-08T09:17:05Z</time>
      </trkpt>
      <trkpt lat="48.04117" lon="7.02315">
        <ele>1067</ele>
        <time>2018-07-08T09:17:12Z</time>
      </trkpt>
      <trkpt lat="48.04096" lon="7.02302">
        <ele>1069.23</ele>
        <time>2018-07-08T09:17:31Z</time>
      </trkpt>
      <trkpt lat="48.0409" lon="7.02297">
        <ele>1071.85</ele>
        <time>2018-07-08T09:17:45Z</time>
      </trkpt>
      <trkpt lat="48.04088" lon="7.02294">
        <ele>1072.63</ele>
        <time>2018-07-08T09:17:56Z</time>
      </trkpt>
      <trkpt lat="48.04086" lon="7.02294">
        <ele>1076.38</ele>
        <time>2018-07-08T09:18:12Z</time>
      </trkpt>
      <trkpt lat="48.04084" lon="7.02291">
        <ele>1077.74</ele>
        <time>2018-07-08T09:18:28Z</time>
      </trkpt>
      <trkpt lat="48.0408" lon="7.02256">
        <ele>1078.91</ele>
        <time>2018-07-08T09:18:50Z</time>
      </trkpt>
      <trkpt lat="48.0408" lon="7.02254">
        <ele>1082.22</ele>
        <time>2018-07-08T09:18:51Z</time>
      </trkpt>
      <trkpt lat="48.04079" lon="7.02234">
        <ele>1083.5</ele>
        <time>2018-07-08T09:19:16Z</time>
      </trkpt>
      <trkpt lat="48.0408" lon="7.02223">
        <ele>1085.39</ele>
        <time>2018-07-08T09:19:32Z</time>
      </trkpt>
      <trkpt lat="48.0408" lon="7.02217">
        <ele>1086.81</ele>
        <time>2018-07-08T09:19:43Z</time>
      </trkpt>
      <trkpt lat="48.04082" lon="7.02215">
        <ele>1090.65</ele>
        <time>2018-07-08T09:19:49Z</time>
      </trkpt>
      <trkpt lat="48.04083" lon="7.02215">
        <ele>1085.4</ele>
        <time>2018-07-08T09:19:50Z</time>
      </trkpt>
      <trkpt lat="48.04083" lon="7.02214">
        <ele>1090.58</ele>
        <time>2018-07-08T09:19:51Z</time>
      </trkpt>
      <trkpt lat="48.04083" lon="7.02214">
        <ele>1087.02</ele>
        <time>2018-07-08T09:19:52Z</time>
      </trkpt>
      <trkpt lat="48.04081" lon="7.02211">
        <ele>1090.06</ele>
        <time>2018-07-08T09:20:00Z</time>
      </trkpt>
      <trkpt lat="48.04078" lon="7.02195">
        <ele>1091.02</ele>
        <time>2018-07-08T09:20:23Z</time>
      </trkpt>
      <trkpt lat="48.04069" lon="7.02191">
        <ele>1092.08</ele>
        <time>2018-07-08T09:20:41Z</time>
      </trkpt>
      <trkpt lat="48.04055" lon="7.02197">
        <ele>1093.95</ele>
        <time>2018-07-08T09:21:02Z</time>
      </trkpt>
      <trkpt lat="48.04053" lon="7.02204">
        <ele>1094.46</ele>
        <time>2018-07-08T09:21:10Z</time>
      </trkpt>
      <trkpt lat="48.04052" lon="7.02209">
        <ele>1092.33</ele>
        <time>2018-07-08T09:21:15Z</time>
      </trkpt>
      <trkpt lat="48.04051" lon="7.0221">
        <ele>1098.04</ele>
        <time>2018-07-08T09:21:16Z</time>
      </trkpt>
      <trkpt lat="48.0404" lon="7.02215">
        <ele>1099.91</ele>
        <time>2018-07-08T09:21:29Z</time>
      </trkpt>
      <trkpt lat="48.04034" lon="7.0221">
        <ele>1100.13</ele>
        <time>2018-07-08T09:21:40Z</time>
      </trkpt>
      <trkpt lat="48.04033" lon="7.0221">
        <ele>1100.42</ele>
        <time>2018-07-08T09:21:42Z</time>
      </trkpt>
      <trkpt lat="48.04031" lon="7.02211">
        <ele>1101.5</ele>
        <time>2018-07-08T09:21:49Z</time>
      </trkpt>
      <trkpt lat="48.04025" lon="7.02214">
        <ele>1101.49</ele>
        <time>2018-07-08T09:21:58Z</time>
      </trkpt>
      <trkpt lat="48.04019" lon="7.02221">
        <ele>1104.27</ele>
        <time>2018-07-08T09:22:08Z</time>
      </trkpt>
      <trkpt lat="48.04016" lon="7.02221">
        <ele>1104.79</ele>
        <time>2018-07-08T09:22:11Z</time>
      </trkpt>
      <trkpt lat="48.04007" lon="7.02217">
        <ele>1108.72</ele>
        <time>2018-07-08T09:22:24Z</time>
      </trkpt>
      <trkpt lat="48.03993" lon="7.02209">
        <ele>1108.64</ele>
        <time>2018-07-08T09:22:43Z</time>
      </trkpt>
      <trkpt lat="48.03986" lon="7.02217">
        <ele>1110.85</ele>
        <time>2018-07-08T09:23:00Z</time>
      </trkpt>
      <trkpt lat="48.03982" lon="7.0222">
        <ele>1113.02</ele>
        <time>2018-07-08T09:23:11Z</time>
      </trkpt>
      <trkpt lat="48.03982" lon="7.02233">
        <ele>1113.66</ele>
        <time>2018-07-08T09:23:27Z</time>
      </trkpt>
      <trkpt lat="48.03993" lon="7.0225">
        <ele>1116.11</ele>
        <time>2018-07-08T09:23:42Z</time>
      </trkpt>
      <trkpt lat="48.03995" lon="7.02252">
        <ele>1116.04</ele>
        <time>2018-07-08T09:23:44Z</time>
      </trkpt>
      <trkpt lat="48.03999" lon="7.02259">
        <ele>1118.15</ele>
        <time>2018-07-08T09:23:52Z</time>
      </trkpt>
      <trkpt lat="48.04" lon="7.02262">
        <ele>1116.59</ele>
        <time>2018-07-08T09:23:55Z</time>
      </trkpt>
      <trkpt lat="48.04" lon="7.02264">
        <ele>1118.05</ele>
        <time>2018-07-08T09:23:59Z</time>
      </trkpt>
      <trkpt lat="48.03995" lon="7.02266">
        <ele>1121.06</ele>
        <time>2018-07-08T09:24:17Z</time>
      </trkpt>
      <trkpt lat="48.03994" lon="7.02264">
        <ele>1121.53</ele>
        <time>2018-07-08T09:24:24Z</time>
      </trkpt>
      <trkpt lat="48.03994" lon="7.02263">
        <ele>1124.07</ele>
        <time>2018-07-08T09:24:39Z</time>
      </trkpt>
      <trkpt lat="48.03993" lon="7.02265">
        <ele>1125.69</ele>
        <time>2018-07-08T09:24:45Z</time>
      </trkpt>
      <trkpt lat="48.03993" lon="7.02265">
        <ele>1123.77</ele>
        <time>2018-07-08T09:24:47Z</time>
      </trkpt>
      <trkpt lat="48.03992" lon="7.02266">
        <ele>1124.71</ele>
        <time>2018-07-08T09:24:49Z</time>
      </trkpt>
      <trkpt lat="48.03995" lon="7.02266">
        <ele>1126.44</ele>
        <time>2018-07-08T09:25:02Z</time>
      </trkpt>
      <trkpt lat="48.0399" lon="7.02268">
        <ele>1127.12</ele>
        <time>2018-07-08T09:25:16Z</time>
      </trkpt>
      <trkpt lat="48.03988" lon="7.02271">
        <ele>1130.14</ele>
        <time>2018-07-08T09:25:20Z</time>
      </trkpt>
      <trkpt lat="48.03986" lon="7.02274">
        <ele>1133.64</ele>
        <time>2018-07-08T09:25:36Z</time>
      </trkpt>
      <trkpt lat="48.03985" lon="7.02274">
        <ele>1129.82</ele>
        <time>2018-07-08T09:25:37Z</time>
      </trkpt>
      <trkpt lat="48.03985" lon="7.02274">
        <ele>1134.23</ele>
        <time>2018-07-08T09:25:38Z</time>
      </trkpt>
      <trkpt lat="48.03984" lon="7.02274">
        <ele>1130.65</ele>
        <time>2018-07-08T09:25:39Z</time>
      </trkpt>
      <trkpt lat="48.03985" lon="7.02277">
        <ele>1131.87</ele>
        <time>2018-07-08T09:25:45Z</time>
      </trkpt>
      <trkpt lat="48.03984" lon="7.02282">
        <ele>1136.81</ele>
        <time>2018-07-08T09:26:03Z</time>
      </trkpt>
      <trkpt lat="48.03984" lon="7.0228">
        <ele>1136.4</ele>
        <time>2018-07-08T09:26:05Z</time>
      </trkpt>
      <trkpt lat="48.03984" lon="7.02277">
        <ele>1137.39</ele>
        <time>2018-07-08T09:26:08Z</time>
      </trkpt>
      <trkpt lat="48.03976" lon="7.0226">
        <ele>1139.7</ele>
        <time>2018-07-08T09:26:30Z</time>
      </trkpt>
      <trkpt lat="48.03968" lon="7.02257">
        <ele>1142.4</ele>
        <time>2018-07-08T09:26:46Z</time>
      </trkpt>
      <trkpt lat="48.03963" lon="7.02257">
        <ele>1145.28</ele>
        <time>2018-07-08T09:27:06Z</time>
      </trkpt>
      <trkpt lat="48.03963" lon="7.02257">
        <ele>1142.18</ele>
        <time>2018-07-08T09:27:09Z</time>
      </trkpt>
      <trkpt lat="48.03962" lon="7.02258">
        <ele>1145.63</ele>
        <time>2018-07-08T09:27:10Z</time>
      </trkpt>
      <trkpt lat="48.03955" lon="7.02259">
        <ele>1146.38</ele>
        <time>2018-07-08T09:27:19Z</time>
      </trkpt>
      <trkpt lat="48.03953" lon="7.02266">
        <ele>1145.39</ele>
        <time>2018-07-08T09:27:29Z</time>
      </trkpt>
      <trkpt lat="48.03951" lon="7.02268">
        <ele>1148.43</ele>
        <time>2018-07-08T09:27:43Z</time>
      </trkpt>
      <trkpt lat="48.03948" lon="7.02266">
        <ele>1151.61</ele>
        <time>2018-07-08T09:27:59Z</time>
      </trkpt>
      <trkpt lat="48.03941" lon="7.02263">
        <ele>1154.18</ele>
        <time>2018-07-08T09:28:19Z</time>
      </trkpt>
      <trkpt lat="48.0394" lon="7.02265">
        <ele>1154.21</ele>
        <time>2018-07-08T09:28:29Z</time>
      </trkpt>
      <trkpt lat="48.03936" lon="7.02262">
        <ele>1155.57</ele>
        <time>2018-07-08T09:28:45Z</time>
      </trkpt>
      <trkpt lat="48.03934" lon="7.02273">
        <ele>1159.04</ele>
        <time>2018-07-08T09:29:03Z</time>
      </trkpt>
      <trkpt lat="48.03934" lon="7.02273">
        <ele>1156</ele>
        <time>2018-07-08T09:29:04Z</time>
      </trkpt>
      <trkpt lat="48.03934" lon="7.02274">
        <ele>1161.24</ele>
        <time>2018-07-08T09:29:05Z</time>
      </trkpt>
      <trkpt lat="48.03933" lon="7.02276">
        <ele>1160.09</ele>
        <time>2018-07-08T09:29:07Z</time>
      </trkpt>
      <trkpt lat="48.03931" lon="7.02278">
        <ele>1159.12</ele>
        <time>2018-07-08T09:29:09Z</time>
      </trkpt>
      <trkpt lat="48.03929" lon="7.02282">
        <ele>1159.84</ele>
        <time>2018-07-08T09:29:12Z</time>
      </trkpt>
      <trkpt lat="48.03927" lon="7.02293">
        <ele>1162.62</ele>
        <time>2018-07-08T09:29:25Z</time>
      </trkpt>
      <trkpt lat="48.03925" lon="7.02297">
        <ele>1162.89</ele>
        <time>2018-07-08T09:29:28Z</time>
      </trkpt>
      <trkpt lat="48.03927" lon="7.02301">
        <ele>1163.87</ele>
        <time>2018-07-08T09:29:34Z</time>
      </trkpt>
      <trkpt lat="48.03935" lon="7.02314">
        <ele>1167.69</ele>
        <time>2018-07-08T09:29:51Z</time>
      </trkpt>
      <trkpt lat="48.03938" lon="7.02317">
        <ele>1167.69</ele>
        <time>2018-07-08T09:29:55Z</time>
      </trkpt>
      <trkpt lat="48.03944" lon="7.02328">
        <ele>1169.67</ele>
        <time>2018-07-08T09:30:16Z</time>
      </trkpt>
      <trkpt lat="48.03944" lon="7.02335">
        <ele>1173.08</ele>
        <time>2018-07-08T09:30:26Z</time>
      </trkpt>
      <trkpt lat="48.03945" lon="7.02336">
        <ele>1172.61</ele>
        <time>2018-07-08T09:30:27Z</time>
      </trkpt>
      <trkpt lat="48.03944" lon="7.02351">
        <ele>1173.61</ele>
        <time>2018-07-08T09:30:43Z</time>
      </trkpt>
      <trkpt lat="48.0395" lon="7.02347">
        <ele>1175.77</ele>
        <time>2018-07-08T09:30:57Z</time>
      </trkpt>
      <trkpt lat="48.03955" lon="7.02351">
        <ele>1176.72</ele>
        <time>2018-07-08T09:31:12Z</time>
      </trkpt>
      <trkpt lat="48.03963" lon="7.02356">
        <ele>1179.01</ele>
        <time>2018-07-08T09:31:26Z</time>
      </trkpt>
      <trkpt lat="48.03968" lon="7.02363">
        <ele>1178.22</ele>
        <time>2018-07-08T09:31:55Z</time>
      </trkpt>
      <trkpt lat="48.03968" lon="7.02363">
        <ele>1178.46</ele>
        <time>2018-07-08T09:32:20Z</time>
      </trkpt>
      <trkpt lat="48.03966" lon="7.02362">
        <ele>1178.41</ele>
        <time>2018-07-08T09:32:24Z</time>
      </trkpt>
      <trkpt lat="48.03962" lon="7.0236">
        <ele>1178.63</ele>
        <time>2018-07-08T09:32:27Z</time>
      </trkpt>
      <trkpt lat="48.03961" lon="7.02362">
        <ele>1178.85</ele>
        <time>2018-07-08T09:32:54Z</time>
      </trkpt>
      <trkpt lat="48.03961" lon="7.02363">
        <ele>1179.24</ele>
        <time>2018-07-08T09:33:16Z</time>
      </trkpt>
      <trkpt lat="48.03961" lon="7.02362">
        <ele>1179.2</ele>
        <time>2018-07-08T09:33:41Z</time>
      </trkpt>
      <trkpt lat="48.0396" lon="7.02362">
        <ele>1179.43</ele>
        <time>2018-07-08T09:34:04Z</time>
      </trkpt>
      <trkpt lat="48.03958" lon="7.02357">
        <ele>1179.62</ele>
        <time>2018-07-08T09:34:27Z</time>
      </trkpt>
      <trkpt lat="48.03957" lon="7.02355">
        <ele>1179.85</ele>
        <time>2018-07-08T09:34:47Z</time>
      </trkpt>
      <trkpt lat="48.03956" lon="7.02353">
        <ele>1180.51</ele>
        <time>2018-07-08T09:35:06Z</time>
      </trkpt>
      <trkpt lat="48.03958" lon="7.02357">
        <ele>1180.19</ele>
        <time>2018-07-08T09:35:29Z</time>
      </trkpt>
      <trkpt lat="48.03958" lon="7.02363">
        <ele>1180.4</ele>
        <time>2018-07-08T09:35:50Z</time>
      </trkpt>
      <trkpt lat="48.03957" lon="7.02363">
        <ele>1179.71</ele>
        <time>2018-07-08T09:35:52Z</time>
      </trkpt>
      <trkpt lat="48.03956" lon="7.02365">
        <ele>1179.78</ele>
        <time>2018-07-08T09:36:11Z</time>
      </trkpt>
      <trkpt lat="48.03952" lon="7.02365">
        <ele>1178.28</ele>
        <time>2018-07-08T09:36:27Z</time>
      </trkpt>
      <trkpt lat="48.0394" lon="7.02362">
        <ele>1176.98</ele>
        <time>2018-07-08T09:36:47Z</time>
      </trkpt>
      <trkpt lat="48.03939" lon="7.02359">
        <ele>1178.36</ele>
        <time>2018-07-08T09:36:55Z</time>
      </trkpt>
      <trkpt lat="48.03939" lon="7.02359">
        <ele>1179.44</ele>
        <time>2018-07-08T09:37:17Z</time>
      </trkpt>
      <trkpt lat="48.03939" lon="7.02358">
        <ele>1178.63</ele>
        <time>2018-07-08T09:37:40Z</time>
      </trkpt>
      <trkpt lat="48.03941" lon="7.02359">
        <ele>1178.08</ele>
        <time>2018-07-08T09:37:57Z</time>
      </trkpt>
      <trkpt lat="48.03939" lon="7.02363">
        <ele>1178.37</ele>
        <time>2018-07-08T09:38:22Z</time>
      </trkpt>
      <trkpt lat="48.03936" lon="7.02366">
        <ele>1179.01</ele>
        <time>2018-07-08T09:38:49Z</time>
      </trkpt>
      <trkpt lat="48.03933" lon="7.02364">
        <ele>1178.86</ele>
        <time>2018-07-08T09:39:15Z</time>
      </trkpt>
      <trkpt lat="48.03921" lon="7.02372">
        <ele>1180.36</ele>
        <time>2018-07-08T09:39:36Z</time>
      </trkpt>
      <trkpt lat="48.0391" lon="7.02386">
        <ele>1182.08</ele>
        <time>2018-07-08T09:39:58Z</time>
      </trkpt>
      <trkpt lat="48.03901" lon="7.02394">
        <ele>1183.85</ele>
        <time>2018-07-08T09:40:14Z</time>
      </trkpt>
      <trkpt lat="48.03884" lon="7.02405">
        <ele>1184.38</ele>
        <time>2018-07-08T09:40:33Z</time>
      </trkpt>
      <trkpt lat="48.0388" lon="7.02409">
        <ele>1184.19</ele>
        <time>2018-07-08T09:40:36Z</time>
      </trkpt>
      <trkpt lat="48.03858" lon="7.02421">
        <ele>1184.78</ele>
        <time>2018-07-08T09:40:58Z</time>
      </trkpt>
      <trkpt lat="48.03841" lon="7.02434">
        <ele>1183.64</ele>
        <time>2018-07-08T09:41:17Z</time>
      </trkpt>
      <trkpt lat="48.03829" lon="7.02449">
        <ele>1183.06</ele>
        <time>2018-07-08T09:41:31Z</time>
      </trkpt>
      <trkpt lat="48.03822" lon="7.02469">
        <ele>1183.92</ele>
        <time>2018-07-08T09:41:55Z</time>
      </trkpt>
      <trkpt lat="48.03824" lon="7.02471">
        <ele>1185.68</ele>
        <time>2018-07-08T09:41:58Z</time>
      </trkpt>
      <trkpt lat="48.03824" lon="7.02492">
        <ele>1186.63</ele>
        <time>2018-07-08T09:42:17Z</time>
      </trkpt>
      <trkpt lat="48.03822" lon="7.02497">
        <ele>1186.76</ele>
        <time>2018-07-08T09:42:21Z</time>
      </trkpt>
      <trkpt lat="48.03814" lon="7.02509">
        <ele>1186.98</ele>
        <time>2018-07-08T09:42:38Z</time>
      </trkpt>
      <trkpt lat="48.03812" lon="7.02511">
        <ele>1186.96</ele>
        <time>2018-07-08T09:43:00Z</time>
      </trkpt>
      <trkpt lat="48.03813" lon="7.0252">
        <ele>1187.2</ele>
        <time>2018-07-08T09:43:35Z</time>
      </trkpt>
      <trkpt lat="48.03813" lon="7.02525">
        <ele>1187.15</ele>
        <time>2018-07-08T09:43:53Z</time>
      </trkpt>
      <trkpt lat="48.03808" lon="7.02541">
        <ele>1186.88</ele>
        <time>2018-07-08T09:44:08Z</time>
      </trkpt>
      <trkpt lat="48.03806" lon="7.02564">
        <ele>1187.47</ele>
        <time>2018-07-08T09:44:25Z</time>
      </trkpt>
      <trkpt lat="48.03805" lon="7.02566">
        <ele>1187.54</ele>
        <time>2018-07-08T09:44:26Z</time>
      </trkpt>
      <trkpt lat="48.03803" lon="7.02577">
        <ele>1187.87</ele>
        <time>2018-07-08T09:44:33Z</time>
      </trkpt>
      <trkpt lat="48.03796" lon="7.02594">
        <ele>1187.99</ele>
        <time>2018-07-08T09:44:47Z</time>
      </trkpt>
      <trkpt lat="48.03784" lon="7.02609">
        <ele>1188.93</ele>
        <time>2018-07-08T09:45:03Z</time>
      </trkpt>
      <trkpt lat="48.03769" lon="7.0261">
        <ele>1190.34</ele>
        <time>2018-07-08T09:45:18Z</time>
      </trkpt>
      <trkpt lat="48.03755" lon="7.02614">
        <ele>1191.94</ele>
        <time>2018-07-08T09:45:35Z</time>
      </trkpt>
      <trkpt lat="48.03744" lon="7.02627">
        <ele>1194.36</ele>
        <time>2018-07-08T09:45:53Z</time>
      </trkpt>
      <trkpt lat="48.0373" lon="7.02635">
        <ele>1196.44</ele>
        <time>2018-07-08T09:46:09Z</time>
      </trkpt>
      <trkpt lat="48.03713" lon="7.02637">
        <ele>1198.09</ele>
        <time>2018-07-08T09:46:26Z</time>
      </trkpt>
      <trkpt lat="48.03699" lon="7.0264">
        <ele>1199.75</ele>
        <time>2018-07-08T09:46:45Z</time>
      </trkpt>
      <trkpt lat="48.03684" lon="7.02645">
        <ele>1201.94</ele>
        <time>2018-07-08T09:47:02Z</time>
      </trkpt>
      <trkpt lat="48.03668" lon="7.02644">
        <ele>1204.96</ele>
        <time>2018-07-08T09:47:21Z</time>
      </trkpt>
      <trkpt lat="48.03664" lon="7.02644">
        <ele>1205.16</ele>
        <time>2018-07-08T09:47:25Z</time>
      </trkpt>
      <trkpt lat="48.0365" lon="7.02638">
        <ele>1207.41</ele>
        <time>2018-07-08T09:47:40Z</time>
      </trkpt>
      <trkpt lat="48.03645" lon="7.02637">
        <ele>1208.47</ele>
        <time>2018-07-08T09:47:46Z</time>
      </trkpt>
      <trkpt lat="48.03639" lon="7.02634">
        <ele>1210.43</ele>
        <time>2018-07-08T09:47:56Z</time>
      </trkpt>
      <trkpt lat="48.03633" lon="7.02633">
        <ele>1209.98</ele>
        <time>2018-07-08T09:48:15Z</time>
      </trkpt>
      <trkpt lat="48.03632" lon="7.02632">
        <ele>1210.9</ele>
        <time>2018-07-08T09:48:37Z</time>
      </trkpt>
      <trkpt lat="48.03632" lon="7.02634">
        <ele>1210.68</ele>
        <time>2018-07-08T09:48:57Z</time>
      </trkpt>
      <trkpt lat="48.03631" lon="7.02629">
        <ele>1209.65</ele>
        <time>2018-07-08T09:49:19Z</time>
      </trkpt>
      <trkpt lat="48.03637" lon="7.0263">
        <ele>1210.47</ele>
        <time>2018-07-08T09:49:39Z</time>
      </trkpt>
      <trkpt lat="48.03638" lon="7.02638">
        <ele>1210.39</ele>
        <time>2018-07-08T09:49:55Z</time>
      </trkpt>
      <trkpt lat="48.03638" lon="7.02645">
        <ele>1210.71</ele>
        <time>2018-07-08T09:49:59Z</time>
      </trkpt>
      <trkpt lat="48.03638" lon="7.02674">
        <ele>1211.49</ele>
        <time>2018-07-08T09:50:18Z</time>
      </trkpt>
      <trkpt lat="48.03639" lon="7.0268">
        <ele>1211.77</ele>
        <time>2018-07-08T09:50:24Z</time>
      </trkpt>
      <trkpt lat="48.03641" lon="7.02684">
        <ele>1212.09</ele>
        <time>2018-07-08T09:50:27Z</time>
      </trkpt>
      <trkpt lat="48.03643" lon="7.02693">
        <ele>1211.44</ele>
        <time>2018-07-08T09:50:33Z</time>
      </trkpt>
      <trkpt lat="48.03645" lon="7.02698">
        <ele>1211.75</ele>
        <time>2018-07-08T09:50:36Z</time>
      </trkpt>
      <trkpt lat="48.03651" lon="7.02723">
        <ele>1212.11</ele>
        <time>2018-07-08T09:50:52Z</time>
      </trkpt>
      <trkpt lat="48.03655" lon="7.02746">
        <ele>1212.98</ele>
        <time>2018-07-08T09:51:08Z</time>
      </trkpt>
      <trkpt lat="48.03658" lon="7.02766">
        <ele>1213.59</ele>
        <time>2018-07-08T09:51:24Z</time>
      </trkpt>
      <trkpt lat="48.03661" lon="7.02783">
        <ele>1213.16</ele>
        <time>2018-07-08T09:51:37Z</time>
      </trkpt>
      <trkpt lat="48.0366" lon="7.02786">
        <ele>1214.12</ele>
        <time>2018-07-08T09:51:39Z</time>
      </trkpt>
      <trkpt lat="48.03664" lon="7.02815">
        <ele>1213.72</ele>
        <time>2018-07-08T09:52:01Z</time>
      </trkpt>
      <trkpt lat="48.03669" lon="7.02838">
        <ele>1214.2</ele>
        <time>2018-07-08T09:52:21Z</time>
      </trkpt>
      <trkpt lat="48.03671" lon="7.02867">
        <ele>1214.71</ele>
        <time>2018-07-08T09:52:41Z</time>
      </trkpt>
      <trkpt lat="48.03671" lon="7.02885">
        <ele>1214.98</ele>
        <time>2018-07-08T09:52:56Z</time>
      </trkpt>
      <trkpt lat="48.03677" lon="7.02911">
        <ele>1213.94</ele>
        <time>2018-07-08T09:53:18Z</time>
      </trkpt>
      <trkpt lat="48.03682" lon="7.02927">
        <ele>1214.7</ele>
        <time>2018-07-08T09:53:37Z</time>
      </trkpt>
      <trkpt lat="48.03683" lon="7.02947">
        <ele>1213.6</ele>
        <time>2018-07-08T09:53:58Z</time>
      </trkpt>
      <trkpt lat="48.03683" lon="7.02972">
        <ele>1212.79</ele>
        <time>2018-07-08T09:54:16Z</time>
      </trkpt>
      <trkpt lat="48.0368" lon="7.03002">
        <ele>1211.62</ele>
        <time>2018-07-08T09:54:38Z</time>
      </trkpt>
      <trkpt lat="48.03678" lon="7.03046">
        <ele>1211.61</ele>
        <time>2018-07-08T09:55:00Z</time>
      </trkpt>
      <trkpt lat="48.03677" lon="7.03071">
        <ele>1212.03</ele>
        <time>2018-07-08T09:55:26Z</time>
      </trkpt>
      <trkpt lat="48.03677" lon="7.03095">
        <ele>1214.64</ele>
        <time>2018-07-08T09:55:42Z</time>
      </trkpt>
      <trkpt lat="48.03679" lon="7.03108">
        <ele>1213.84</ele>
        <time>2018-07-08T09:55:56Z</time>
      </trkpt>
      <trkpt lat="48.03682" lon="7.03144">
        <ele>1212.22</ele>
        <time>2018-07-08T09:56:17Z</time>
      </trkpt>
      <trkpt lat="48.03691" lon="7.03161">
        <ele>1210.62</ele>
        <time>2018-07-08T09:56:40Z</time>
      </trkpt>
      <trkpt lat="48.0369" lon="7.03164">
        <ele>1208.68</ele>
        <time>2018-07-08T09:56:53Z</time>
      </trkpt>
      <trkpt lat="48.03691" lon="7.03179">
        <ele>1204.84</ele>
        <time>2018-07-08T09:57:03Z</time>
      </trkpt>
      <trkpt lat="48.03692" lon="7.03179">
        <ele>1211.36</ele>
        <time>2018-07-08T09:57:04Z</time>
      </trkpt>
      <trkpt lat="48.03692" lon="7.03179">
        <ele>1206.92</ele>
        <time>2018-07-08T09:57:05Z</time>
      </trkpt>
      <trkpt lat="48.03693" lon="7.03187">
        <ele>1206.23</ele>
        <time>2018-07-08T09:57:27Z</time>
      </trkpt>
      <trkpt lat="48.03694" lon="7.03194">
        <ele>1206.46</ele>
        <time>2018-07-08T09:57:53Z</time>
      </trkpt>
      <trkpt lat="48.03697" lon="7.03197">
        <ele>1205.06</ele>
        <time>2018-07-08T09:58:16Z</time>
      </trkpt>
      <trkpt lat="48.03696" lon="7.03209">
        <ele>1205.03</ele>
        <time>2018-07-08T09:58:33Z</time>
      </trkpt>
      <trkpt lat="48.03698" lon="7.03229">
        <ele>1202.83</ele>
        <time>2018-07-08T09:58:53Z</time>
      </trkpt>
      <trkpt lat="48.03699" lon="7.03239">
        <ele>1200.69</ele>
        <time>2018-07-08T09:59:13Z</time>
      </trkpt>
      <trkpt lat="48.03706" lon="7.03248">
        <ele>1197.63</ele>
        <time>2018-07-08T09:59:32Z</time>
      </trkpt>
      <trkpt lat="48.03711" lon="7.03246">
        <ele>1195.3</ele>
        <time>2018-07-08T09:59:49Z</time>
      </trkpt>
      <trkpt lat="48.03715" lon="7.03244">
        <ele>1193.26</ele>
        <time>2018-07-08T10:00:08Z</time>
      </trkpt>
      <trkpt lat="48.03719" lon="7.03251">
        <ele>1189.98</ele>
        <time>2018-07-08T10:00:24Z</time>
      </trkpt>
      <trkpt lat="48.03724" lon="7.0325">
        <ele>1186.91</ele>
        <time>2018-07-08T10:00:46Z</time>
      </trkpt>
      <trkpt lat="48.03733" lon="7.03248">
        <ele>1184.29</ele>
        <time>2018-07-08T10:01:04Z</time>
      </trkpt>
      <trkpt lat="48.03737" lon="7.0325">
        <ele>1185.25</ele>
        <time>2018-07-08T10:01:28Z</time>
      </trkpt>
      <trkpt lat="48.03734" lon="7.03253">
        <ele>1185.77</ele>
        <time>2018-07-08T10:01:51Z</time>
      </trkpt>
      <trkpt lat="48.03728" lon="7.03245">
        <ele>1185.52</ele>
        <time>2018-07-08T10:02:18Z</time>
      </trkpt>
      <trkpt lat="48.03726" lon="7.0325">
        <ele>1185.92</ele>
        <time>2018-07-08T10:02:44Z</time>
      </trkpt>
      <trkpt lat="48.03728" lon="7.03257">
        <ele>1186.44</ele>
        <time>2018-07-08T10:03:09Z</time>
      </trkpt>
      <trkpt lat="48.0373" lon="7.03257">
        <ele>1186.61</ele>
        <time>2018-07-08T10:03:38Z</time>
      </trkpt>
      <trkpt lat="48.0373" lon="7.03252">
        <ele>1187.48</ele>
        <time>2018-07-08T10:04:03Z</time>
      </trkpt>
      <trkpt lat="48.03737" lon="7.03254">
        <ele>1185.18</ele>
        <time>2018-07-08T10:04:22Z</time>
      </trkpt>
      <trkpt lat="48.03745" lon="7.03258">
        <ele>1185</ele>
        <time>2018-07-08T10:04:45Z</time>
      </trkpt>
      <trkpt lat="48.03748" lon="7.03271">
        <ele>1183.24</ele>
        <time>2018-07-08T10:05:09Z</time>
      </trkpt>
      <trkpt lat="48.03749" lon="7.03277">
        <ele>1182.47</ele>
        <time>2018-07-08T10:05:17Z</time>
      </trkpt>
      <trkpt lat="48.03758" lon="7.03295">
        <ele>1180.54</ele>
        <time>2018-07-08T10:05:35Z</time>
      </trkpt>
      <trkpt lat="48.03764" lon="7.03302">
        <ele>1179.24</ele>
        <time>2018-07-08T10:05:45Z</time>
      </trkpt>
      <trkpt lat="48.0377" lon="7.03306">
        <ele>1176.66</ele>
        <time>2018-07-08T10:05:56Z</time>
      </trkpt>
      <trkpt lat="48.03784" lon="7.03311">
        <ele>1173.75</ele>
        <time>2018-07-08T10:06:15Z</time>
      </trkpt>
      <trkpt lat="48.03796" lon="7.03317">
        <ele>1172.21</ele>
        <time>2018-07-08T10:06:36Z</time>
      </trkpt>
      <trkpt lat="48.038" lon="7.03325">
        <ele>1170.97</ele>
        <time>2018-07-08T10:06:51Z</time>
      </trkpt>
      <trkpt lat="48.038" lon="7.03328">
        <ele>1170.22</ele>
        <time>2018-07-08T10:06:54Z</time>
      </trkpt>
      <trkpt lat="48.038" lon="7.03332">
        <ele>1169.42</ele>
        <time>2018-07-08T10:06:57Z</time>
      </trkpt>
      <trkpt lat="48.03802" lon="7.03341">
        <ele>1168.98</ele>
        <time>2018-07-08T10:07:07Z</time>
      </trkpt>
      <trkpt lat="48.03807" lon="7.03349">
        <ele>1168.5</ele>
        <time>2018-07-08T10:07:17Z</time>
      </trkpt>
      <trkpt lat="48.03818" lon="7.03367">
        <ele>1166.31</ele>
        <time>2018-07-08T10:07:37Z</time>
      </trkpt>
      <trkpt lat="48.03826" lon="7.03381">
        <ele>1167.79</ele>
        <time>2018-07-08T10:07:50Z</time>
      </trkpt>
      <trkpt lat="48.03828" lon="7.0339">
        <ele>1168.06</ele>
        <time>2018-07-08T10:07:55Z</time>
      </trkpt>
      <trkpt lat="48.03842" lon="7.03405">
        <ele>1166.2</ele>
        <time>2018-07-08T10:08:11Z</time>
      </trkpt>
      <trkpt lat="48.03852" lon="7.03418">
        <ele>1164.92</ele>
        <time>2018-07-08T10:08:21Z</time>
      </trkpt>
      <trkpt lat="48.03856" lon="7.03421">
        <ele>1164.79</ele>
        <time>2018-07-08T10:08:28Z</time>
      </trkpt>
      <trkpt lat="48.03865" lon="7.03411">
        <ele>1165.94</ele>
        <time>2018-07-08T10:08:57Z</time>
      </trkpt>
      <trkpt lat="48.03874" lon="7.03433">
        <ele>1163.6</ele>
        <time>2018-07-08T10:09:19Z</time>
      </trkpt>
      <trkpt lat="48.03888" lon="7.03444">
        <ele>1160.59</ele>
        <time>2018-07-08T10:09:36Z</time>
      </trkpt>
      <trkpt lat="48.03897" lon="7.03466">
        <ele>1159.16</ele>
        <time>2018-07-08T10:09:57Z</time>
      </trkpt>
      <trkpt lat="48.03897" lon="7.0348">
        <ele>1158.36</ele>
        <time>2018-07-08T10:10:16Z</time>
      </trkpt>
      <trkpt lat="48.03898" lon="7.03486">
        <ele>1157.48</ele>
        <time>2018-07-08T10:10:38Z</time>
      </trkpt>
      <trkpt lat="48.03901" lon="7.03499">
        <ele>1157.65</ele>
        <time>2018-07-08T10:10:46Z</time>
      </trkpt>
      <trkpt lat="48.03906" lon="7.03504">
        <ele>1158.8</ele>
        <time>2018-07-08T10:10:54Z</time>
      </trkpt>
      <trkpt lat="48.03912" lon="7.03532">
        <ele>1158.46</ele>
        <time>2018-07-08T10:11:17Z</time>
      </trkpt>
      <trkpt lat="48.03921" lon="7.03565">
        <ele>1156.33</ele>
        <time>2018-07-08T10:11:43Z</time>
      </trkpt>
      <trkpt lat="48.03932" lon="7.03583">
        <ele>1152.98</ele>
        <time>2018-07-08T10:12:01Z</time>
      </trkpt>
      <trkpt lat="48.03941" lon="7.03592">
        <ele>1151.97</ele>
        <time>2018-07-08T10:12:10Z</time>
      </trkpt>
      <trkpt lat="48.0395" lon="7.03609">
        <ele>1150.27</ele>
        <time>2018-07-08T10:12:22Z</time>
      </trkpt>
      <trkpt lat="48.03952" lon="7.03632">
        <ele>1148.54</ele>
        <time>2018-07-08T10:12:37Z</time>
      </trkpt>
      <trkpt lat="48.03949" lon="7.0365">
        <ele>1146.72</ele>
        <time>2018-07-08T10:12:54Z</time>
      </trkpt>
      <trkpt lat="48.03938" lon="7.03669">
        <ele>1144.51</ele>
        <time>2018-07-08T10:13:14Z</time>
      </trkpt>
      <trkpt lat="48.0393" lon="7.03674">
        <ele>1142.4</ele>
        <time>2018-07-08T10:13:31Z</time>
      </trkpt>
      <trkpt lat="48.03925" lon="7.03679">
        <ele>1141.81</ele>
        <time>2018-07-08T10:13:35Z</time>
      </trkpt>
      <trkpt lat="48.03922" lon="7.03682">
        <ele>1141.37</ele>
        <time>2018-07-08T10:13:38Z</time>
      </trkpt>
      <trkpt lat="48.0391" lon="7.03692">
        <ele>1139.79</ele>
        <time>2018-07-08T10:13:56Z</time>
      </trkpt>
      <trkpt lat="48.03909" lon="7.03693">
        <ele>1139.86</ele>
        <time>2018-07-08T10:13:58Z</time>
      </trkpt>
      <trkpt lat="48.03899" lon="7.03707">
        <ele>1137.57</ele>
        <time>2018-07-08T10:14:21Z</time>
      </trkpt>
      <trkpt lat="48.03889" lon="7.03716">
        <ele>1134.89</ele>
        <time>2018-07-08T10:14:40Z</time>
      </trkpt>
      <trkpt lat="48.03883" lon="7.03725">
        <ele>1132.24</ele>
        <time>2018-07-08T10:14:58Z</time>
      </trkpt>
      <trkpt lat="48.03874" lon="7.03737">
        <ele>1131.35</ele>
        <time>2018-07-08T10:15:17Z</time>
      </trkpt>
      <trkpt lat="48.03863" lon="7.03756">
        <ele>1128.29</ele>
        <time>2018-07-08T10:15:34Z</time>
      </trkpt>
      <trkpt lat="48.03861" lon="7.03765">
        <ele>1127.5</ele>
        <time>2018-07-08T10:15:41Z</time>
      </trkpt>
      <trkpt lat="48.03854" lon="7.03785">
        <ele>1125.62</ele>
        <time>2018-07-08T10:15:56Z</time>
      </trkpt>
      <trkpt lat="48.03846" lon="7.03809">
        <ele>1125.52</ele>
        <time>2018-07-08T10:16:18Z</time>
      </trkpt>
      <trkpt lat="48.03846" lon="7.0381">
        <ele>1125.06</ele>
        <time>2018-07-08T10:16:20Z</time>
      </trkpt>
      <trkpt lat="48.03838" lon="7.03814">
        <ele>1124.42</ele>
        <time>2018-07-08T10:16:51Z</time>
      </trkpt>
      <trkpt lat="48.03838" lon="7.03816">
        <ele>1124.44</ele>
        <time>2018-07-08T10:17:04Z</time>
      </trkpt>
      <trkpt lat="48.0384" lon="7.03816">
        <ele>1124.7</ele>
        <time>2018-07-08T10:17:25Z</time>
      </trkpt>
      <trkpt lat="48.03837" lon="7.03823">
        <ele>1123.81</ele>
        <time>2018-07-08T10:17:53Z</time>
      </trkpt>
      <trkpt lat="48.03834" lon="7.0385">
        <ele>1121.03</ele>
        <time>2018-07-08T10:18:17Z</time>
      </trkpt>
      <trkpt lat="48.03835" lon="7.03855">
        <ele>1120.7</ele>
        <time>2018-07-08T10:18:23Z</time>
      </trkpt>
      <trkpt lat="48.03837" lon="7.03868">
        <ele>1117.32</ele>
        <time>2018-07-08T10:18:38Z</time>
      </trkpt>
      <trkpt lat="48.03835" lon="7.03895">
        <ele>1114.23</ele>
        <time>2018-07-08T10:19:01Z</time>
      </trkpt>
      <trkpt lat="48.03832" lon="7.03908">
        <ele>1113.55</ele>
        <time>2018-07-08T10:19:10Z</time>
      </trkpt>
      <trkpt lat="48.03827" lon="7.03937">
        <ele>1112.25</ele>
        <time>2018-07-08T10:19:27Z</time>
      </trkpt>
      <trkpt lat="48.03818" lon="7.03963">
        <ele>1108.97</ele>
        <time>2018-07-08T10:19:48Z</time>
      </trkpt>
      <trkpt lat="48.03817" lon="7.03966">
        <ele>1108.12</ele>
        <time>2018-07-08T10:19:50Z</time>
      </trkpt>
      <trkpt lat="48.03814" lon="7.03972">
        <ele>1108.09</ele>
        <time>2018-07-08T10:19:55Z</time>
      </trkpt>
      <trkpt lat="48.03799" lon="7.03985">
        <ele>1104.53</ele>
        <time>2018-07-08T10:20:16Z</time>
      </trkpt>
      <trkpt lat="48.03791" lon="7.0399">
        <ele>1103.11</ele>
        <time>2018-07-08T10:20:36Z</time>
      </trkpt>
      <trkpt lat="48.03782" lon="7.0399">
        <ele>1103.59</ele>
        <time>2018-07-08T10:20:51Z</time>
      </trkpt>
      <trkpt lat="48.03774" lon="7.03977">
        <ele>1100.99</ele>
        <time>2018-07-08T10:21:14Z</time>
      </trkpt>
      <trkpt lat="48.0375" lon="7.03959">
        <ele>1100.73</ele>
        <time>2018-07-08T10:21:35Z</time>
      </trkpt>
      <trkpt lat="48.03735" lon="7.03948">
        <ele>1102.82</ele>
        <time>2018-07-08T10:21:54Z</time>
      </trkpt>
      <trkpt lat="48.03721" lon="7.03938">
        <ele>1102.8</ele>
        <time>2018-07-08T10:22:13Z</time>
      </trkpt>
      <trkpt lat="48.03711" lon="7.03944">
        <ele>1106.11</ele>
        <time>2018-07-08T10:22:22Z</time>
      </trkpt>
      <trkpt lat="48.03699" lon="7.03943">
        <ele>1107.97</ele>
        <time>2018-07-08T10:22:44Z</time>
      </trkpt>
      <trkpt lat="48.03692" lon="7.03939">
        <ele>1111.18</ele>
        <time>2018-07-08T10:23:00Z</time>
      </trkpt>
      <trkpt lat="48.03679" lon="7.03929">
        <ele>1111.57</ele>
        <time>2018-07-08T10:23:24Z</time>
      </trkpt>
      <trkpt lat="48.03664" lon="7.03926">
        <ele>1114.74</ele>
        <time>2018-07-08T10:23:48Z</time>
      </trkpt>
      <trkpt lat="48.03657" lon="7.03917">
        <ele>1117.96</ele>
        <time>2018-07-08T10:24:11Z</time>
      </trkpt>
      <trkpt lat="48.03647" lon="7.03927">
        <ele>1118.28</ele>
        <time>2018-07-08T10:24:32Z</time>
      </trkpt>
      <trkpt lat="48.03644" lon="7.03937">
        <ele>1117.97</ele>
        <time>2018-07-08T10:24:39Z</time>
      </trkpt>
      <trkpt lat="48.03644" lon="7.0395">
        <ele>1117.19</ele>
        <time>2018-07-08T10:24:49Z</time>
      </trkpt>
      <trkpt lat="48.03628" lon="7.03959">
        <ele>1117.8</ele>
        <time>2018-07-08T10:25:02Z</time>
      </trkpt>
      <trkpt lat="48.03614" lon="7.03958">
        <ele>1118.98</ele>
        <time>2018-07-08T10:25:20Z</time>
      </trkpt>
      <trkpt lat="48.03596" lon="7.03964">
        <ele>1119.1</ele>
        <time>2018-07-08T10:25:41Z</time>
      </trkpt>
      <trkpt lat="48.03585" lon="7.03971">
        <ele>1122.69</ele>
        <time>2018-07-08T10:25:59Z</time>
      </trkpt>
      <trkpt lat="48.03574" lon="7.03984">
        <ele>1124.09</ele>
        <time>2018-07-08T10:26:20Z</time>
      </trkpt>
      <trkpt lat="48.03561" lon="7.03999">
        <ele>1124.86</ele>
        <time>2018-07-08T10:26:40Z</time>
      </trkpt>
      <trkpt lat="48.0355" lon="7.04003">
        <ele>1130.91</ele>
        <time>2018-07-08T10:27:01Z</time>
      </trkpt>
      <trkpt lat="48.0355" lon="7.04004">
        <ele>1127.77</ele>
        <time>2018-07-08T10:27:02Z</time>
      </trkpt>
      <trkpt lat="48.03548" lon="7.04006">
        <ele>1127.41</ele>
        <time>2018-07-08T10:27:06Z</time>
      </trkpt>
      <trkpt lat="48.03527" lon="7.0401">
        <ele>1128.98</ele>
        <time>2018-07-08T10:27:29Z</time>
      </trkpt>
      <trkpt lat="48.03511" lon="7.0401">
        <ele>1129.43</ele>
        <time>2018-07-08T10:27:45Z</time>
      </trkpt>
      <trkpt lat="48.03495" lon="7.04011">
        <ele>1130.16</ele>
        <time>2018-07-08T10:28:06Z</time>
      </trkpt>
      <trkpt lat="48.03479" lon="7.04001">
        <ele>1131.04</ele>
        <time>2018-07-08T10:28:22Z</time>
      </trkpt>
      <trkpt lat="48.03458" lon="7.04004">
        <ele>1130.62</ele>
        <time>2018-07-08T10:28:44Z</time>
      </trkpt>
      <trkpt lat="48.03452" lon="7.04014">
        <ele>1126.43</ele>
        <time>2018-07-08T10:29:02Z</time>
      </trkpt>
      <trkpt lat="48.03452" lon="7.04015">
        <ele>1130.29</ele>
        <time>2018-07-08T10:29:04Z</time>
      </trkpt>
      <trkpt lat="48.03453" lon="7.04016">
        <ele>1127.04</ele>
        <time>2018-07-08T10:29:15Z</time>
      </trkpt>
      <trkpt lat="48.03444" lon="7.04012">
        <ele>1127.74</ele>
        <time>2018-07-08T10:30:35Z</time>
      </trkpt>
      <trkpt lat="48.03449" lon="7.04012">
        <ele>1128.46</ele>
        <time>2018-07-08T10:31:05Z</time>
      </trkpt>
      <trkpt lat="48.03444" lon="7.04022">
        <ele>1127.96</ele>
        <time>2018-07-08T10:32:43Z</time>
      </trkpt>
      <trkpt lat="48.03444" lon="7.04017">
        <ele>1127.53</ele>
        <time>2018-07-08T10:32:49Z</time>
      </trkpt>
      <trkpt lat="48.0345" lon="7.04026">
        <ele>1123.9</ele>
        <time>2018-07-08T10:34:28Z</time>
      </trkpt>
      <trkpt lat="48.0345" lon="7.04027">
        <ele>1127.95</ele>
        <time>2018-07-08T10:34:29Z</time>
      </trkpt>
      <trkpt lat="48.03454" lon="7.04028">
        <ele>1127.3</ele>
        <time>2018-07-08T10:34:33Z</time>
      </trkpt>
      <trkpt lat="48.03451" lon="7.04026">
        <ele>1127</ele>
        <time>2018-07-08T10:35:07Z</time>
      </trkpt>
      <trkpt lat="48.0346" lon="7.04045">
        <ele>1118.83</ele>
        <time>2018-07-08T10:35:45Z</time>
      </trkpt>
      <trkpt lat="48.0346" lon="7.04045">
        <ele>1135.19</ele>
        <time>2018-07-08T10:35:46Z</time>
      </trkpt>
      <trkpt lat="48.03452" lon="7.04023">
        <ele>1127.81</ele>
        <time>2018-07-08T10:35:47Z</time>
      </trkpt>
      <trkpt lat="48.03456" lon="7.04015">
        <ele>1127.53</ele>
        <time>2018-07-08T10:35:50Z</time>
      </trkpt>
      <trkpt lat="48.0346" lon="7.04017">
        <ele>1126.85</ele>
        <time>2018-07-08T10:36:03Z</time>
      </trkpt>
      <trkpt lat="48.03454" lon="7.04013">
        <ele>1126.73</ele>
        <time>2018-07-08T10:36:21Z</time>
      </trkpt>
      <trkpt lat="48.03447" lon="7.04017">
        <ele>1126.68</ele>
        <time>2018-07-08T10:36:47Z</time>
      </trkpt>
      <trkpt lat="48.03447" lon="7.04014">
        <ele>1129.76</ele>
        <time>2018-07-08T10:37:03Z</time>
      </trkpt>
      <trkpt lat="48.03447" lon="7.04014">
        <ele>1127.82</ele>
        <time>2018-07-08T10:37:04Z</time>
      </trkpt>
      <trkpt lat="48.03447" lon="7.04015">
        <ele>1126.84</ele>
        <time>2018-07-08T10:37:06Z</time>
      </trkpt>
      <trkpt lat="48.03449" lon="7.04021">
        <ele>1128.07</ele>
        <time>2018-07-08T10:37:45Z</time>
      </trkpt>
      <trkpt lat="48.03449" lon="7.0402">
        <ele>1127.08</ele>
        <time>2018-07-08T10:37:47Z</time>
      </trkpt>
      <trkpt lat="48.03448" lon="7.04016">
        <ele>1126.58</ele>
        <time>2018-07-08T10:37:56Z</time>
      </trkpt>
      <trkpt lat="48.03447" lon="7.04007">
        <ele>1127.24</ele>
        <time>2018-07-08T11:07:18Z</time>
      </trkpt>
      <trkpt lat="48.03451" lon="7.04016">
        <ele>1128.3</ele>
        <time>2018-07-08T11:07:33Z</time>
      </trkpt>
      <trkpt lat="48.03451" lon="7.04018">
        <ele>1131.58</ele>
        <time>2018-07-08T11:07:44Z</time>
      </trkpt>
      <trkpt lat="48.03452" lon="7.04016">
        <ele>1134.74</ele>
        <time>2018-07-08T11:07:54Z</time>
      </trkpt>
      <trkpt lat="48.03452" lon="7.04017">
        <ele>1140.71</ele>
        <time>2018-07-08T11:08:09Z</time>
      </trkpt>
      <trkpt lat="48.03453" lon="7.04017">
        <ele>1136.32</ele>
        <time>2018-07-08T11:08:10Z</time>
      </trkpt>
      <trkpt lat="48.03453" lon="7.04016">
        <ele>1136.09</ele>
        <time>2018-07-08T11:08:33Z</time>
      </trkpt>
      <trkpt lat="48.03452" lon="7.04018">
        <ele>1137.21</ele>
        <time>2018-07-08T11:08:38Z</time>
      </trkpt>
      <trkpt lat="48.03451" lon="7.04019">
        <ele>1135.91</ele>
        <time>2018-07-08T11:08:56Z</time>
      </trkpt>
      <trkpt lat="48.03451" lon="7.04015">
        <ele>1135.38</ele>
        <time>2018-07-08T11:09:23Z</time>
      </trkpt>
      <trkpt lat="48.0345" lon="7.04013">
        <ele>1135.35</ele>
        <time>2018-07-08T11:09:52Z</time>
      </trkpt>
      <trkpt lat="48.0345" lon="7.04011">
        <ele>1135.51</ele>
        <time>2018-07-08T11:10:22Z</time>
      </trkpt>
      <trkpt lat="48.03449" lon="7.04007">
        <ele>1135.67</ele>
        <time>2018-07-08T11:10:41Z</time>
      </trkpt>
      <trkpt lat="48.03445" lon="7.04003">
        <ele>1136.35</ele>
        <time>2018-07-08T11:10:58Z</time>
      </trkpt>
      <trkpt lat="48.03442" lon="7.03999">
        <ele>1137.81</ele>
        <time>2018-07-08T11:11:16Z</time>
      </trkpt>
      <trkpt lat="48.03438" lon="7.03995">
        <ele>1138.14</ele>
        <time>2018-07-08T11:11:35Z</time>
      </trkpt>
      <trkpt lat="48.03436" lon="7.03994">
        <ele>1138.34</ele>
        <time>2018-07-08T11:11:59Z</time>
      </trkpt>
      <trkpt lat="48.03435" lon="7.03994">
        <ele>1137.86</ele>
        <time>2018-07-08T11:12:25Z</time>
      </trkpt>
      <trkpt lat="48.03432" lon="7.03993">
        <ele>1138.51</ele>
        <time>2018-07-08T11:12:47Z</time>
      </trkpt>
      <trkpt lat="48.03422" lon="7.03989">
        <ele>1136.84</ele>
        <time>2018-07-08T11:13:01Z</time>
      </trkpt>
      <trkpt lat="48.03418" lon="7.03988">
        <ele>1136.48</ele>
        <time>2018-07-08T11:13:05Z</time>
      </trkpt>
      <trkpt lat="48.03402" lon="7.03985">
        <ele>1136.46</ele>
        <time>2018-07-08T11:13:24Z</time>
      </trkpt>
      <trkpt lat="48.034" lon="7.03985">
        <ele>1136.72</ele>
        <time>2018-07-08T11:13:26Z</time>
      </trkpt>
      <trkpt lat="48.03395" lon="7.03983">
        <ele>1136.28</ele>
        <time>2018-07-08T11:13:31Z</time>
      </trkpt>
      <trkpt lat="48.03388" lon="7.03978">
        <ele>1137.38</ele>
        <time>2018-07-08T11:13:41Z</time>
      </trkpt>
      <trkpt lat="48.03382" lon="7.03973">
        <ele>1137.89</ele>
        <time>2018-07-08T11:13:47Z</time>
      </trkpt>
      <trkpt lat="48.03363" lon="7.03964">
        <ele>1137.94</ele>
        <time>2018-07-08T11:14:08Z</time>
      </trkpt>
      <trkpt lat="48.03351" lon="7.03959">
        <ele>1137.34</ele>
        <time>2018-07-08T11:14:31Z</time>
      </trkpt>
      <trkpt lat="48.03344" lon="7.03952">
        <ele>1137.57</ele>
        <time>2018-07-08T11:14:40Z</time>
      </trkpt>
      <trkpt lat="48.03328" lon="7.03942">
        <ele>1137.43</ele>
        <time>2018-07-08T11:14:56Z</time>
      </trkpt>
      <trkpt lat="48.03309" lon="7.03932">
        <ele>1137.2</ele>
        <time>2018-07-08T11:15:16Z</time>
      </trkpt>
      <trkpt lat="48.03304" lon="7.03929">
        <ele>1138.2</ele>
        <time>2018-07-08T11:15:22Z</time>
      </trkpt>
      <trkpt lat="48.033" lon="7.03924">
        <ele>1137.97</ele>
        <time>2018-07-08T11:15:28Z</time>
      </trkpt>
      <trkpt lat="48.03282" lon="7.0391">
        <ele>1138.94</ele>
        <time>2018-07-08T11:15:47Z</time>
      </trkpt>
      <trkpt lat="48.03269" lon="7.03898">
        <ele>1139.38</ele>
        <time>2018-07-08T11:16:04Z</time>
      </trkpt>
      <trkpt lat="48.03259" lon="7.03888">
        <ele>1139.15</ele>
        <time>2018-07-08T11:16:17Z</time>
      </trkpt>
      <trkpt lat="48.03249" lon="7.03871">
        <ele>1139.61</ele>
        <time>2018-07-08T11:16:35Z</time>
      </trkpt>
      <trkpt lat="48.03248" lon="7.0387">
        <ele>1139.03</ele>
        <time>2018-07-08T11:16:52Z</time>
      </trkpt>
      <trkpt lat="48.03247" lon="7.03867">
        <ele>1140.27</ele>
        <time>2018-07-08T11:16:54Z</time>
      </trkpt>
      <trkpt lat="48.03243" lon="7.03851">
        <ele>1139.45</ele>
        <time>2018-07-08T11:17:08Z</time>
      </trkpt>
      <trkpt lat="48.0324" lon="7.03846">
        <ele>1140.48</ele>
        <time>2018-07-08T11:17:13Z</time>
      </trkpt>
      <trkpt lat="48.03232" lon="7.03829">
        <ele>1140.41</ele>
        <time>2018-07-08T11:17:28Z</time>
      </trkpt>
      <trkpt lat="48.03224" lon="7.03803">
        <ele>1140.69</ele>
        <time>2018-07-08T11:17:47Z</time>
      </trkpt>
      <trkpt lat="48.03219" lon="7.03786">
        <ele>1140.83</ele>
        <time>2018-07-08T11:18:01Z</time>
      </trkpt>
      <trkpt lat="48.03213" lon="7.03767">
        <ele>1141.82</ele>
        <time>2018-07-08T11:18:18Z</time>
      </trkpt>
      <trkpt lat="48.0321" lon="7.03759">
        <ele>1142.25</ele>
        <time>2018-07-08T11:18:24Z</time>
      </trkpt>
      <trkpt lat="48.03203" lon="7.03736">
        <ele>1142</ele>
        <time>2018-07-08T11:18:42Z</time>
      </trkpt>
      <trkpt lat="48.03198" lon="7.03728">
        <ele>1142.34</ele>
        <time>2018-07-08T11:18:52Z</time>
      </trkpt>
      <trkpt lat="48.03195" lon="7.03724">
        <ele>1141.83</ele>
        <time>2018-07-08T11:18:56Z</time>
      </trkpt>
      <trkpt lat="48.03183" lon="7.03703">
        <ele>1142.95</ele>
        <time>2018-07-08T11:19:17Z</time>
      </trkpt>
      <trkpt lat="48.0318" lon="7.03699">
        <ele>1143.56</ele>
        <time>2018-07-08T11:19:22Z</time>
      </trkpt>
      <trkpt lat="48.03173" lon="7.03691">
        <ele>1143.52</ele>
        <time>2018-07-08T11:19:31Z</time>
      </trkpt>
      <trkpt lat="48.03162" lon="7.03678">
        <ele>1143.39</ele>
        <time>2018-07-08T11:19:47Z</time>
      </trkpt>
      <trkpt lat="48.03155" lon="7.03666">
        <ele>1143.55</ele>
        <time>2018-07-08T11:20:01Z</time>
      </trkpt>
      <trkpt lat="48.03152" lon="7.03662">
        <ele>1143.11</ele>
        <time>2018-07-08T11:20:05Z</time>
      </trkpt>
      <trkpt lat="48.03149" lon="7.03659">
        <ele>1142.9</ele>
        <time>2018-07-08T11:20:08Z</time>
      </trkpt>
      <trkpt lat="48.03142" lon="7.03649">
        <ele>1142.7</ele>
        <time>2018-07-08T11:20:20Z</time>
      </trkpt>
      <trkpt lat="48.03136" lon="7.03644">
        <ele>1142.13</ele>
        <time>2018-07-08T11:20:26Z</time>
      </trkpt>
      <trkpt lat="48.03134" lon="7.0364">
        <ele>1141.87</ele>
        <time>2018-07-08T11:20:30Z</time>
      </trkpt>
      <trkpt lat="48.03122" lon="7.03623">
        <ele>1142.37</ele>
        <time>2018-07-08T11:20:49Z</time>
      </trkpt>
      <trkpt lat="48.03114" lon="7.03608">
        <ele>1143.53</ele>
        <time>2018-07-08T11:21:04Z</time>
      </trkpt>
      <trkpt lat="48.03113" lon="7.03608">
        <ele>1142.98</ele>
        <time>2018-07-08T11:21:05Z</time>
      </trkpt>
      <trkpt lat="48.03105" lon="7.03594">
        <ele>1144.41</ele>
        <time>2018-07-08T11:21:19Z</time>
      </trkpt>
      <trkpt lat="48.03088" lon="7.03577">
        <ele>1143.72</ele>
        <time>2018-07-08T11:21:38Z</time>
      </trkpt>
      <trkpt lat="48.03073" lon="7.03563">
        <ele>1143.24</ele>
        <time>2018-07-08T11:21:55Z</time>
      </trkpt>
      <trkpt lat="48.03067" lon="7.03552">
        <ele>1144.75</ele>
        <time>2018-07-08T11:22:10Z</time>
      </trkpt>
      <trkpt lat="48.03062" lon="7.03551">
        <ele>1143.96</ele>
        <time>2018-07-08T11:22:18Z</time>
      </trkpt>
      <trkpt lat="48.03057" lon="7.03547">
        <ele>1144.14</ele>
        <time>2018-07-08T11:22:23Z</time>
      </trkpt>
      <trkpt lat="48.03044" lon="7.03531">
        <ele>1143.1</ele>
        <time>2018-07-08T11:22:41Z</time>
      </trkpt>
      <trkpt lat="48.03033" lon="7.03517">
        <ele>1143.18</ele>
        <time>2018-07-08T11:22:58Z</time>
      </trkpt>
      <trkpt lat="48.03028" lon="7.03514">
        <ele>1141.89</ele>
        <time>2018-07-08T11:23:08Z</time>
      </trkpt>
      <trkpt lat="48.03026" lon="7.03512">
        <ele>1141.65</ele>
        <time>2018-07-08T11:23:10Z</time>
      </trkpt>
      <trkpt lat="48.03016" lon="7.03498">
        <ele>1141.84</ele>
        <time>2018-07-08T11:23:25Z</time>
      </trkpt>
      <trkpt lat="48.03008" lon="7.03486">
        <ele>1141.79</ele>
        <time>2018-07-08T11:23:41Z</time>
      </trkpt>
      <trkpt lat="48.02997" lon="7.03472">
        <ele>1140.85</ele>
        <time>2018-07-08T11:23:59Z</time>
      </trkpt>
      <trkpt lat="48.02985" lon="7.0345">
        <ele>1140.22</ele>
        <time>2018-07-08T11:24:19Z</time>
      </trkpt>
      <trkpt lat="48.02976" lon="7.03433">
        <ele>1139.99</ele>
        <time>2018-07-08T11:24:36Z</time>
      </trkpt>
      <trkpt lat="48.02968" lon="7.03411">
        <ele>1140.59</ele>
        <time>2018-07-08T11:24:55Z</time>
      </trkpt>
      <trkpt lat="48.02971" lon="7.03395">
        <ele>1142.46</ele>
        <time>2018-07-08T11:25:12Z</time>
      </trkpt>
      <trkpt lat="48.02975" lon="7.03386">
        <ele>1144.28</ele>
        <time>2018-07-08T11:25:28Z</time>
      </trkpt>
      <trkpt lat="48.02964" lon="7.03366">
        <ele>1142.68</ele>
        <time>2018-07-08T11:25:48Z</time>
      </trkpt>
      <trkpt lat="48.02954" lon="7.03352">
        <ele>1141.28</ele>
        <time>2018-07-08T11:26:04Z</time>
      </trkpt>
      <trkpt lat="48.02946" lon="7.03333">
        <ele>1140.08</ele>
        <time>2018-07-08T11:26:22Z</time>
      </trkpt>
      <trkpt lat="48.02941" lon="7.03323">
        <ele>1139.86</ele>
        <time>2018-07-08T11:26:40Z</time>
      </trkpt>
      <trkpt lat="48.0294" lon="7.03324">
        <ele>1140.04</ele>
        <time>2018-07-08T11:27:07Z</time>
      </trkpt>
      <trkpt lat="48.0294" lon="7.03322">
        <ele>1140.1</ele>
        <time>2018-07-08T11:27:33Z</time>
      </trkpt>
      <trkpt lat="48.02941" lon="7.03323">
        <ele>1140.12</ele>
        <time>2018-07-08T11:27:54Z</time>
      </trkpt>
      <trkpt lat="48.02943" lon="7.0332">
        <ele>1140.15</ele>
        <time>2018-07-08T11:28:14Z</time>
      </trkpt>
      <trkpt lat="48.02947" lon="7.0332">
        <ele>1140.48</ele>
        <time>2018-07-08T11:28:35Z</time>
      </trkpt>
      <trkpt lat="48.02946" lon="7.03323">
        <ele>1140.51</ele>
        <time>2018-07-08T11:29:00Z</time>
      </trkpt>
      <trkpt lat="48.02948" lon="7.03323">
        <ele>1140.81</ele>
        <time>2018-07-08T11:29:28Z</time>
      </trkpt>
      <trkpt lat="48.02949" lon="7.03321">
        <ele>1140.56</ele>
        <time>2018-07-08T11:29:55Z</time>
      </trkpt>
      <trkpt lat="48.02948" lon="7.03322">
        <ele>1140.65</ele>
        <time>2018-07-08T11:30:18Z</time>
      </trkpt>
      <trkpt lat="48.02947" lon="7.03324">
        <ele>1140.46</ele>
        <time>2018-07-08T11:30:38Z</time>
      </trkpt>
      <trkpt lat="48.02948" lon="7.03326">
        <ele>1140.35</ele>
        <time>2018-07-08T11:31:05Z</time>
      </trkpt>
      <trkpt lat="48.02949" lon="7.03327">
        <ele>1140.69</ele>
        <time>2018-07-08T11:31:30Z</time>
      </trkpt>
      <trkpt lat="48.02946" lon="7.03327">
        <ele>1140.77</ele>
        <time>2018-07-08T11:31:58Z</time>
      </trkpt>
      <trkpt lat="48.02944" lon="7.03324">
        <ele>1140.94</ele>
        <time>2018-07-08T11:32:25Z</time>
      </trkpt>
      <trkpt lat="48.02942" lon="7.03319">
        <ele>1140.69</ele>
        <time>2018-07-08T11:32:42Z</time>
      </trkpt>
      <trkpt lat="48.02944" lon="7.03322">
        <ele>1140.82</ele>
        <time>2018-07-08T11:33:03Z</time>
      </trkpt>
      <trkpt lat="48.02947" lon="7.03322">
        <ele>1140.95</ele>
        <time>2018-07-08T11:33:33Z</time>
      </trkpt>
      <trkpt lat="48.02948" lon="7.03322">
        <ele>1140.78</ele>
        <time>2018-07-08T11:34:02Z</time>
      </trkpt>
      <trkpt lat="48.02948" lon="7.03323">
        <ele>1140.58</ele>
        <time>2018-07-08T11:34:34Z</time>
      </trkpt>
      <trkpt lat="48.02947" lon="7.03324">
        <ele>1140.54</ele>
        <time>2018-07-08T11:35:01Z</time>
      </trkpt>
      <trkpt lat="48.02948" lon="7.03323">
        <ele>1140.76</ele>
        <time>2018-07-08T11:35:25Z</time>
      </trkpt>
      <trkpt lat="48.02945" lon="7.0332">
        <ele>1141.08</ele>
        <time>2018-07-08T11:35:46Z</time>
      </trkpt>
      <trkpt lat="48.02946" lon="7.03324">
        <ele>1141.18</ele>
        <time>2018-07-08T11:36:04Z</time>
      </trkpt>
      <trkpt lat="48.02942" lon="7.03323">
        <ele>1140.19</ele>
        <time>2018-07-08T11:36:26Z</time>
      </trkpt>
      <trkpt lat="48.02937" lon="7.03322">
        <ele>1139.2</ele>
        <time>2018-07-08T11:36:43Z</time>
      </trkpt>
      <trkpt lat="48.02933" lon="7.03318">
        <ele>1138.06</ele>
        <time>2018-07-08T11:36:51Z</time>
      </trkpt>
      <trkpt lat="48.02927" lon="7.03305">
        <ele>1138.01</ele>
        <time>2018-07-08T11:37:05Z</time>
      </trkpt>
      <trkpt lat="48.02924" lon="7.03301">
        <ele>1136.91</ele>
        <time>2018-07-08T11:37:16Z</time>
      </trkpt>
      <trkpt lat="48.0292" lon="7.03297">
        <ele>1136.51</ele>
        <time>2018-07-08T11:37:21Z</time>
      </trkpt>
      <trkpt lat="48.02913" lon="7.0329">
        <ele>1134.9</ele>
        <time>2018-07-08T11:37:33Z</time>
      </trkpt>
      <trkpt lat="48.02909" lon="7.03281">
        <ele>1133.36</ele>
        <time>2018-07-08T11:37:42Z</time>
      </trkpt>
      <trkpt lat="48.02909" lon="7.03273">
        <ele>1132.3</ele>
        <time>2018-07-08T11:37:48Z</time>
      </trkpt>
      <trkpt lat="48.02913" lon="7.03265">
        <ele>1131.81</ele>
        <time>2018-07-08T11:37:53Z</time>
      </trkpt>
      <trkpt lat="48.02916" lon="7.03257">
        <ele>1131.49</ele>
        <time>2018-07-08T11:37:58Z</time>
      </trkpt>
      <trkpt lat="48.02927" lon="7.03242">
        <ele>1131.2</ele>
        <time>2018-07-08T11:38:15Z</time>
      </trkpt>
      <trkpt lat="48.02932" lon="7.03232">
        <ele>1130.04</ele>
        <time>2018-07-08T11:38:26Z</time>
      </trkpt>
      <trkpt lat="48.02934" lon="7.03229">
        <ele>1129.56</ele>
        <time>2018-07-08T11:38:29Z</time>
      </trkpt>
      <trkpt lat="48.02936" lon="7.03226">
        <ele>1128.26</ele>
        <time>2018-07-08T11:38:32Z</time>
      </trkpt>
      <trkpt lat="48.02944" lon="7.03212">
        <ele>1126.91</ele>
        <time>2018-07-08T11:38:46Z</time>
      </trkpt>
      <trkpt lat="48.02948" lon="7.0321">
        <ele>1126.41</ele>
        <time>2018-07-08T11:38:51Z</time>
      </trkpt>
      <trkpt lat="48.02957" lon="7.03204">
        <ele>1124.93</ele>
        <time>2018-07-08T11:39:09Z</time>
      </trkpt>
      <trkpt lat="48.02963" lon="7.03198">
        <ele>1123.66</ele>
        <time>2018-07-08T11:39:33Z</time>
      </trkpt>
      <trkpt lat="48.02969" lon="7.0319">
        <ele>1123.08</ele>
        <time>2018-07-08T11:39:44Z</time>
      </trkpt>
      <trkpt lat="48.02977" lon="7.03181">
        <ele>1121.18</ele>
        <time>2018-07-08T11:39:54Z</time>
      </trkpt>
      <trkpt lat="48.02991" lon="7.03166">
        <ele>1119.84</ele>
        <time>2018-07-08T11:40:10Z</time>
      </trkpt>
      <trkpt lat="48.02995" lon="7.03161">
        <ele>1119.02</ele>
        <time>2018-07-08T11:40:17Z</time>
      </trkpt>
      <trkpt lat="48.02998" lon="7.03159">
        <ele>1119.18</ele>
        <time>2018-07-08T11:40:19Z</time>
      </trkpt>
      <trkpt lat="48.03011" lon="7.03144">
        <ele>1116.45</ele>
        <time>2018-07-08T11:40:36Z</time>
      </trkpt>
      <trkpt lat="48.03015" lon="7.03138">
        <ele>1116.03</ele>
        <time>2018-07-08T11:40:42Z</time>
      </trkpt>
      <trkpt lat="48.03027" lon="7.03125">
        <ele>1113.76</ele>
        <time>2018-07-08T11:40:58Z</time>
      </trkpt>
      <trkpt lat="48.03028" lon="7.03124">
        <ele>1113.35</ele>
        <time>2018-07-08T11:40:59Z</time>
      </trkpt>
      <trkpt lat="48.03043" lon="7.03109">
        <ele>1112.86</ele>
        <time>2018-07-08T11:41:16Z</time>
      </trkpt>
      <trkpt lat="48.03058" lon="7.03094">
        <ele>1110.61</ele>
        <time>2018-07-08T11:41:36Z</time>
      </trkpt>
      <trkpt lat="48.03072" lon="7.03076">
        <ele>1108.13</ele>
        <time>2018-07-08T11:41:58Z</time>
      </trkpt>
      <trkpt lat="48.03069" lon="7.0307">
        <ele>1105.94</ele>
        <time>2018-07-08T11:42:15Z</time>
      </trkpt>
      <trkpt lat="48.03066" lon="7.03069">
        <ele>1105.49</ele>
        <time>2018-07-08T11:42:17Z</time>
      </trkpt>
      <trkpt lat="48.03047" lon="7.03068">
        <ele>1103.55</ele>
        <time>2018-07-08T11:42:32Z</time>
      </trkpt>
      <trkpt lat="48.03038" lon="7.03068">
        <ele>1102</ele>
        <time>2018-07-08T11:42:42Z</time>
      </trkpt>
      <trkpt lat="48.03038" lon="7.03061">
        <ele>1099.71</ele>
        <time>2018-07-08T11:42:58Z</time>
      </trkpt>
      <trkpt lat="48.03044" lon="7.0305">
        <ele>1096.5</ele>
        <time>2018-07-08T11:43:16Z</time>
      </trkpt>
      <trkpt lat="48.0305" lon="7.03042">
        <ele>1095.17</ele>
        <time>2018-07-08T11:43:29Z</time>
      </trkpt>
      <trkpt lat="48.0306" lon="7.03032">
        <ele>1093.11</ele>
        <time>2018-07-08T11:43:51Z</time>
      </trkpt>
      <trkpt lat="48.03068" lon="7.03017">
        <ele>1090.38</ele>
        <time>2018-07-08T11:44:14Z</time>
      </trkpt>
      <trkpt lat="48.03073" lon="7.03014">
        <ele>1089.44</ele>
        <time>2018-07-08T11:44:25Z</time>
      </trkpt>
      <trkpt lat="48.03082" lon="7.03009">
        <ele>1088.03</ele>
        <time>2018-07-08T11:44:39Z</time>
      </trkpt>
      <trkpt lat="48.03072" lon="7.03004">
        <ele>1085.03</ele>
        <time>2018-07-08T11:45:00Z</time>
      </trkpt>
      <trkpt lat="48.03057" lon="7.03005">
        <ele>1083.25</ele>
        <time>2018-07-08T11:45:20Z</time>
      </trkpt>
      <trkpt lat="48.03041" lon="7.03011">
        <ele>1079.78</ele>
        <time>2018-07-08T11:45:39Z</time>
      </trkpt>
      <trkpt lat="48.03025" lon="7.03014">
        <ele>1077.96</ele>
        <time>2018-07-08T11:46:00Z</time>
      </trkpt>
      <trkpt lat="48.03014" lon="7.03019">
        <ele>1075.58</ele>
        <time>2018-07-08T11:46:20Z</time>
      </trkpt>
      <trkpt lat="48.03011" lon="7.03008">
        <ele>1073.85</ele>
        <time>2018-07-08T11:46:38Z</time>
      </trkpt>
      <trkpt lat="48.03022" lon="7.02991">
        <ele>1070.54</ele>
        <time>2018-07-08T11:46:58Z</time>
      </trkpt>
      <trkpt lat="48.03028" lon="7.02988">
        <ele>1070.67</ele>
        <time>2018-07-08T11:47:12Z</time>
      </trkpt>
      <trkpt lat="48.0304" lon="7.02984">
        <ele>1070.65</ele>
        <time>2018-07-08T11:47:35Z</time>
      </trkpt>
      <trkpt lat="48.03042" lon="7.02981">
        <ele>1070.37</ele>
        <time>2018-07-08T11:47:41Z</time>
      </trkpt>
      <trkpt lat="48.03047" lon="7.02969">
        <ele>1068.55</ele>
        <time>2018-07-08T11:47:58Z</time>
      </trkpt>
      <trkpt lat="48.03061" lon="7.02962">
        <ele>1068.3</ele>
        <time>2018-07-08T11:48:16Z</time>
      </trkpt>
      <trkpt lat="48.03071" lon="7.0295">
        <ele>1065.32</ele>
        <time>2018-07-08T11:48:32Z</time>
      </trkpt>
      <trkpt lat="48.03079" lon="7.02947">
        <ele>1064.64</ele>
        <time>2018-07-08T11:48:39Z</time>
      </trkpt>
      <trkpt lat="48.03086" lon="7.02942">
        <ele>1063.92</ele>
        <time>2018-07-08T11:48:47Z</time>
      </trkpt>
      <trkpt lat="48.03088" lon="7.02937">
        <ele>1063.34</ele>
        <time>2018-07-08T11:48:52Z</time>
      </trkpt>
      <trkpt lat="48.03094" lon="7.02932">
        <ele>1062.76</ele>
        <time>2018-07-08T11:48:57Z</time>
      </trkpt>
      <trkpt lat="48.03099" lon="7.02929">
        <ele>1062.41</ele>
        <time>2018-07-08T11:49:02Z</time>
      </trkpt>
      <trkpt lat="48.031" lon="7.02929">
        <ele>1062.17</ele>
        <time>2018-07-08T11:49:04Z</time>
      </trkpt>
      <trkpt lat="48.03098" lon="7.02927">
        <ele>1058.99</ele>
        <time>2018-07-08T11:49:23Z</time>
      </trkpt>
      <trkpt lat="48.03091" lon="7.02928">
        <ele>1058.15</ele>
        <time>2018-07-08T11:49:31Z</time>
      </trkpt>
      <trkpt lat="48.03088" lon="7.02928">
        <ele>1057.53</ele>
        <time>2018-07-08T11:49:35Z</time>
      </trkpt>
      <trkpt lat="48.03071" lon="7.02923">
        <ele>1054.71</ele>
        <time>2018-07-08T11:49:54Z</time>
      </trkpt>
      <trkpt lat="48.03057" lon="7.02921">
        <ele>1052.04</ele>
        <time>2018-07-08T11:50:12Z</time>
      </trkpt>
      <trkpt lat="48.03041" lon="7.02922">
        <ele>1050.27</ele>
        <time>2018-07-08T11:50:28Z</time>
      </trkpt>
      <trkpt lat="48.03031" lon="7.02927">
        <ele>1048.19</ele>
        <time>2018-07-08T11:50:42Z</time>
      </trkpt>
      <trkpt lat="48.03018" lon="7.02934">
        <ele>1045.95</ele>
        <time>2018-07-08T11:51:03Z</time>
      </trkpt>
      <trkpt lat="48.03018" lon="7.02929">
        <ele>1044.52</ele>
        <time>2018-07-08T11:51:12Z</time>
      </trkpt>
      <trkpt lat="48.03024" lon="7.02918">
        <ele>1043.29</ele>
        <time>2018-07-08T11:51:24Z</time>
      </trkpt>
      <trkpt lat="48.03031" lon="7.02912">
        <ele>1042.13</ele>
        <time>2018-07-08T11:51:36Z</time>
      </trkpt>
      <trkpt lat="48.03034" lon="7.02908">
        <ele>1041.27</ele>
        <time>2018-07-08T11:51:40Z</time>
      </trkpt>
      <trkpt lat="48.03045" lon="7.02897">
        <ele>1038.77</ele>
        <time>2018-07-08T11:51:58Z</time>
      </trkpt>
      <trkpt lat="48.03047" lon="7.02896">
        <ele>1038.72</ele>
        <time>2018-07-08T11:52:01Z</time>
      </trkpt>
      <trkpt lat="48.03053" lon="7.02898">
        <ele>1037.52</ele>
        <time>2018-07-08T11:52:08Z</time>
      </trkpt>
      <trkpt lat="48.03059" lon="7.02895">
        <ele>1035.91</ele>
        <time>2018-07-08T11:52:16Z</time>
      </trkpt>
      <trkpt lat="48.03064" lon="7.02889">
        <ele>1035.1</ele>
        <time>2018-07-08T11:52:24Z</time>
      </trkpt>
      <trkpt lat="48.03069" lon="7.02884">
        <ele>1034.63</ele>
        <time>2018-07-08T11:52:29Z</time>
      </trkpt>
      <trkpt lat="48.03071" lon="7.02883">
        <ele>1034.06</ele>
        <time>2018-07-08T11:52:31Z</time>
      </trkpt>
      <trkpt lat="48.03072" lon="7.02883">
        <ele>1033.28</ele>
        <time>2018-07-08T11:52:33Z</time>
      </trkpt>
      <trkpt lat="48.03074" lon="7.02875">
        <ele>1031.41</ele>
        <time>2018-07-08T11:52:42Z</time>
      </trkpt>
      <trkpt lat="48.03064" lon="7.02878">
        <ele>1031.03</ele>
        <time>2018-07-08T11:52:55Z</time>
      </trkpt>
      <trkpt lat="48.03046" lon="7.0287">
        <ele>1029.16</ele>
        <time>2018-07-08T11:53:13Z</time>
      </trkpt>
      <trkpt lat="48.03028" lon="7.02873">
        <ele>1028.23</ele>
        <time>2018-07-08T11:53:35Z</time>
      </trkpt>
      <trkpt lat="48.03027" lon="7.02874">
        <ele>1028.16</ele>
        <time>2018-07-08T11:53:44Z</time>
      </trkpt>
      <trkpt lat="48.03025" lon="7.02875">
        <ele>1028.14</ele>
        <time>2018-07-08T11:53:48Z</time>
      </trkpt>
      <trkpt lat="48.03016" lon="7.02877">
        <ele>1026.04</ele>
        <time>2018-07-08T11:54:09Z</time>
      </trkpt>
      <trkpt lat="48.03019" lon="7.02869">
        <ele>1022.91</ele>
        <time>2018-07-08T11:54:24Z</time>
      </trkpt>
      <trkpt lat="48.03026" lon="7.02858">
        <ele>1021.18</ele>
        <time>2018-07-08T11:54:43Z</time>
      </trkpt>
      <trkpt lat="48.0303" lon="7.02853">
        <ele>1020.29</ele>
        <time>2018-07-08T11:54:52Z</time>
      </trkpt>
      <trkpt lat="48.03019" lon="7.02853">
        <ele>1017.1</ele>
        <time>2018-07-08T11:55:15Z</time>
      </trkpt>
      <trkpt lat="48.03018" lon="7.02853">
        <ele>1016.84</ele>
        <time>2018-07-08T11:55:16Z</time>
      </trkpt>
      <trkpt lat="48.03" lon="7.02862">
        <ele>1013.96</ele>
        <time>2018-07-08T11:55:36Z</time>
      </trkpt>
      <trkpt lat="48.02988" lon="7.02871">
        <ele>1012.5</ele>
        <time>2018-07-08T11:55:55Z</time>
      </trkpt>
      <trkpt lat="48.02981" lon="7.02875">
        <ele>1011.65</ele>
        <time>2018-07-08T11:56:20Z</time>
      </trkpt>
      <trkpt lat="48.02973" lon="7.02879">
        <ele>1008.59</ele>
        <time>2018-07-08T11:56:41Z</time>
      </trkpt>
      <trkpt lat="48.02982" lon="7.02863">
        <ele>1005.22</ele>
        <time>2018-07-08T11:57:01Z</time>
      </trkpt>
      <trkpt lat="48.02992" lon="7.02847">
        <ele>1004.01</ele>
        <time>2018-07-08T11:57:18Z</time>
      </trkpt>
      <trkpt lat="48.02995" lon="7.02837">
        <ele>1003.49</ele>
        <time>2018-07-08T11:57:27Z</time>
      </trkpt>
      <trkpt lat="48.02999" lon="7.02832">
        <ele>1002.94</ele>
        <time>2018-07-08T11:57:31Z</time>
      </trkpt>
      <trkpt lat="48.03006" lon="7.02821">
        <ele>1002.2</ele>
        <time>2018-07-08T11:57:42Z</time>
      </trkpt>
      <trkpt lat="48.03016" lon="7.02812">
        <ele>1000.41</ele>
        <time>2018-07-08T11:57:57Z</time>
      </trkpt>
      <trkpt lat="48.03018" lon="7.02811">
        <ele>1000.2</ele>
        <time>2018-07-08T11:58:01Z</time>
      </trkpt>
      <trkpt lat="48.03034" lon="7.0281">
        <ele>997.66</ele>
        <time>2018-07-08T11:58:19Z</time>
      </trkpt>
      <trkpt lat="48.03036" lon="7.02809">
        <ele>997.62</ele>
        <time>2018-07-08T11:58:21Z</time>
      </trkpt>
      <trkpt lat="48.03038" lon="7.02807">
        <ele>996.85</ele>
        <time>2018-07-08T11:58:24Z</time>
      </trkpt>
      <trkpt lat="48.03047" lon="7.02807">
        <ele>995.92</ele>
        <time>2018-07-08T11:58:37Z</time>
      </trkpt>
      <trkpt lat="48.03054" lon="7.02786">
        <ele>995.05</ele>
        <time>2018-07-08T11:58:54Z</time>
      </trkpt>
      <trkpt lat="48.03056" lon="7.02784">
        <ele>994.28</ele>
        <time>2018-07-08T11:58:56Z</time>
      </trkpt>
      <trkpt lat="48.03066" lon="7.02777">
        <ele>992.51</ele>
        <time>2018-07-08T11:59:11Z</time>
      </trkpt>
      <trkpt lat="48.03069" lon="7.02775">
        <ele>992.75</ele>
        <time>2018-07-08T11:59:16Z</time>
      </trkpt>
      <trkpt lat="48.03077" lon="7.02768">
        <ele>991.66</ele>
        <time>2018-07-08T11:59:24Z</time>
      </trkpt>
      <trkpt lat="48.03087" lon="7.02753">
        <ele>989.6</ele>
        <time>2018-07-08T11:59:37Z</time>
      </trkpt>
      <trkpt lat="48.03093" lon="7.02743">
        <ele>987.72</ele>
        <time>2018-07-08T11:59:53Z</time>
      </trkpt>
      <trkpt lat="48.03094" lon="7.02741">
        <ele>987.43</ele>
        <time>2018-07-08T11:59:55Z</time>
      </trkpt>
      <trkpt lat="48.03094" lon="7.02738">
        <ele>987.43</ele>
        <time>2018-07-08T11:59:57Z</time>
      </trkpt>
      <trkpt lat="48.03084" lon="7.02732">
        <ele>985.81</ele>
        <time>2018-07-08T12:00:11Z</time>
      </trkpt>
      <trkpt lat="48.03072" lon="7.02738">
        <ele>984.95</ele>
        <time>2018-07-08T12:00:26Z</time>
      </trkpt>
      <trkpt lat="48.03059" lon="7.02748">
        <ele>982.51</ele>
        <time>2018-07-08T12:00:48Z</time>
      </trkpt>
      <trkpt lat="48.03046" lon="7.0275">
        <ele>980.61</ele>
        <time>2018-07-08T12:01:03Z</time>
      </trkpt>
      <trkpt lat="48.0303" lon="7.02749">
        <ele>978.26</ele>
        <time>2018-07-08T12:01:26Z</time>
      </trkpt>
      <trkpt lat="48.03024" lon="7.02751">
        <ele>977.84</ele>
        <time>2018-07-08T12:01:34Z</time>
      </trkpt>
      <trkpt lat="48.03011" lon="7.02755">
        <ele>975.35</ele>
        <time>2018-07-08T12:01:51Z</time>
      </trkpt>
      <trkpt lat="48.02994" lon="7.02757">
        <ele>972.29</ele>
        <time>2018-07-08T12:02:09Z</time>
      </trkpt>
      <trkpt lat="48.02981" lon="7.02766">
        <ele>969.28</ele>
        <time>2018-07-08T12:02:32Z</time>
      </trkpt>
      <trkpt lat="48.02967" lon="7.02778">
        <ele>967.64</ele>
        <time>2018-07-08T12:02:49Z</time>
      </trkpt>
      <trkpt lat="48.02952" lon="7.02779">
        <ele>965.52</ele>
        <time>2018-07-08T12:03:05Z</time>
      </trkpt>
      <trkpt lat="48.02936" lon="7.02789">
        <ele>963.48</ele>
        <time>2018-07-08T12:03:28Z</time>
      </trkpt>
      <trkpt lat="48.02919" lon="7.02798">
        <ele>960.44</ele>
        <time>2018-07-08T12:03:50Z</time>
      </trkpt>
      <trkpt lat="48.02905" lon="7.02806">
        <ele>957.76</ele>
        <time>2018-07-08T12:04:09Z</time>
      </trkpt>
      <trkpt lat="48.02894" lon="7.02814">
        <ele>955.91</ele>
        <time>2018-07-08T12:04:22Z</time>
      </trkpt>
      <trkpt lat="48.02887" lon="7.0282">
        <ele>954.37</ele>
        <time>2018-07-08T12:04:36Z</time>
      </trkpt>
      <trkpt lat="48.02879" lon="7.02816">
        <ele>951.31</ele>
        <time>2018-07-08T12:04:53Z</time>
      </trkpt>
      <trkpt lat="48.02873" lon="7.02811">
        <ele>950.45</ele>
        <time>2018-07-08T12:05:04Z</time>
      </trkpt>
      <trkpt lat="48.02872" lon="7.02807">
        <ele>948.51</ele>
        <time>2018-07-08T12:05:23Z</time>
      </trkpt>
      <trkpt lat="48.02875" lon="7.02806">
        <ele>948</ele>
        <time>2018-07-08T12:05:30Z</time>
      </trkpt>
      <trkpt lat="48.02876" lon="7.02806">
        <ele>947.72</ele>
        <time>2018-07-08T12:05:32Z</time>
      </trkpt>
      <trkpt lat="48.02882" lon="7.02804">
        <ele>946.67</ele>
        <time>2018-07-08T12:05:57Z</time>
      </trkpt>
      <trkpt lat="48.02871" lon="7.02808">
        <ele>949.05</ele>
        <time>2018-07-08T12:06:14Z</time>
      </trkpt>
      <trkpt lat="48.0287" lon="7.02806">
        <ele>949.73</ele>
        <time>2018-07-08T12:06:34Z</time>
      </trkpt>
      <trkpt lat="48.02868" lon="7.02802">
        <ele>949.62</ele>
        <time>2018-07-08T12:07:00Z</time>
      </trkpt>
      <trkpt lat="48.02868" lon="7.02803">
        <ele>949.56</ele>
        <time>2018-07-08T12:07:02Z</time>
      </trkpt>
      <trkpt lat="48.02868" lon="7.02807">
        <ele>950.53</ele>
        <time>2018-07-08T12:07:22Z</time>
      </trkpt>
      <trkpt lat="48.0287" lon="7.02805">
        <ele>949.73</ele>
        <time>2018-07-08T12:07:29Z</time>
      </trkpt>
      <trkpt lat="48.02881" lon="7.02817">
        <ele>949.08</ele>
        <time>2018-07-08T12:08:07Z</time>
      </trkpt>
      <trkpt lat="48.0288" lon="7.02823">
        <ele>949.4</ele>
        <time>2018-07-08T12:08:21Z</time>
      </trkpt>
      <trkpt lat="48.02877" lon="7.02818">
        <ele>946.55</ele>
        <time>2018-07-08T12:08:52Z</time>
      </trkpt>
      <trkpt lat="48.02877" lon="7.02818">
        <ele>951.8</ele>
        <time>2018-07-08T12:08:53Z</time>
      </trkpt>
      <trkpt lat="48.02878" lon="7.02813">
        <ele>948.55</ele>
        <time>2018-07-08T12:09:04Z</time>
      </trkpt>
      <trkpt lat="48.02883" lon="7.02806">
        <ele>946.9</ele>
        <time>2018-07-08T12:09:19Z</time>
      </trkpt>
      <trkpt lat="48.02894" lon="7.02794">
        <ele>945.4</ele>
        <time>2018-07-08T12:09:35Z</time>
      </trkpt>
      <trkpt lat="48.02897" lon="7.02792">
        <ele>944.96</ele>
        <time>2018-07-08T12:09:40Z</time>
      </trkpt>
      <trkpt lat="48.02906" lon="7.02782">
        <ele>944.14</ele>
        <time>2018-07-08T12:09:53Z</time>
      </trkpt>
      <trkpt lat="48.02907" lon="7.02781">
        <ele>944.58</ele>
        <time>2018-07-08T12:09:54Z</time>
      </trkpt>
      <trkpt lat="48.02912" lon="7.02775">
        <ele>943.59</ele>
        <time>2018-07-08T12:10:03Z</time>
      </trkpt>
      <trkpt lat="48.02927" lon="7.02755">
        <ele>942.65</ele>
        <time>2018-07-08T12:10:23Z</time>
      </trkpt>
      <trkpt lat="48.02936" lon="7.02736">
        <ele>941.49</ele>
        <time>2018-07-08T12:10:35Z</time>
      </trkpt>
      <trkpt lat="48.02928" lon="7.02709">
        <ele>938.69</ele>
        <time>2018-07-08T12:10:54Z</time>
      </trkpt>
      <trkpt lat="48.02925" lon="7.02704">
        <ele>939.01</ele>
        <time>2018-07-08T12:10:58Z</time>
      </trkpt>
      <trkpt lat="48.02909" lon="7.02703">
        <ele>938.37</ele>
        <time>2018-07-08T12:11:12Z</time>
      </trkpt>
      <trkpt lat="48.02912" lon="7.02693">
        <ele>938.72</ele>
        <time>2018-07-08T12:11:29Z</time>
      </trkpt>
      <trkpt lat="48.02921" lon="7.02687">
        <ele>939.4</ele>
        <time>2018-07-08T12:11:46Z</time>
      </trkpt>
      <trkpt lat="48.02918" lon="7.02683">
        <ele>939.28</ele>
        <time>2018-07-08T12:12:08Z</time>
      </trkpt>
      <trkpt lat="48.0292" lon="7.02682">
        <ele>939.27</ele>
        <time>2018-07-08T12:12:25Z</time>
      </trkpt>
      <trkpt lat="48.02924" lon="7.02691">
        <ele>939.54</ele>
        <time>2018-07-08T12:12:45Z</time>
      </trkpt>
      <trkpt lat="48.02923" lon="7.02691">
        <ele>937.79</ele>
        <time>2018-07-08T12:13:09Z</time>
      </trkpt>
      <trkpt lat="48.02917" lon="7.02688">
        <ele>938.7</ele>
        <time>2018-07-08T12:13:19Z</time>
      </trkpt>
      <trkpt lat="48.02904" lon="7.02681">
        <ele>938.69</ele>
        <time>2018-07-08T12:13:35Z</time>
      </trkpt>
      <trkpt lat="48.02905" lon="7.02678">
        <ele>938.55</ele>
        <time>2018-07-08T12:13:59Z</time>
      </trkpt>
      <trkpt lat="48.02902" lon="7.02665">
        <ele>938.24</ele>
        <time>2018-07-08T12:14:14Z</time>
      </trkpt>
      <trkpt lat="48.02891" lon="7.02647">
        <ele>937.95</ele>
        <time>2018-07-08T12:14:32Z</time>
      </trkpt>
      <trkpt lat="48.02883" lon="7.02634">
        <ele>937.64</ele>
        <time>2018-07-08T12:14:45Z</time>
      </trkpt>
      <trkpt lat="48.02882" lon="7.02631">
        <ele>938.17</ele>
        <time>2018-07-08T12:14:47Z</time>
      </trkpt>
      <trkpt lat="48.02877" lon="7.02618">
        <ele>938</ele>
        <time>2018-07-08T12:14:56Z</time>
      </trkpt>
      <trkpt lat="48.02872" lon="7.02595">
        <ele>938.5</ele>
        <time>2018-07-08T12:15:13Z</time>
      </trkpt>
      <trkpt lat="48.02867" lon="7.02579">
        <ele>938.47</ele>
        <time>2018-07-08T12:15:27Z</time>
      </trkpt>
      <trkpt lat="48.02865" lon="7.02572">
        <ele>937.94</ele>
        <time>2018-07-08T12:15:32Z</time>
      </trkpt>
      <trkpt lat="48.02858" lon="7.02546">
        <ele>938.27</ele>
        <time>2018-07-08T12:15:49Z</time>
      </trkpt>
      <trkpt lat="48.02855" lon="7.02533">
        <ele>937.8</ele>
        <time>2018-07-08T12:16:09Z</time>
      </trkpt>
      <trkpt lat="48.02851" lon="7.02541">
        <ele>936.09</ele>
        <time>2018-07-08T12:16:29Z</time>
      </trkpt>
      <trkpt lat="48.02844" lon="7.02561">
        <ele>933.87</ele>
        <time>2018-07-08T12:16:48Z</time>
      </trkpt>
      <trkpt lat="48.02837" lon="7.0258">
        <ele>931.88</ele>
        <time>2018-07-08T12:17:04Z</time>
      </trkpt>
      <trkpt lat="48.02826" lon="7.02603">
        <ele>928.79</ele>
        <time>2018-07-08T12:17:25Z</time>
      </trkpt>
      <trkpt lat="48.02816" lon="7.02615">
        <ele>928.21</ele>
        <time>2018-07-08T12:17:41Z</time>
      </trkpt>
      <trkpt lat="48.02809" lon="7.02628">
        <ele>927.03</ele>
        <time>2018-07-08T12:17:55Z</time>
      </trkpt>
      <trkpt lat="48.02812" lon="7.02634">
        <ele>924.15</ele>
        <time>2018-07-08T12:18:16Z</time>
      </trkpt>
      <trkpt lat="48.02826" lon="7.02638">
        <ele>922.37</ele>
        <time>2018-07-08T12:18:33Z</time>
      </trkpt>
      <trkpt lat="48.02829" lon="7.02639">
        <ele>920.94</ele>
        <time>2018-07-08T12:18:42Z</time>
      </trkpt>
      <trkpt lat="48.0283" lon="7.02648">
        <ele>918.45</ele>
        <time>2018-07-08T12:18:58Z</time>
      </trkpt>
      <trkpt lat="48.02827" lon="7.02649">
        <ele>917.19</ele>
        <time>2018-07-08T12:19:05Z</time>
      </trkpt>
      <trkpt lat="48.0282" lon="7.02658">
        <ele>915.45</ele>
        <time>2018-07-08T12:19:22Z</time>
      </trkpt>
      <trkpt lat="48.02811" lon="7.02664">
        <ele>914.62</ele>
        <time>2018-07-08T12:19:34Z</time>
      </trkpt>
      <trkpt lat="48.02805" lon="7.02674">
        <ele>914.05</ele>
        <time>2018-07-08T12:19:46Z</time>
      </trkpt>
      <trkpt lat="48.02793" lon="7.02675">
        <ele>912.02</ele>
        <time>2018-07-08T12:20:02Z</time>
      </trkpt>
      <trkpt lat="48.02788" lon="7.02679">
        <ele>910.47</ele>
        <time>2018-07-08T12:20:12Z</time>
      </trkpt>
      <trkpt lat="48.02781" lon="7.02689">
        <ele>909.52</ele>
        <time>2018-07-08T12:20:23Z</time>
      </trkpt>
      <trkpt lat="48.02766" lon="7.02692">
        <ele>907.16</ele>
        <time>2018-07-08T12:20:40Z</time>
      </trkpt>
      <trkpt lat="48.02756" lon="7.02692">
        <ele>906.21</ele>
        <time>2018-07-08T12:20:52Z</time>
      </trkpt>
      <trkpt lat="48.02739" lon="7.02685">
        <ele>904.26</ele>
        <time>2018-07-08T12:21:10Z</time>
      </trkpt>
      <trkpt lat="48.02728" lon="7.02683">
        <ele>903.46</ele>
        <time>2018-07-08T12:21:22Z</time>
      </trkpt>
      <trkpt lat="48.02721" lon="7.02686">
        <ele>901.45</ele>
        <time>2018-07-08T12:21:33Z</time>
      </trkpt>
      <trkpt lat="48.02708" lon="7.02681">
        <ele>899.58</ele>
        <time>2018-07-08T12:21:52Z</time>
      </trkpt>
      <trkpt lat="48.02693" lon="7.02679">
        <ele>898.02</ele>
        <time>2018-07-08T12:22:07Z</time>
      </trkpt>
      <trkpt lat="48.02691" lon="7.02677">
        <ele>896.95</ele>
        <time>2018-07-08T12:22:12Z</time>
      </trkpt>
      <trkpt lat="48.02674" lon="7.02676">
        <ele>895.7</ele>
        <time>2018-07-08T12:22:27Z</time>
      </trkpt>
      <trkpt lat="48.02661" lon="7.02669">
        <ele>893.8</ele>
        <time>2018-07-08T12:22:41Z</time>
      </trkpt>
      <trkpt lat="48.02654" lon="7.02664">
        <ele>892.79</ele>
        <time>2018-07-08T12:22:52Z</time>
      </trkpt>
      <trkpt lat="48.02653" lon="7.02664">
        <ele>892.95</ele>
        <time>2018-07-08T12:22:53Z</time>
      </trkpt>
      <trkpt lat="48.02652" lon="7.02663">
        <ele>892.6</ele>
        <time>2018-07-08T12:22:55Z</time>
      </trkpt>
      <trkpt lat="48.02641" lon="7.0265">
        <ele>892.81</ele>
        <time>2018-07-08T12:23:13Z</time>
      </trkpt>
      <trkpt lat="48.02631" lon="7.0264">
        <ele>892.34</ele>
        <time>2018-07-08T12:23:32Z</time>
      </trkpt>
      <trkpt lat="48.02623" lon="7.02638">
        <ele>890.33</ele>
        <time>2018-07-08T12:23:45Z</time>
      </trkpt>
      <trkpt lat="48.02609" lon="7.02654">
        <ele>888.27</ele>
        <time>2018-07-08T12:24:02Z</time>
      </trkpt>
      <trkpt lat="48.02602" lon="7.02663">
        <ele>888.13</ele>
        <time>2018-07-08T12:24:10Z</time>
      </trkpt>
      <trkpt lat="48.02593" lon="7.02665">
        <ele>887.03</ele>
        <time>2018-07-08T12:24:22Z</time>
      </trkpt>
      <trkpt lat="48.02584" lon="7.0267">
        <ele>885.4</ele>
        <time>2018-07-08T12:24:37Z</time>
      </trkpt>
      <trkpt lat="48.02584" lon="7.02669">
        <ele>885.36</ele>
        <time>2018-07-08T12:24:38Z</time>
      </trkpt>
      <trkpt lat="48.02579" lon="7.02668">
        <ele>883.94</ele>
        <time>2018-07-08T12:24:47Z</time>
      </trkpt>
      <trkpt lat="48.02566" lon="7.02665">
        <ele>880.63</ele>
        <time>2018-07-08T12:25:03Z</time>
      </trkpt>
      <trkpt lat="48.02548" lon="7.02647">
        <ele>879.75</ele>
        <time>2018-07-08T12:25:21Z</time>
      </trkpt>
      <trkpt lat="48.02544" lon="7.02641">
        <ele>878.97</ele>
        <time>2018-07-08T12:25:28Z</time>
      </trkpt>
      <trkpt lat="48.02537" lon="7.02634">
        <ele>877.31</ele>
        <time>2018-07-08T12:25:38Z</time>
      </trkpt>
      <trkpt lat="48.02536" lon="7.02627">
        <ele>877.12</ele>
        <time>2018-07-08T12:25:59Z</time>
      </trkpt>
      <trkpt lat="48.02536" lon="7.02627">
        <ele>876.96</ele>
        <time>2018-07-08T12:26:00Z</time>
      </trkpt>
      <trkpt lat="48.02537" lon="7.0263">
        <ele>877.06</ele>
        <time>2018-07-08T12:26:04Z</time>
      </trkpt>
      <trkpt lat="48.02538" lon="7.0263">
        <ele>876.2</ele>
        <time>2018-07-08T12:26:07Z</time>
      </trkpt>
      <trkpt lat="48.02537" lon="7.02631">
        <ele>876.42</ele>
        <time>2018-07-08T12:26:14Z</time>
      </trkpt>
      <trkpt lat="48.02521" lon="7.02624">
        <ele>875.15</ele>
        <time>2018-07-08T12:26:31Z</time>
      </trkpt>
      <trkpt lat="48.02519" lon="7.02619">
        <ele>874.47</ele>
        <time>2018-07-08T12:26:35Z</time>
      </trkpt>
      <trkpt lat="48.02515" lon="7.02612">
        <ele>873.55</ele>
        <time>2018-07-08T12:26:42Z</time>
      </trkpt>
      <trkpt lat="48.02514" lon="7.0261">
        <ele>872.82</ele>
        <time>2018-07-08T12:26:44Z</time>
      </trkpt>
      <trkpt lat="48.02511" lon="7.0259">
        <ele>870.78</ele>
        <time>2018-07-08T12:27:00Z</time>
      </trkpt>
      <trkpt lat="48.02507" lon="7.02569">
        <ele>868.54</ele>
        <time>2018-07-08T12:27:25Z</time>
      </trkpt>
      <trkpt lat="48.02503" lon="7.02584">
        <ele>867.27</ele>
        <time>2018-07-08T12:27:36Z</time>
      </trkpt>
      <trkpt lat="48.02495" lon="7.02597">
        <ele>865.83</ele>
        <time>2018-07-08T12:27:48Z</time>
      </trkpt>
      <trkpt lat="48.02491" lon="7.0259">
        <ele>863.84</ele>
        <time>2018-07-08T12:27:56Z</time>
      </trkpt>
      <trkpt lat="48.0249" lon="7.02578">
        <ele>862.85</ele>
        <time>2018-07-08T12:28:05Z</time>
      </trkpt>
      <trkpt lat="48.02492" lon="7.02558">
        <ele>861.38</ele>
        <time>2018-07-08T12:28:20Z</time>
      </trkpt>
      <trkpt lat="48.0249" lon="7.02548">
        <ele>860.91</ele>
        <time>2018-07-08T12:28:33Z</time>
      </trkpt>
      <trkpt lat="48.0249" lon="7.02537">
        <ele>859.68</ele>
        <time>2018-07-08T12:28:54Z</time>
      </trkpt>
      <trkpt lat="48.02489" lon="7.02537">
        <ele>859.47</ele>
        <time>2018-07-08T12:28:55Z</time>
      </trkpt>
      <trkpt lat="48.02483" lon="7.02541">
        <ele>857.42</ele>
        <time>2018-07-08T12:29:11Z</time>
      </trkpt>
      <trkpt lat="48.02478" lon="7.02558">
        <ele>854.69</ele>
        <time>2018-07-08T12:29:29Z</time>
      </trkpt>
      <trkpt lat="48.02477" lon="7.02566">
        <ele>853.69</ele>
        <time>2018-07-08T12:29:35Z</time>
      </trkpt>
      <trkpt lat="48.02476" lon="7.02568">
        <ele>853.36</ele>
        <time>2018-07-08T12:29:38Z</time>
      </trkpt>
      <trkpt lat="48.02472" lon="7.02581">
        <ele>851.94</ele>
        <time>2018-07-08T12:29:49Z</time>
      </trkpt>
      <trkpt lat="48.02469" lon="7.02595">
        <ele>850.36</ele>
        <time>2018-07-08T12:30:08Z</time>
      </trkpt>
      <trkpt lat="48.02466" lon="7.02602">
        <ele>849.28</ele>
        <time>2018-07-08T12:30:24Z</time>
      </trkpt>
      <trkpt lat="48.02464" lon="7.02594">
        <ele>846.78</ele>
        <time>2018-07-08T12:30:42Z</time>
      </trkpt>
      <trkpt lat="48.02463" lon="7.02575">
        <ele>844.46</ele>
        <time>2018-07-08T12:30:57Z</time>
      </trkpt>
      <trkpt lat="48.02463" lon="7.0257">
        <ele>844.31</ele>
        <time>2018-07-08T12:31:03Z</time>
      </trkpt>
      <trkpt lat="48.0246" lon="7.02569">
        <ele>843.82</ele>
        <time>2018-07-08T12:31:08Z</time>
      </trkpt>
      <trkpt lat="48.02456" lon="7.02571">
        <ele>841.7</ele>
        <time>2018-07-08T12:31:21Z</time>
      </trkpt>
      <trkpt lat="48.02452" lon="7.02593">
        <ele>839.39</ele>
        <time>2018-07-08T12:31:45Z</time>
      </trkpt>
      <trkpt lat="48.02452" lon="7.02609">
        <ele>836.95</ele>
        <time>2018-07-08T12:32:09Z</time>
      </trkpt>
      <trkpt lat="48.02452" lon="7.02614">
        <ele>836.53</ele>
        <time>2018-07-08T12:32:26Z</time>
      </trkpt>
      <trkpt lat="48.02453" lon="7.02628">
        <ele>835.08</ele>
        <time>2018-07-08T12:32:44Z</time>
      </trkpt>
      <trkpt lat="48.02447" lon="7.02626">
        <ele>833.42</ele>
        <time>2018-07-08T12:33:00Z</time>
      </trkpt>
      <trkpt lat="48.02444" lon="7.02607">
        <ele>830.13</ele>
        <time>2018-07-08T12:33:20Z</time>
      </trkpt>
      <trkpt lat="48.02444" lon="7.02602">
        <ele>830.74</ele>
        <time>2018-07-08T12:33:27Z</time>
      </trkpt>
      <trkpt lat="48.02446" lon="7.02587">
        <ele>828.35</ele>
        <time>2018-07-08T12:33:43Z</time>
      </trkpt>
      <trkpt lat="48.02445" lon="7.02583">
        <ele>827.43</ele>
        <time>2018-07-08T12:33:47Z</time>
      </trkpt>
      <trkpt lat="48.02445" lon="7.02576">
        <ele>826.8</ele>
        <time>2018-07-08T12:33:53Z</time>
      </trkpt>
      <trkpt lat="48.02445" lon="7.02557">
        <ele>826.36</ele>
        <time>2018-07-08T12:34:05Z</time>
      </trkpt>
      <trkpt lat="48.02445" lon="7.02547">
        <ele>824.06</ele>
        <time>2018-07-08T12:34:18Z</time>
      </trkpt>
      <trkpt lat="48.02445" lon="7.02534">
        <ele>823.08</ele>
        <time>2018-07-08T12:34:30Z</time>
      </trkpt>
      <trkpt lat="48.02444" lon="7.02531">
        <ele>822.9</ele>
        <time>2018-07-08T12:34:33Z</time>
      </trkpt>
      <trkpt lat="48.02427" lon="7.02521">
        <ele>820.67</ele>
        <time>2018-07-08T12:34:53Z</time>
      </trkpt>
      <trkpt lat="48.02424" lon="7.02527">
        <ele>818.91</ele>
        <time>2018-07-08T12:35:12Z</time>
      </trkpt>
      <trkpt lat="48.02415" lon="7.02509">
        <ele>816.43</ele>
        <time>2018-07-08T12:35:31Z</time>
      </trkpt>
      <trkpt lat="48.02408" lon="7.02498">
        <ele>815.69</ele>
        <time>2018-07-08T12:35:44Z</time>
      </trkpt>
      <trkpt lat="48.02407" lon="7.02494">
        <ele>815.64</ele>
        <time>2018-07-08T12:35:46Z</time>
      </trkpt>
      <trkpt lat="48.02403" lon="7.02481">
        <ele>815.53</ele>
        <time>2018-07-08T12:36:04Z</time>
      </trkpt>
      <trkpt lat="48.02402" lon="7.02481">
        <ele>814.86</ele>
        <time>2018-07-08T12:36:05Z</time>
      </trkpt>
      <trkpt lat="48.02398" lon="7.0248">
        <ele>814.48</ele>
        <time>2018-07-08T12:36:14Z</time>
      </trkpt>
      <trkpt lat="48.02389" lon="7.02461">
        <ele>812.5</ele>
        <time>2018-07-08T12:36:37Z</time>
      </trkpt>
      <trkpt lat="48.02387" lon="7.02444">
        <ele>810.89</ele>
        <time>2018-07-08T12:36:54Z</time>
      </trkpt>
      <trkpt lat="48.02389" lon="7.02431">
        <ele>808.78</ele>
        <time>2018-07-08T12:37:15Z</time>
      </trkpt>
      <trkpt lat="48.02385" lon="7.02422">
        <ele>808.65</ele>
        <time>2018-07-08T12:37:27Z</time>
      </trkpt>
      <trkpt lat="48.02375" lon="7.02408">
        <ele>808.15</ele>
        <time>2018-07-08T12:37:42Z</time>
      </trkpt>
      <trkpt lat="48.02368" lon="7.02381">
        <ele>807.57</ele>
        <time>2018-07-08T12:38:02Z</time>
      </trkpt>
      <trkpt lat="48.02366" lon="7.02365">
        <ele>807.44</ele>
        <time>2018-07-08T12:38:16Z</time>
      </trkpt>
      <trkpt lat="48.02359" lon="7.02383">
        <ele>808.24</ele>
        <time>2018-07-08T12:38:39Z</time>
      </trkpt>
      <trkpt lat="48.02344" lon="7.02384">
        <ele>807.55</ele>
        <time>2018-07-08T12:39:00Z</time>
      </trkpt>
      <trkpt lat="48.02337" lon="7.02374">
        <ele>807.43</ele>
        <time>2018-07-08T12:39:17Z</time>
      </trkpt>
      <trkpt lat="48.02333" lon="7.02374">
        <ele>808.26</ele>
        <time>2018-07-08T12:39:38Z</time>
      </trkpt>
      <trkpt lat="48.02331" lon="7.0237">
        <ele>808.61</ele>
        <time>2018-07-08T12:39:58Z</time>
      </trkpt>
      <trkpt lat="48.02333" lon="7.02375">
        <ele>808.39</ele>
        <time>2018-07-08T12:40:15Z</time>
      </trkpt>
      <trkpt lat="48.02335" lon="7.02376">
        <ele>808.83</ele>
        <time>2018-07-08T12:40:19Z</time>
      </trkpt>
      <trkpt lat="48.02337" lon="7.02377">
        <ele>808.48</ele>
        <time>2018-07-08T12:40:44Z</time>
      </trkpt>
      <trkpt lat="48.02334" lon="7.02373">
        <ele>808.31</ele>
        <time>2018-07-08T12:41:06Z</time>
      </trkpt>
      <trkpt lat="48.02339" lon="7.02383">
        <ele>807.95</ele>
        <time>2018-07-08T12:41:26Z</time>
      </trkpt>
      <trkpt lat="48.02346" lon="7.02386">
        <ele>807.19</ele>
        <time>2018-07-08T12:41:45Z</time>
      </trkpt>
      <trkpt lat="48.02344" lon="7.02385">
        <ele>807.23</ele>
        <time>2018-07-08T12:42:08Z</time>
      </trkpt>
      <trkpt lat="48.0234" lon="7.02379">
        <ele>806.82</ele>
        <time>2018-07-08T12:42:29Z</time>
      </trkpt>
      <trkpt lat="48.02337" lon="7.02381">
        <ele>807.21</ele>
        <time>2018-07-08T12:42:53Z</time>
      </trkpt>
      <trkpt lat="48.02335" lon="7.02386">
        <ele>806.98</ele>
        <time>2018-07-08T12:43:16Z</time>
      </trkpt>
      <trkpt lat="48.02336" lon="7.02385">
        <ele>806.85</ele>
        <time>2018-07-08T12:43:37Z</time>
      </trkpt>
      <trkpt lat="48.02329" lon="7.0238">
        <ele>807.57</ele>
        <time>2018-07-08T12:43:57Z</time>
      </trkpt>
      <trkpt lat="48.02326" lon="7.02374">
        <ele>807.1</ele>
        <time>2018-07-08T12:44:06Z</time>
      </trkpt>
      <trkpt lat="48.02321" lon="7.02361">
        <ele>807.26</ele>
        <time>2018-07-08T12:44:23Z</time>
      </trkpt>
      <trkpt lat="48.02313" lon="7.02354">
        <ele>806.9</ele>
        <time>2018-07-08T12:44:37Z</time>
      </trkpt>
      <trkpt lat="48.02307" lon="7.02347">
        <ele>806.5</ele>
        <time>2018-07-08T12:45:00Z</time>
      </trkpt>
      <trkpt lat="48.02308" lon="7.02347">
        <ele>806.92</ele>
        <time>2018-07-08T12:45:12Z</time>
      </trkpt>
      <trkpt lat="48.02302" lon="7.02352">
        <ele>805.71</ele>
        <time>2018-07-08T12:45:37Z</time>
      </trkpt>
      <trkpt lat="48.023" lon="7.02367">
        <ele>803.92</ele>
        <time>2018-07-08T12:45:56Z</time>
      </trkpt>
      <trkpt lat="48.02295" lon="7.02377">
        <ele>801.33</ele>
        <time>2018-07-08T12:46:15Z</time>
      </trkpt>
      <trkpt lat="48.02287" lon="7.02393">
        <ele>799.78</ele>
        <time>2018-07-08T12:46:32Z</time>
      </trkpt>
      <trkpt lat="48.0227" lon="7.0241">
        <ele>800.59</ele>
        <time>2018-07-08T12:46:52Z</time>
      </trkpt>
      <trkpt lat="48.02253" lon="7.02421">
        <ele>801.32</ele>
        <time>2018-07-08T12:47:09Z</time>
      </trkpt>
      <trkpt lat="48.02242" lon="7.02428">
        <ele>802.54</ele>
        <time>2018-07-08T12:47:22Z</time>
      </trkpt>
      <trkpt lat="48.02225" lon="7.0244">
        <ele>803.18</ele>
        <time>2018-07-08T12:47:41Z</time>
      </trkpt>
      <trkpt lat="48.02213" lon="7.02447">
        <ele>803.35</ele>
        <time>2018-07-08T12:47:55Z</time>
      </trkpt>
      <trkpt lat="48.02204" lon="7.02454">
        <ele>804.36</ele>
        <time>2018-07-08T12:48:14Z</time>
      </trkpt>
      <trkpt lat="48.02209" lon="7.02457">
        <ele>803.86</ele>
        <time>2018-07-08T12:48:38Z</time>
      </trkpt>
      <trkpt lat="48.02215" lon="7.02452">
        <ele>803.91</ele>
        <time>2018-07-08T12:48:55Z</time>
      </trkpt>
      <trkpt lat="48.0221" lon="7.02448">
        <ele>803.99</ele>
        <time>2018-07-08T12:49:16Z</time>
      </trkpt>
      <trkpt lat="48.02201" lon="7.02447">
        <ele>808</ele>
        <time>2018-07-08T12:49:37Z</time>
      </trkpt>
      <trkpt lat="48.02201" lon="7.02447">
        <ele>805.97</ele>
        <time>2018-07-08T12:49:38Z</time>
      </trkpt>
      <trkpt lat="48.02193" lon="7.02447">
        <ele>809.85</ele>
        <time>2018-07-08T12:49:59Z</time>
      </trkpt>
      <trkpt lat="48.02194" lon="7.02454">
        <ele>809.36</ele>
        <time>2018-07-08T12:50:07Z</time>
      </trkpt>
      <trkpt lat="48.02189" lon="7.02462">
        <ele>811.12</ele>
        <time>2018-07-08T12:50:20Z</time>
      </trkpt>
      <trkpt lat="48.02181" lon="7.02461">
        <ele>812.52</ele>
        <time>2018-07-08T12:50:37Z</time>
      </trkpt>
      <trkpt lat="48.02172" lon="7.02458">
        <ele>813.52</ele>
        <time>2018-07-08T12:50:56Z</time>
      </trkpt>
      <trkpt lat="48.02165" lon="7.02459">
        <ele>815.44</ele>
        <time>2018-07-08T12:51:13Z</time>
      </trkpt>
      <trkpt lat="48.02164" lon="7.02463">
        <ele>816.64</ele>
        <time>2018-07-08T12:51:23Z</time>
      </trkpt>
      <trkpt lat="48.02154" lon="7.02479">
        <ele>818.01</ele>
        <time>2018-07-08T12:51:45Z</time>
      </trkpt>
      <trkpt lat="48.02153" lon="7.02481">
        <ele>817.96</ele>
        <time>2018-07-08T12:51:47Z</time>
      </trkpt>
      <trkpt lat="48.02151" lon="7.02498">
        <ele>819.71</ele>
        <time>2018-07-08T12:52:09Z</time>
      </trkpt>
      <trkpt lat="48.02145" lon="7.02504">
        <ele>820.93</ele>
        <time>2018-07-08T12:52:14Z</time>
      </trkpt>
      <trkpt lat="48.0214" lon="7.02499">
        <ele>821.76</ele>
        <time>2018-07-08T12:52:32Z</time>
      </trkpt>
      <trkpt lat="48.02141" lon="7.02493">
        <ele>822.19</ele>
        <time>2018-07-08T12:52:42Z</time>
      </trkpt>
      <trkpt lat="48.02143" lon="7.02484">
        <ele>823.44</ele>
        <time>2018-07-08T12:52:51Z</time>
      </trkpt>
      <trkpt lat="48.02144" lon="7.02468">
        <ele>825.71</ele>
        <time>2018-07-08T12:53:11Z</time>
      </trkpt>
      <trkpt lat="48.02147" lon="7.02447">
        <ele>828.94</ele>
        <time>2018-07-08T12:53:38Z</time>
      </trkpt>
      <trkpt lat="48.02151" lon="7.02436">
        <ele>829.36</ele>
        <time>2018-07-08T12:53:58Z</time>
      </trkpt>
      <trkpt lat="48.02148" lon="7.02437">
        <ele>830.73</ele>
        <time>2018-07-08T12:54:10Z</time>
      </trkpt>
      <trkpt lat="48.0214" lon="7.02439">
        <ele>831.61</ele>
        <time>2018-07-08T12:54:31Z</time>
      </trkpt>
      <trkpt lat="48.02137" lon="7.02436">
        <ele>833.08</ele>
        <time>2018-07-08T12:54:42Z</time>
      </trkpt>
      <trkpt lat="48.02131" lon="7.02435">
        <ele>835.73</ele>
        <time>2018-07-08T12:54:58Z</time>
      </trkpt>
      <trkpt lat="48.0212" lon="7.02441">
        <ele>835.15</ele>
        <time>2018-07-08T12:55:21Z</time>
      </trkpt>
      <trkpt lat="48.02107" lon="7.02443">
        <ele>834.35</ele>
        <time>2018-07-08T12:55:42Z</time>
      </trkpt>
      <trkpt lat="48.02101" lon="7.02445">
        <ele>835.43</ele>
        <time>2018-07-08T12:55:56Z</time>
      </trkpt>
      <trkpt lat="48.02093" lon="7.02449">
        <ele>835.9</ele>
        <time>2018-07-08T12:56:12Z</time>
      </trkpt>
      <trkpt lat="48.02085" lon="7.02458">
        <ele>837.44</ele>
        <time>2018-07-08T12:56:25Z</time>
      </trkpt>
      <trkpt lat="48.02079" lon="7.02463">
        <ele>838.27</ele>
        <time>2018-07-08T12:56:43Z</time>
      </trkpt>
      <trkpt lat="48.02073" lon="7.02462">
        <ele>839.19</ele>
        <time>2018-07-08T12:57:00Z</time>
      </trkpt>
      <trkpt lat="48.02072" lon="7.02459">
        <ele>839.06</ele>
        <time>2018-07-08T12:57:10Z</time>
      </trkpt>
      <trkpt lat="48.02077" lon="7.02453">
        <ele>841.14</ele>
        <time>2018-07-08T12:57:30Z</time>
      </trkpt>
      <trkpt lat="48.02074" lon="7.02455">
        <ele>843.08</ele>
        <time>2018-07-08T12:57:47Z</time>
      </trkpt>
      <trkpt lat="48.02064" lon="7.02461">
        <ele>843.72</ele>
        <time>2018-07-08T12:58:09Z</time>
      </trkpt>
      <trkpt lat="48.02058" lon="7.02465">
        <ele>844.03</ele>
        <time>2018-07-08T12:58:17Z</time>
      </trkpt>
      <trkpt lat="48.0205" lon="7.0247">
        <ele>846.17</ele>
        <time>2018-07-08T12:58:37Z</time>
      </trkpt>
      <trkpt lat="48.02046" lon="7.02472">
        <ele>846.96</ele>
        <time>2018-07-08T12:58:47Z</time>
      </trkpt>
      <trkpt lat="48.02031" lon="7.02486">
        <ele>847.92</ele>
        <time>2018-07-08T12:59:08Z</time>
      </trkpt>
      <trkpt lat="48.02023" lon="7.02496">
        <ele>849.49</ele>
        <time>2018-07-08T12:59:25Z</time>
      </trkpt>
      <trkpt lat="48.02019" lon="7.02503">
        <ele>850.77</ele>
        <time>2018-07-08T12:59:45Z</time>
      </trkpt>
      <trkpt lat="48.02009" lon="7.02507">
        <ele>852.11</ele>
        <time>2018-07-08T13:00:04Z</time>
      </trkpt>
      <trkpt lat="48.02004" lon="7.02512">
        <ele>852.2</ele>
        <time>2018-07-08T13:00:13Z</time>
      </trkpt>
      <trkpt lat="48.02" lon="7.02515">
        <ele>854.35</ele>
        <time>2018-07-08T13:00:24Z</time>
      </trkpt>
      <trkpt lat="48.01995" lon="7.02514">
        <ele>856.41</ele>
        <time>2018-07-08T13:00:44Z</time>
      </trkpt>
      <trkpt lat="48.01995" lon="7.02505">
        <ele>856.33</ele>
        <time>2018-07-08T13:01:10Z</time>
      </trkpt>
      <trkpt lat="48.01992" lon="7.02497">
        <ele>856.49</ele>
        <time>2018-07-08T13:01:28Z</time>
      </trkpt>
      <trkpt lat="48.01991" lon="7.02494">
        <ele>859.78</ele>
        <time>2018-07-08T13:01:37Z</time>
      </trkpt>
      <trkpt lat="48.01988" lon="7.0249">
        <ele>860.35</ele>
        <time>2018-07-08T13:01:58Z</time>
      </trkpt>
      <trkpt lat="48.01979" lon="7.02488">
        <ele>862.13</ele>
        <time>2018-07-08T13:02:18Z</time>
      </trkpt>
      <trkpt lat="48.01982" lon="7.02484">
        <ele>863.73</ele>
        <time>2018-07-08T13:02:28Z</time>
      </trkpt>
      <trkpt lat="48.01991" lon="7.0248">
        <ele>864.87</ele>
        <time>2018-07-08T13:02:46Z</time>
      </trkpt>
      <trkpt lat="48.01993" lon="7.0247">
        <ele>865.62</ele>
        <time>2018-07-08T13:03:01Z</time>
      </trkpt>
      <trkpt lat="48.01998" lon="7.02458">
        <ele>867.44</ele>
        <time>2018-07-08T13:03:21Z</time>
      </trkpt>
      <trkpt lat="48.01993" lon="7.02456">
        <ele>868.39</ele>
        <time>2018-07-08T13:03:42Z</time>
      </trkpt>
      <trkpt lat="48.01982" lon="7.0246">
        <ele>870.85</ele>
        <time>2018-07-08T13:04:03Z</time>
      </trkpt>
      <trkpt lat="48.0198" lon="7.02464">
        <ele>870.5</ele>
        <time>2018-07-08T13:04:09Z</time>
      </trkpt>
      <trkpt lat="48.01976" lon="7.02467">
        <ele>870.99</ele>
        <time>2018-07-08T13:04:15Z</time>
      </trkpt>
      <trkpt lat="48.01974" lon="7.02461">
        <ele>872.04</ele>
        <time>2018-07-08T13:04:30Z</time>
      </trkpt>
      <trkpt lat="48.01976" lon="7.02459">
        <ele>872.16</ele>
        <time>2018-07-08T13:04:31Z</time>
      </trkpt>
      <trkpt lat="48.01992" lon="7.02465">
        <ele>871.84</ele>
        <time>2018-07-08T13:04:55Z</time>
      </trkpt>
      <trkpt lat="48.01999" lon="7.02462">
        <ele>872.86</ele>
        <time>2018-07-08T13:05:22Z</time>
      </trkpt>
      <trkpt lat="48.01997" lon="7.02453">
        <ele>874.99</ele>
        <time>2018-07-08T13:05:34Z</time>
      </trkpt>
      <trkpt lat="48.01997" lon="7.02451">
        <ele>875.28</ele>
        <time>2018-07-08T13:05:37Z</time>
      </trkpt>
      <trkpt lat="48.01993" lon="7.0245">
        <ele>875.15</ele>
        <time>2018-07-08T13:05:41Z</time>
      </trkpt>
      <trkpt lat="48.01989" lon="7.0245">
        <ele>876.12</ele>
        <time>2018-07-08T13:05:45Z</time>
      </trkpt>
      <trkpt lat="48.01981" lon="7.02447">
        <ele>877.6</ele>
        <time>2018-07-08T13:05:57Z</time>
      </trkpt>
      <trkpt lat="48.01973" lon="7.02443">
        <ele>878.24</ele>
        <time>2018-07-08T13:06:13Z</time>
      </trkpt>
      <trkpt lat="48.01964" lon="7.02438">
        <ele>880.5</ele>
        <time>2018-07-08T13:06:30Z</time>
      </trkpt>
      <trkpt lat="48.01955" lon="7.02438">
        <ele>881.22</ele>
        <time>2018-07-08T13:06:46Z</time>
      </trkpt>
      <trkpt lat="48.01941" lon="7.02447">
        <ele>883.39</ele>
        <time>2018-07-08T13:07:11Z</time>
      </trkpt>
      <trkpt lat="48.01935" lon="7.02452">
        <ele>884.76</ele>
        <time>2018-07-08T13:07:29Z</time>
      </trkpt>
      <trkpt lat="48.01927" lon="7.02458">
        <ele>886.88</ele>
        <time>2018-07-08T13:07:44Z</time>
      </trkpt>
      <trkpt lat="48.01926" lon="7.02457">
        <ele>887.03</ele>
        <time>2018-07-08T13:07:45Z</time>
      </trkpt>
      <trkpt lat="48.0193" lon="7.02452">
        <ele>888.56</ele>
        <time>2018-07-08T13:08:01Z</time>
      </trkpt>
      <trkpt lat="48.01934" lon="7.02444">
        <ele>890.34</ele>
        <time>2018-07-08T13:08:16Z</time>
      </trkpt>
      <trkpt lat="48.01937" lon="7.02437">
        <ele>891.87</ele>
        <time>2018-07-08T13:08:31Z</time>
      </trkpt>
      <trkpt lat="48.01937" lon="7.02434">
        <ele>892.18</ele>
        <time>2018-07-08T13:08:36Z</time>
      </trkpt>
      <trkpt lat="48.01941" lon="7.02427">
        <ele>894.23</ele>
        <time>2018-07-08T13:08:47Z</time>
      </trkpt>
      <trkpt lat="48.01939" lon="7.02417">
        <ele>895.11</ele>
        <time>2018-07-08T13:09:06Z</time>
      </trkpt>
      <trkpt lat="48.01931" lon="7.02419">
        <ele>895.19</ele>
        <time>2018-07-08T13:09:17Z</time>
      </trkpt>
      <trkpt lat="48.01927" lon="7.02419">
        <ele>896.31</ele>
        <time>2018-07-08T13:09:25Z</time>
      </trkpt>
      <trkpt lat="48.01909" lon="7.02428">
        <ele>898.59</ele>
        <time>2018-07-08T13:09:44Z</time>
      </trkpt>
      <trkpt lat="48.01902" lon="7.02426">
        <ele>900.02</ele>
        <time>2018-07-08T13:10:04Z</time>
      </trkpt>
      <trkpt lat="48.01901" lon="7.02418">
        <ele>902.05</ele>
        <time>2018-07-08T13:10:19Z</time>
      </trkpt>
      <trkpt lat="48.01895" lon="7.02413">
        <ele>903.48</ele>
        <time>2018-07-08T13:10:40Z</time>
      </trkpt>
      <trkpt lat="48.01895" lon="7.02422">
        <ele>902.57</ele>
        <time>2018-07-08T13:11:15Z</time>
      </trkpt>
      <trkpt lat="48.019" lon="7.0242">
        <ele>902.82</ele>
        <time>2018-07-08T13:11:18Z</time>
      </trkpt>
      <trkpt lat="48.01906" lon="7.02424">
        <ele>902.69</ele>
        <time>2018-07-08T13:11:45Z</time>
      </trkpt>
      <trkpt lat="48.01908" lon="7.02417">
        <ele>901.88</ele>
        <time>2018-07-08T13:12:14Z</time>
      </trkpt>
      <trkpt lat="48.01909" lon="7.02414">
        <ele>901.57</ele>
        <time>2018-07-08T13:12:46Z</time>
      </trkpt>
      <trkpt lat="48.01906" lon="7.02416">
        <ele>900.73</ele>
        <time>2018-07-08T13:13:06Z</time>
      </trkpt>
      <trkpt lat="48.0191" lon="7.02417">
        <ele>901</ele>
        <time>2018-07-08T13:13:13Z</time>
      </trkpt>
      <trkpt lat="48.01907" lon="7.02409">
        <ele>901.72</ele>
        <time>2018-07-08T13:13:25Z</time>
      </trkpt>
      <trkpt lat="48.019" lon="7.02395">
        <ele>903.72</ele>
        <time>2018-07-08T13:13:39Z</time>
      </trkpt>
      <trkpt lat="48.01898" lon="7.02379">
        <ele>905.68</ele>
        <time>2018-07-08T13:13:54Z</time>
      </trkpt>
      <trkpt lat="48.01898" lon="7.02376">
        <ele>906.56</ele>
        <time>2018-07-08T13:14:01Z</time>
      </trkpt>
      <trkpt lat="48.019" lon="7.02374">
        <ele>907.78</ele>
        <time>2018-07-08T13:14:06Z</time>
      </trkpt>
      <trkpt lat="48.01902" lon="7.02372">
        <ele>907.97</ele>
        <time>2018-07-08T13:14:09Z</time>
      </trkpt>
      <trkpt lat="48.01913" lon="7.02367">
        <ele>910.98</ele>
        <time>2018-07-08T13:14:29Z</time>
      </trkpt>
      <trkpt lat="48.01922" lon="7.02367">
        <ele>914.62</ele>
        <time>2018-07-08T13:14:43Z</time>
      </trkpt>
      <trkpt lat="48.01924" lon="7.02362">
        <ele>915.03</ele>
        <time>2018-07-08T13:14:52Z</time>
      </trkpt>
      <trkpt lat="48.01918" lon="7.02353">
        <ele>916.6</ele>
        <time>2018-07-08T13:15:07Z</time>
      </trkpt>
      <trkpt lat="48.0191" lon="7.02346">
        <ele>917.42</ele>
        <time>2018-07-08T13:15:21Z</time>
      </trkpt>
      <trkpt lat="48.01907" lon="7.02339">
        <ele>920.47</ele>
        <time>2018-07-08T13:15:36Z</time>
      </trkpt>
      <trkpt lat="48.01903" lon="7.02332">
        <ele>920.98</ele>
        <time>2018-07-08T13:15:46Z</time>
      </trkpt>
      <trkpt lat="48.01902" lon="7.02331">
        <ele>922.63</ele>
        <time>2018-07-08T13:15:48Z</time>
      </trkpt>
      <trkpt lat="48.01899" lon="7.02326">
        <ele>921.95</ele>
        <time>2018-07-08T13:15:52Z</time>
      </trkpt>
      <trkpt lat="48.01894" lon="7.02318">
        <ele>922.8</ele>
        <time>2018-07-08T13:16:00Z</time>
      </trkpt>
      <trkpt lat="48.0189" lon="7.02302">
        <ele>925.46</ele>
        <time>2018-07-08T13:16:17Z</time>
      </trkpt>
      <trkpt lat="48.01886" lon="7.02293">
        <ele>926</ele>
        <time>2018-07-08T13:16:28Z</time>
      </trkpt>
      <trkpt lat="48.01885" lon="7.02278">
        <ele>927.59</ele>
        <time>2018-07-08T13:16:45Z</time>
      </trkpt>
      <trkpt lat="48.01881" lon="7.02256">
        <ele>929.44</ele>
        <time>2018-07-08T13:16:58Z</time>
      </trkpt>
      <trkpt lat="48.01883" lon="7.02243">
        <ele>931.85</ele>
        <time>2018-07-08T13:17:14Z</time>
      </trkpt>
      <trkpt lat="48.0189" lon="7.02229">
        <ele>933.89</ele>
        <time>2018-07-08T13:17:31Z</time>
      </trkpt>
      <trkpt lat="48.01888" lon="7.02215">
        <ele>937</ele>
        <time>2018-07-08T13:17:45Z</time>
      </trkpt>
      <trkpt lat="48.01886" lon="7.02194">
        <ele>937.71</ele>
        <time>2018-07-08T13:18:04Z</time>
      </trkpt>
      <trkpt lat="48.0188" lon="7.02181">
        <ele>939.77</ele>
        <time>2018-07-08T13:18:21Z</time>
      </trkpt>
      <trkpt lat="48.01877" lon="7.0218">
        <ele>940.23</ele>
        <time>2018-07-08T13:18:27Z</time>
      </trkpt>
      <trkpt lat="48.01873" lon="7.02167">
        <ele>942.28</ele>
        <time>2018-07-08T13:18:40Z</time>
      </trkpt>
      <trkpt lat="48.01872" lon="7.02167">
        <ele>943.74</ele>
        <time>2018-07-08T13:18:47Z</time>
      </trkpt>
      <trkpt lat="48.01869" lon="7.02168">
        <ele>944.3</ele>
        <time>2018-07-08T13:18:50Z</time>
      </trkpt>
      <trkpt lat="48.01856" lon="7.02167">
        <ele>944.9</ele>
        <time>2018-07-08T13:19:05Z</time>
      </trkpt>
      <trkpt lat="48.01855" lon="7.02167">
        <ele>945.19</ele>
        <time>2018-07-08T13:19:06Z</time>
      </trkpt>
      <trkpt lat="48.01853" lon="7.02166">
        <ele>945.45</ele>
        <time>2018-07-08T13:19:08Z</time>
      </trkpt>
      <trkpt lat="48.01848" lon="7.02168">
        <ele>945.34</ele>
        <time>2018-07-08T13:19:13Z</time>
      </trkpt>
      <trkpt lat="48.01845" lon="7.02169">
        <ele>948.78</ele>
        <time>2018-07-08T13:19:21Z</time>
      </trkpt>
      <trkpt lat="48.01843" lon="7.02169">
        <ele>949.52</ele>
        <time>2018-07-08T13:19:29Z</time>
      </trkpt>
      <trkpt lat="48.01834" lon="7.02162">
        <ele>950.05</ele>
        <time>2018-07-08T13:19:43Z</time>
      </trkpt>
      <trkpt lat="48.01824" lon="7.02159">
        <ele>951.96</ele>
        <time>2018-07-08T13:19:59Z</time>
      </trkpt>
      <trkpt lat="48.0182" lon="7.02157">
        <ele>953.2</ele>
        <time>2018-07-08T13:20:17Z</time>
      </trkpt>
      <trkpt lat="48.01807" lon="7.02159">
        <ele>956.99</ele>
        <time>2018-07-08T13:20:31Z</time>
      </trkpt>
      <trkpt lat="48.01804" lon="7.0215">
        <ele>957.91</ele>
        <time>2018-07-08T13:20:46Z</time>
      </trkpt>
      <trkpt lat="48.018" lon="7.02146">
        <ele>959.75</ele>
        <time>2018-07-08T13:20:53Z</time>
      </trkpt>
      <trkpt lat="48.01797" lon="7.02147">
        <ele>959.08</ele>
        <time>2018-07-08T13:20:55Z</time>
      </trkpt>
      <trkpt lat="48.0179" lon="7.02149">
        <ele>961.89</ele>
        <time>2018-07-08T13:21:11Z</time>
      </trkpt>
      <trkpt lat="48.01788" lon="7.02151">
        <ele>962.12</ele>
        <time>2018-07-08T13:21:15Z</time>
      </trkpt>
      <trkpt lat="48.01771" lon="7.02151">
        <ele>962.65</ele>
        <time>2018-07-08T13:21:34Z</time>
      </trkpt>
      <trkpt lat="48.0176" lon="7.02151">
        <ele>964.84</ele>
        <time>2018-07-08T13:21:46Z</time>
      </trkpt>
      <trkpt lat="48.01758" lon="7.02144">
        <ele>968.97</ele>
        <time>2018-07-08T13:22:06Z</time>
      </trkpt>
      <trkpt lat="48.01772" lon="7.02138">
        <ele>970.72</ele>
        <time>2018-07-08T13:22:20Z</time>
      </trkpt>
      <trkpt lat="48.01778" lon="7.02129">
        <ele>971.93</ele>
        <time>2018-07-08T13:22:33Z</time>
      </trkpt>
      <trkpt lat="48.01784" lon="7.02118">
        <ele>975.18</ele>
        <time>2018-07-08T13:22:47Z</time>
      </trkpt>
      <trkpt lat="48.01791" lon="7.02107">
        <ele>977.05</ele>
        <time>2018-07-08T13:23:00Z</time>
      </trkpt>
      <trkpt lat="48.01801" lon="7.02099">
        <ele>978.03</ele>
        <time>2018-07-08T13:23:15Z</time>
      </trkpt>
      <trkpt lat="48.01804" lon="7.02091">
        <ele>979.24</ele>
        <time>2018-07-08T13:23:28Z</time>
      </trkpt>
      <trkpt lat="48.0181" lon="7.02089">
        <ele>980.97</ele>
        <time>2018-07-08T13:23:35Z</time>
      </trkpt>
      <trkpt lat="48.01813" lon="7.02089">
        <ele>983.77</ele>
        <time>2018-07-08T13:23:39Z</time>
      </trkpt>
      <trkpt lat="48.01818" lon="7.0209">
        <ele>980.2</ele>
        <time>2018-07-08T13:23:43Z</time>
      </trkpt>
      <trkpt lat="48.01822" lon="7.02086">
        <ele>982.17</ele>
        <time>2018-07-08T13:23:50Z</time>
      </trkpt>
      <trkpt lat="48.01827" lon="7.02083">
        <ele>983.08</ele>
        <time>2018-07-08T13:24:00Z</time>
      </trkpt>
      <trkpt lat="48.01835" lon="7.02077">
        <ele>984.35</ele>
        <time>2018-07-08T13:24:15Z</time>
      </trkpt>
      <trkpt lat="48.01841" lon="7.02071">
        <ele>985.93</ele>
        <time>2018-07-08T13:24:30Z</time>
      </trkpt>
      <trkpt lat="48.01858" lon="7.02064">
        <ele>987.75</ele>
        <time>2018-07-08T13:24:43Z</time>
      </trkpt>
      <trkpt lat="48.01862" lon="7.02062">
        <ele>988.23</ele>
        <time>2018-07-08T13:24:47Z</time>
      </trkpt>
      <trkpt lat="48.01871" lon="7.02056">
        <ele>990.34</ele>
        <time>2018-07-08T13:25:01Z</time>
      </trkpt>
      <trkpt lat="48.01874" lon="7.02051">
        <ele>991.28</ele>
        <time>2018-07-08T13:25:12Z</time>
      </trkpt>
      <trkpt lat="48.01882" lon="7.02049">
        <ele>992.37</ele>
        <time>2018-07-08T13:25:27Z</time>
      </trkpt>
      <trkpt lat="48.01886" lon="7.02045">
        <ele>996.45</ele>
        <time>2018-07-08T13:25:39Z</time>
      </trkpt>
      <trkpt lat="48.01894" lon="7.02044">
        <ele>995.19</ele>
        <time>2018-07-08T13:25:56Z</time>
      </trkpt>
      <trkpt lat="48.01899" lon="7.02046">
        <ele>995.98</ele>
        <time>2018-07-08T13:26:06Z</time>
      </trkpt>
      <trkpt lat="48.01902" lon="7.02046">
        <ele>997.42</ele>
        <time>2018-07-08T13:26:14Z</time>
      </trkpt>
      <trkpt lat="48.01906" lon="7.02045">
        <ele>997.78</ele>
        <time>2018-07-08T13:26:18Z</time>
      </trkpt>
      <trkpt lat="48.01918" lon="7.0204">
        <ele>1000.25</ele>
        <time>2018-07-08T13:26:35Z</time>
      </trkpt>
      <trkpt lat="48.0193" lon="7.02037">
        <ele>1002.52</ele>
        <time>2018-07-08T13:26:54Z</time>
      </trkpt>
      <trkpt lat="48.01936" lon="7.02034">
        <ele>1002.36</ele>
        <time>2018-07-08T13:26:58Z</time>
      </trkpt>
      <trkpt lat="48.01944" lon="7.02023">
        <ele>1004.87</ele>
        <time>2018-07-08T13:27:17Z</time>
      </trkpt>
      <trkpt lat="48.01944" lon="7.02022">
        <ele>1004.25</ele>
        <time>2018-07-08T13:27:18Z</time>
      </trkpt>
      <trkpt lat="48.01947" lon="7.02012">
        <ele>1006.56</ele>
        <time>2018-07-08T13:27:29Z</time>
      </trkpt>
      <trkpt lat="48.01951" lon="7.02007">
        <ele>1006.64</ele>
        <time>2018-07-08T13:27:36Z</time>
      </trkpt>
      <trkpt lat="48.01953" lon="7.02004">
        <ele>1007.44</ele>
        <time>2018-07-08T13:27:39Z</time>
      </trkpt>
      <trkpt lat="48.01959" lon="7.01995">
        <ele>1008.17</ele>
        <time>2018-07-08T13:27:58Z</time>
      </trkpt>
      <trkpt lat="48.01959" lon="7.01994">
        <ele>1008.92</ele>
        <time>2018-07-08T13:28:00Z</time>
      </trkpt>
      <trkpt lat="48.01963" lon="7.01985">
        <ele>1010</ele>
        <time>2018-07-08T13:28:14Z</time>
      </trkpt>
      <trkpt lat="48.01952" lon="7.01976">
        <ele>1010.58</ele>
        <time>2018-07-08T13:28:34Z</time>
      </trkpt>
      <trkpt lat="48.0194" lon="7.01977">
        <ele>1010.88</ele>
        <time>2018-07-08T13:28:52Z</time>
      </trkpt>
      <trkpt lat="48.01927" lon="7.01978">
        <ele>1011.81</ele>
        <time>2018-07-08T13:29:07Z</time>
      </trkpt>
      <trkpt lat="48.01913" lon="7.01969">
        <ele>1012.61</ele>
        <time>2018-07-08T13:29:20Z</time>
      </trkpt>
      <trkpt lat="48.01902" lon="7.01965">
        <ele>1014.64</ele>
        <time>2018-07-08T13:29:32Z</time>
      </trkpt>
      <trkpt lat="48.01888" lon="7.01964">
        <ele>1017.14</ele>
        <time>2018-07-08T13:29:48Z</time>
      </trkpt>
      <trkpt lat="48.0187" lon="7.01962">
        <ele>1018.99</ele>
        <time>2018-07-08T13:30:05Z</time>
      </trkpt>
      <trkpt lat="48.01858" lon="7.01959">
        <ele>1020.29</ele>
        <time>2018-07-08T13:30:18Z</time>
      </trkpt>
      <trkpt lat="48.01847" lon="7.01963">
        <ele>1020.8</ele>
        <time>2018-07-08T13:30:31Z</time>
      </trkpt>
      <trkpt lat="48.0183" lon="7.01959">
        <ele>1023.83</ele>
        <time>2018-07-08T13:30:46Z</time>
      </trkpt>
      <trkpt lat="48.01821" lon="7.01958">
        <ele>1025.58</ele>
        <time>2018-07-08T13:30:56Z</time>
      </trkpt>
      <trkpt lat="48.01811" lon="7.01957">
        <ele>1026.42</ele>
        <time>2018-07-08T13:31:07Z</time>
      </trkpt>
      <trkpt lat="48.01809" lon="7.01956">
        <ele>1027.54</ele>
        <time>2018-07-08T13:31:10Z</time>
      </trkpt>
      <trkpt lat="48.018" lon="7.0195">
        <ele>1028.69</ele>
        <time>2018-07-08T13:31:18Z</time>
      </trkpt>
      <trkpt lat="48.01779" lon="7.01937">
        <ele>1031.35</ele>
        <time>2018-07-08T13:31:37Z</time>
      </trkpt>
      <trkpt lat="48.01774" lon="7.01934">
        <ele>1031.6</ele>
        <time>2018-07-08T13:31:41Z</time>
      </trkpt>
      <trkpt lat="48.0177" lon="7.01929">
        <ele>1032.6</ele>
        <time>2018-07-08T13:31:46Z</time>
      </trkpt>
      <trkpt lat="48.01766" lon="7.01915">
        <ele>1033.56</ele>
        <time>2018-07-08T13:31:55Z</time>
      </trkpt>
      <trkpt lat="48.01764" lon="7.01907">
        <ele>1033.21</ele>
        <time>2018-07-08T13:31:58Z</time>
      </trkpt>
      <trkpt lat="48.01764" lon="7.019">
        <ele>1034.26</ele>
        <time>2018-07-08T13:32:01Z</time>
      </trkpt>
      <trkpt lat="48.01764" lon="7.01898">
        <ele>1034.19</ele>
        <time>2018-07-08T13:32:03Z</time>
      </trkpt>
      <trkpt lat="48.01765" lon="7.01884">
        <ele>1035.48</ele>
        <time>2018-07-08T13:32:09Z</time>
      </trkpt>
      <trkpt lat="48.01769" lon="7.01874">
        <ele>1036.29</ele>
        <time>2018-07-08T13:32:15Z</time>
      </trkpt>
      <trkpt lat="48.01773" lon="7.01866">
        <ele>1037.13</ele>
        <time>2018-07-08T13:32:20Z</time>
      </trkpt>
      <trkpt lat="48.01777" lon="7.01862">
        <ele>1038.06</ele>
        <time>2018-07-08T13:32:24Z</time>
      </trkpt>
      <trkpt lat="48.01787" lon="7.01851">
        <ele>1039.05</ele>
        <time>2018-07-08T13:32:40Z</time>
      </trkpt>
      <trkpt lat="48.01789" lon="7.01855">
        <ele>1040.25</ele>
        <time>2018-07-08T13:32:43Z</time>
      </trkpt>
      <trkpt lat="48.01797" lon="7.01865">
        <ele>1040.66</ele>
        <time>2018-07-08T13:33:02Z</time>
      </trkpt>
      <trkpt lat="48.01798" lon="7.01876">
        <ele>1040.91</ele>
        <time>2018-07-08T13:33:21Z</time>
      </trkpt>
      <trkpt lat="48.01794" lon="7.01881">
        <ele>1041.48</ele>
        <time>2018-07-08T13:33:53Z</time>
      </trkpt>
      <trkpt lat="48.01793" lon="7.01873">
        <ele>1040.99</ele>
        <time>2018-07-08T13:34:14Z</time>
      </trkpt>
      <trkpt lat="48.01791" lon="7.01855">
        <ele>1039.64</ele>
        <time>2018-07-08T13:34:35Z</time>
      </trkpt>
      <trkpt lat="48.01792" lon="7.01854">
        <ele>1042.66</ele>
        <time>2018-07-08T13:34:41Z</time>
      </trkpt>
      <trkpt lat="48.01791" lon="7.01852">
        <ele>1039.57</ele>
        <time>2018-07-08T13:35:03Z</time>
      </trkpt>
      <trkpt lat="48.01789" lon="7.01859">
        <ele>1040.9</ele>
        <time>2018-07-08T13:35:26Z</time>
      </trkpt>
      <trkpt lat="48.01789" lon="7.01854">
        <ele>1040.78</ele>
        <time>2018-07-08T13:35:51Z</time>
      </trkpt>
      <trkpt lat="48.01784" lon="7.01852">
        <ele>1040.64</ele>
        <time>2018-07-08T13:36:10Z</time>
      </trkpt>
      <trkpt lat="48.01783" lon="7.01853">
        <ele>1041.51</ele>
        <time>2018-07-08T13:36:39Z</time>
      </trkpt>
      <trkpt lat="48.0179" lon="7.01854">
        <ele>1042.08</ele>
        <time>2018-07-08T13:36:55Z</time>
      </trkpt>
      <trkpt lat="48.01792" lon="7.01848">
        <ele>1042.15</ele>
        <time>2018-07-08T13:37:15Z</time>
      </trkpt>
      <trkpt lat="48.01791" lon="7.01856">
        <ele>1041.74</ele>
        <time>2018-07-08T13:37:42Z</time>
      </trkpt>
      <trkpt lat="48.01792" lon="7.01849">
        <ele>1043.61</ele>
        <time>2018-07-08T13:38:10Z</time>
      </trkpt>
      <trkpt lat="48.0179" lon="7.01857">
        <ele>1043.01</ele>
        <time>2018-07-08T13:38:31Z</time>
      </trkpt>
      <trkpt lat="48.01783" lon="7.01849">
        <ele>1043.23</ele>
        <time>2018-07-08T13:38:49Z</time>
      </trkpt>
      <trkpt lat="48.0178" lon="7.01855">
        <ele>1043.7</ele>
        <time>2018-07-08T13:39:17Z</time>
      </trkpt>
      <trkpt lat="48.01781" lon="7.01855">
        <ele>1044.56</ele>
        <time>2018-07-08T13:39:52Z</time>
      </trkpt>
      <trkpt lat="48.01781" lon="7.01858">
        <ele>1045.15</ele>
        <time>2018-07-08T13:40:31Z</time>
      </trkpt>
      <trkpt lat="48.01779" lon="7.0186">
        <ele>1046.12</ele>
        <time>2018-07-08T13:41:05Z</time>
      </trkpt>
      <trkpt lat="48.01787" lon="7.01855">
        <ele>1046.77</ele>
        <time>2018-07-08T13:41:20Z</time>
      </trkpt>
      <trkpt lat="48.01789" lon="7.01854">
        <ele>1047.88</ele>
        <time>2018-07-08T13:41:47Z</time>
      </trkpt>
      <trkpt lat="48.01791" lon="7.01854">
        <ele>1048.31</ele>
        <time>2018-07-08T13:42:14Z</time>
      </trkpt>
      <trkpt lat="48.01792" lon="7.01854">
        <ele>1047.96</ele>
        <time>2018-07-08T13:42:36Z</time>
      </trkpt>
      <trkpt lat="48.01792" lon="7.01851">
        <ele>1049.07</ele>
        <time>2018-07-08T13:43:01Z</time>
      </trkpt>
      <trkpt lat="48.01792" lon="7.01848">
        <ele>1049.34</ele>
        <time>2018-07-08T13:43:26Z</time>
      </trkpt>
      <trkpt lat="48.01791" lon="7.01849">
        <ele>1050.45</ele>
        <time>2018-07-08T13:43:48Z</time>
      </trkpt>
      <trkpt lat="48.01791" lon="7.01853">
        <ele>1050.03</ele>
        <time>2018-07-08T13:44:09Z</time>
      </trkpt>
      <trkpt lat="48.01791" lon="7.01852">
        <ele>1050.52</ele>
        <time>2018-07-08T13:44:35Z</time>
      </trkpt>
      <trkpt lat="48.01789" lon="7.01851">
        <ele>1051.38</ele>
        <time>2018-07-08T13:44:59Z</time>
      </trkpt>
      <trkpt lat="48.0179" lon="7.01853">
        <ele>1051.29</ele>
        <time>2018-07-08T13:45:26Z</time>
      </trkpt>
      <trkpt lat="48.0179" lon="7.01851">
        <ele>1052.29</ele>
        <time>2018-07-08T13:45:54Z</time>
      </trkpt>
      <trkpt lat="48.0179" lon="7.01851">
        <ele>1052.53</ele>
        <time>2018-07-08T13:46:20Z</time>
      </trkpt>
      <trkpt lat="48.01792" lon="7.0186">
        <ele>1053.92</ele>
        <time>2018-07-08T13:46:42Z</time>
      </trkpt>
      <trkpt lat="48.01792" lon="7.01869">
        <ele>1054.41</ele>
        <time>2018-07-08T13:46:57Z</time>
      </trkpt>
      <trkpt lat="48.0179" lon="7.01871">
        <ele>1054.59</ele>
        <time>2018-07-08T13:47:17Z</time>
      </trkpt>
      <trkpt lat="48.01789" lon="7.01874">
        <ele>1055.03</ele>
        <time>2018-07-08T13:47:39Z</time>
      </trkpt>
      <trkpt lat="48.01794" lon="7.01875">
        <ele>1055.95</ele>
        <time>2018-07-08T13:48:04Z</time>
      </trkpt>
      <trkpt lat="48.01791" lon="7.01873">
        <ele>1055.55</ele>
        <time>2018-07-08T13:48:33Z</time>
      </trkpt>
      <trkpt lat="48.01791" lon="7.01873">
        <ele>1056.32</ele>
        <time>2018-07-08T13:48:53Z</time>
      </trkpt>
      <trkpt lat="48.01792" lon="7.01874">
        <ele>1056.3</ele>
        <time>2018-07-08T13:49:27Z</time>
      </trkpt>
      <trkpt lat="48.01793" lon="7.01875">
        <ele>1055.72</ele>
        <time>2018-07-08T13:49:54Z</time>
      </trkpt>
      <trkpt lat="48.01793" lon="7.01874">
        <ele>1056.84</ele>
        <time>2018-07-08T13:49:56Z</time>
      </trkpt>
      <trkpt lat="48.01793" lon="7.01875">
        <ele>1057.14</ele>
        <time>2018-07-08T13:50:23Z</time>
      </trkpt>
      <trkpt lat="48.01792" lon="7.01875">
        <ele>1057.82</ele>
        <time>2018-07-08T13:50:57Z</time>
      </trkpt>
      <trkpt lat="48.01795" lon="7.01864">
        <ele>1056.52</ele>
        <time>2018-07-08T13:51:19Z</time>
      </trkpt>
      <trkpt lat="48.01798" lon="7.01856">
        <ele>1055.81</ele>
        <time>2018-07-08T13:51:28Z</time>
      </trkpt>
      <trkpt lat="48.01799" lon="7.01853">
        <ele>1055.65</ele>
        <time>2018-07-08T13:51:30Z</time>
      </trkpt>
      <trkpt lat="48.01797" lon="7.01832">
        <ele>1057.02</ele>
        <time>2018-07-08T13:51:44Z</time>
      </trkpt>
      <trkpt lat="48.01795" lon="7.01822">
        <ele>1060.41</ele>
        <time>2018-07-08T13:51:57Z</time>
      </trkpt>
      <trkpt lat="48.01787" lon="7.01815">
        <ele>1063.48</ele>
        <time>2018-07-08T13:52:17Z</time>
      </trkpt>
      <trkpt lat="48.01786" lon="7.01815">
        <ele>1062.99</ele>
        <time>2018-07-08T13:52:20Z</time>
      </trkpt>
      <trkpt lat="48.01777" lon="7.01806">
        <ele>1066.06</ele>
        <time>2018-07-08T13:52:43Z</time>
      </trkpt>
      <trkpt lat="48.01775" lon="7.01805">
        <ele>1065.63</ele>
        <time>2018-07-08T13:52:50Z</time>
      </trkpt>
      <trkpt lat="48.01772" lon="7.0179">
        <ele>1069.61</ele>
        <time>2018-07-08T13:53:16Z</time>
      </trkpt>
      <trkpt lat="48.01769" lon="7.01781">
        <ele>1072.63</ele>
        <time>2018-07-08T13:53:38Z</time>
      </trkpt>
      <trkpt lat="48.01765" lon="7.01771">
        <ele>1075.56</ele>
        <time>2018-07-08T13:54:00Z</time>
      </trkpt>
      <trkpt lat="48.01762" lon="7.01757">
        <ele>1077.32</ele>
        <time>2018-07-08T13:54:23Z</time>
      </trkpt>
      <trkpt lat="48.0176" lon="7.0175">
        <ele>1080.44</ele>
        <time>2018-07-08T13:54:39Z</time>
      </trkpt>
      <trkpt lat="48.01764" lon="7.01752">
        <ele>1084.21</ele>
        <time>2018-07-08T13:55:03Z</time>
      </trkpt>
      <trkpt lat="48.01765" lon="7.01754">
        <ele>1082.99</ele>
        <time>2018-07-08T13:55:06Z</time>
      </trkpt>
      <trkpt lat="48.01775" lon="7.01754">
        <ele>1085.84</ele>
        <time>2018-07-08T13:55:26Z</time>
      </trkpt>
      <trkpt lat="48.0178" lon="7.0175">
        <ele>1088.31</ele>
        <time>2018-07-08T13:55:44Z</time>
      </trkpt>
      <trkpt lat="48.01785" lon="7.01752">
        <ele>1091.66</ele>
        <time>2018-07-08T13:56:04Z</time>
      </trkpt>
      <trkpt lat="48.01783" lon="7.01746">
        <ele>1092.82</ele>
        <time>2018-07-08T13:56:24Z</time>
      </trkpt>
      <trkpt lat="48.01779" lon="7.01742">
        <ele>1094.02</ele>
        <time>2018-07-08T13:56:35Z</time>
      </trkpt>
      <trkpt lat="48.0177" lon="7.01727">
        <ele>1097.06</ele>
        <time>2018-07-08T13:56:58Z</time>
      </trkpt>
      <trkpt lat="48.01755" lon="7.01712">
        <ele>1097.9</ele>
        <time>2018-07-08T13:57:21Z</time>
      </trkpt>
      <trkpt lat="48.01751" lon="7.01699">
        <ele>1099.15</ele>
        <time>2018-07-08T13:57:36Z</time>
      </trkpt>
      <trkpt lat="48.01746" lon="7.01692">
        <ele>1103.17</ele>
        <time>2018-07-08T13:57:57Z</time>
      </trkpt>
      <trkpt lat="48.01736" lon="7.01673">
        <ele>1105.84</ele>
        <time>2018-07-08T13:58:17Z</time>
      </trkpt>
      <trkpt lat="48.01726" lon="7.01652">
        <ele>1106.84</ele>
        <time>2018-07-08T13:58:40Z</time>
      </trkpt>
      <trkpt lat="48.01722" lon="7.01626">
        <ele>1109.89</ele>
        <time>2018-07-08T13:59:06Z</time>
      </trkpt>
      <trkpt lat="48.01708" lon="7.01598">
        <ele>1110.85</ele>
        <time>2018-07-08T13:59:29Z</time>
      </trkpt>
      <trkpt lat="48.01707" lon="7.0158">
        <ele>1111.98</ele>
        <time>2018-07-08T13:59:50Z</time>
      </trkpt>
      <trkpt lat="48.01696" lon="7.0157">
        <ele>1111.56</ele>
        <time>2018-07-08T14:00:11Z</time>
      </trkpt>
      <trkpt lat="48.01685" lon="7.01559">
        <ele>1114.09</ele>
        <time>2018-07-08T14:00:29Z</time>
      </trkpt>
      <trkpt lat="48.01671" lon="7.0154">
        <ele>1115.1</ele>
        <time>2018-07-08T14:00:50Z</time>
      </trkpt>
      <trkpt lat="48.01665" lon="7.01526">
        <ele>1117.08</ele>
        <time>2018-07-08T14:01:11Z</time>
      </trkpt>
      <trkpt lat="48.01662" lon="7.01516">
        <ele>1117.1</ele>
        <time>2018-07-08T14:01:33Z</time>
      </trkpt>
      <trkpt lat="48.01662" lon="7.01516">
        <ele>1109.78</ele>
        <time>2018-07-08T14:01:35Z</time>
      </trkpt>
      <trkpt lat="48.01661" lon="7.01515">
        <ele>1124.12</ele>
        <time>2018-07-08T14:01:36Z</time>
      </trkpt>
      <trkpt lat="48.01661" lon="7.01514">
        <ele>1118.37</ele>
        <time>2018-07-08T14:01:37Z</time>
      </trkpt>
      <trkpt lat="48.01655" lon="7.01516">
        <ele>1118.31</ele>
        <time>2018-07-08T14:01:41Z</time>
      </trkpt>
      <trkpt lat="48.0164" lon="7.01503">
        <ele>1120.87</ele>
        <time>2018-07-08T14:01:56Z</time>
      </trkpt>
      <trkpt lat="48.01633" lon="7.01491">
        <ele>1124.01</ele>
        <time>2018-07-08T14:02:11Z</time>
      </trkpt>
      <trkpt lat="48.01631" lon="7.01484">
        <ele>1124.09</ele>
        <time>2018-07-08T14:02:29Z</time>
      </trkpt>
      <trkpt lat="48.01621" lon="7.01476">
        <ele>1125.12</ele>
        <time>2018-07-08T14:02:45Z</time>
      </trkpt>
      <trkpt lat="48.01618" lon="7.01465">
        <ele>1128.16</ele>
        <time>2018-07-08T14:02:57Z</time>
      </trkpt>
      <trkpt lat="48.01616" lon="7.01456">
        <ele>1128.43</ele>
        <time>2018-07-08T14:03:05Z</time>
      </trkpt>
      <trkpt lat="48.01609" lon="7.01448">
        <ele>1129.74</ele>
        <time>2018-07-08T14:03:16Z</time>
      </trkpt>
      <trkpt lat="48.01603" lon="7.0144">
        <ele>1129.84</ele>
        <time>2018-07-08T14:03:24Z</time>
      </trkpt>
      <trkpt lat="48.01594" lon="7.01432">
        <ele>1131.13</ele>
        <time>2018-07-08T14:03:36Z</time>
      </trkpt>
      <trkpt lat="48.01587" lon="7.01419">
        <ele>1131.41</ele>
        <time>2018-07-08T14:03:50Z</time>
      </trkpt>
      <trkpt lat="48.01584" lon="7.01417">
        <ele>1132.44</ele>
        <time>2018-07-08T14:03:54Z</time>
      </trkpt>
      <trkpt lat="48.01573" lon="7.01403">
        <ele>1133.81</ele>
        <time>2018-07-08T14:04:10Z</time>
      </trkpt>
      <trkpt lat="48.01571" lon="7.01401">
        <ele>1133.68</ele>
        <time>2018-07-08T14:04:12Z</time>
      </trkpt>
      <trkpt lat="48.01563" lon="7.01392">
        <ele>1134.82</ele>
        <time>2018-07-08T14:04:24Z</time>
      </trkpt>
      <trkpt lat="48.01556" lon="7.01385">
        <ele>1134.29</ele>
        <time>2018-07-08T14:04:34Z</time>
      </trkpt>
      <trkpt lat="48.01546" lon="7.01373">
        <ele>1135.77</ele>
        <time>2018-07-08T14:04:49Z</time>
      </trkpt>
      <trkpt lat="48.01544" lon="7.01371">
        <ele>1136.33</ele>
        <time>2018-07-08T14:04:52Z</time>
      </trkpt>
      <trkpt lat="48.01532" lon="7.01365">
        <ele>1136.6</ele>
        <time>2018-07-08T14:05:07Z</time>
      </trkpt>
      <trkpt lat="48.01524" lon="7.01358">
        <ele>1137.01</ele>
        <time>2018-07-08T14:05:19Z</time>
      </trkpt>
      <trkpt lat="48.0152" lon="7.01355">
        <ele>1137.8</ele>
        <time>2018-07-08T14:05:24Z</time>
      </trkpt>
      <trkpt lat="48.01511" lon="7.01339">
        <ele>1137.71</ele>
        <time>2018-07-08T14:05:38Z</time>
      </trkpt>
      <trkpt lat="48.01505" lon="7.01327">
        <ele>1137.37</ele>
        <time>2018-07-08T14:05:50Z</time>
      </trkpt>
      <trkpt lat="48.01503" lon="7.01323">
        <ele>1138.9</ele>
        <time>2018-07-08T14:05:54Z</time>
      </trkpt>
      <trkpt lat="48.01495" lon="7.01309">
        <ele>1139.11</ele>
        <time>2018-07-08T14:06:08Z</time>
      </trkpt>
      <trkpt lat="48.01494" lon="7.01303">
        <ele>1142.25</ele>
        <time>2018-07-08T14:06:15Z</time>
      </trkpt>
      <trkpt lat="48.01493" lon="7.01294">
        <ele>1142.58</ele>
        <time>2018-07-08T14:06:32Z</time>
      </trkpt>
      <trkpt lat="48.01493" lon="7.01282">
        <ele>1143.57</ele>
        <time>2018-07-08T14:06:42Z</time>
      </trkpt>
      <trkpt lat="48.01495" lon="7.01274">
        <ele>1144.71</ele>
        <time>2018-07-08T14:06:51Z</time>
      </trkpt>
      <trkpt lat="48.01495" lon="7.0126">
        <ele>1146.02</ele>
        <time>2018-07-08T14:07:09Z</time>
      </trkpt>
      <trkpt lat="48.01499" lon="7.01259">
        <ele>1146.59</ele>
        <time>2018-07-08T14:07:34Z</time>
      </trkpt>
      <trkpt lat="48.01511" lon="7.01273">
        <ele>1147.45</ele>
        <time>2018-07-08T14:07:54Z</time>
      </trkpt>
      <trkpt lat="48.01511" lon="7.01262">
        <ele>1149.17</ele>
        <time>2018-07-08T14:08:08Z</time>
      </trkpt>
      <trkpt lat="48.01507" lon="7.01237">
        <ele>1149.86</ele>
        <time>2018-07-08T14:08:27Z</time>
      </trkpt>
      <trkpt lat="48.01506" lon="7.01212">
        <ele>1150.58</ele>
        <time>2018-07-08T14:08:42Z</time>
      </trkpt>
      <trkpt lat="48.01513" lon="7.01189">
        <ele>1151.95</ele>
        <time>2018-07-08T14:08:57Z</time>
      </trkpt>
      <trkpt lat="48.01522" lon="7.01169">
        <ele>1153.08</ele>
        <time>2018-07-08T14:09:16Z</time>
      </trkpt>
      <trkpt lat="48.01524" lon="7.01164">
        <ele>1153.62</ele>
        <time>2018-07-08T14:09:20Z</time>
      </trkpt>
      <trkpt lat="48.01532" lon="7.01153">
        <ele>1154.92</ele>
        <time>2018-07-08T14:09:36Z</time>
      </trkpt>
      <trkpt lat="48.01543" lon="7.01139">
        <ele>1155.36</ele>
        <time>2018-07-08T14:09:53Z</time>
      </trkpt>
      <trkpt lat="48.01552" lon="7.01127">
        <ele>1156.85</ele>
        <time>2018-07-08T14:10:08Z</time>
      </trkpt>
      <trkpt lat="48.01562" lon="7.01112">
        <ele>1157.66</ele>
        <time>2018-07-08T14:10:21Z</time>
      </trkpt>
      <trkpt lat="48.01573" lon="7.01097">
        <ele>1158.89</ele>
        <time>2018-07-08T14:10:36Z</time>
      </trkpt>
      <trkpt lat="48.01583" lon="7.01083">
        <ele>1159.41</ele>
        <time>2018-07-08T14:10:50Z</time>
      </trkpt>
      <trkpt lat="48.01594" lon="7.01063">
        <ele>1160.92</ele>
        <time>2018-07-08T14:11:06Z</time>
      </trkpt>
      <trkpt lat="48.01604" lon="7.01045">
        <ele>1162.72</ele>
        <time>2018-07-08T14:11:22Z</time>
      </trkpt>
      <trkpt lat="48.01615" lon="7.01027">
        <ele>1163.26</ele>
        <time>2018-07-08T14:11:38Z</time>
      </trkpt>
      <trkpt lat="48.01619" lon="7.01018">
        <ele>1164.65</ele>
        <time>2018-07-08T14:11:46Z</time>
      </trkpt>
      <trkpt lat="48.01626" lon="7.00994">
        <ele>1166.51</ele>
        <time>2018-07-08T14:12:03Z</time>
      </trkpt>
      <trkpt lat="48.0163" lon="7.00976">
        <ele>1167.14</ele>
        <time>2018-07-08T14:12:18Z</time>
      </trkpt>
      <trkpt lat="48.01631" lon="7.00952">
        <ele>1169.93</ele>
        <time>2018-07-08T14:12:34Z</time>
      </trkpt>
      <trkpt lat="48.01631" lon="7.00916">
        <ele>1171.54</ele>
        <time>2018-07-08T14:12:56Z</time>
      </trkpt>
      <trkpt lat="48.0163" lon="7.0088">
        <ele>1173.23</ele>
        <time>2018-07-08T14:13:18Z</time>
      </trkpt>
      <trkpt lat="48.01632" lon="7.00847">
        <ele>1175.38</ele>
        <time>2018-07-08T14:13:38Z</time>
      </trkpt>
      <trkpt lat="48.01633" lon="7.00823">
        <ele>1176.6</ele>
        <time>2018-07-08T14:13:52Z</time>
      </trkpt>
      <trkpt lat="48.01632" lon="7.00819">
        <ele>1176.52</ele>
        <time>2018-07-08T14:13:54Z</time>
      </trkpt>
      <trkpt lat="48.01634" lon="7.00796">
        <ele>1177.25</ele>
        <time>2018-07-08T14:14:09Z</time>
      </trkpt>
      <trkpt lat="48.01633" lon="7.00773">
        <ele>1178.25</ele>
        <time>2018-07-08T14:14:22Z</time>
      </trkpt>
      <trkpt lat="48.01632" lon="7.00756">
        <ele>1178.16</ele>
        <time>2018-07-08T14:14:31Z</time>
      </trkpt>
      <trkpt lat="48.01631" lon="7.00737">
        <ele>1178.36</ele>
        <time>2018-07-08T14:14:42Z</time>
      </trkpt>
      <trkpt lat="48.01635" lon="7.00712">
        <ele>1179.3</ele>
        <time>2018-07-08T14:14:57Z</time>
      </trkpt>
      <trkpt lat="48.01635" lon="7.00704">
        <ele>1180</ele>
        <time>2018-07-08T14:15:02Z</time>
      </trkpt>
      <trkpt lat="48.0164" lon="7.00685">
        <ele>1181.38</ele>
        <time>2018-07-08T14:15:19Z</time>
      </trkpt>
      <trkpt lat="48.01642" lon="7.00661">
        <ele>1182.49</ele>
        <time>2018-07-08T14:15:34Z</time>
      </trkpt>
      <trkpt lat="48.01645" lon="7.00643">
        <ele>1184.18</ele>
        <time>2018-07-08T14:15:46Z</time>
      </trkpt>
      <trkpt lat="48.01654" lon="7.00622">
        <ele>1185.85</ele>
        <time>2018-07-08T14:16:01Z</time>
      </trkpt>
      <trkpt lat="48.01661" lon="7.00604">
        <ele>1187.45</ele>
        <time>2018-07-08T14:16:13Z</time>
      </trkpt>
      <trkpt lat="48.01662" lon="7.006">
        <ele>1188.08</ele>
        <time>2018-07-08T14:16:17Z</time>
      </trkpt>
      <trkpt lat="48.01666" lon="7.00592">
        <ele>1188.22</ele>
        <time>2018-07-08T14:16:35Z</time>
      </trkpt>
      <trkpt lat="48.01669" lon="7.00588">
        <ele>1188.24</ele>
        <time>2018-07-08T14:16:45Z</time>
      </trkpt>
      <trkpt lat="48.0167" lon="7.00583">
        <ele>1188.41</ele>
        <time>2018-07-08T14:16:48Z</time>
      </trkpt>
      <trkpt lat="48.01683" lon="7.0056">
        <ele>1189.78</ele>
        <time>2018-07-08T14:17:07Z</time>
      </trkpt>
      <trkpt lat="48.01695" lon="7.00548">
        <ele>1190.51</ele>
        <time>2018-07-08T14:17:19Z</time>
      </trkpt>
      <trkpt lat="48.01707" lon="7.00537">
        <ele>1191.36</ele>
        <time>2018-07-08T14:17:31Z</time>
      </trkpt>
      <trkpt lat="48.01717" lon="7.00519">
        <ele>1192.03</ele>
        <time>2018-07-08T14:17:44Z</time>
      </trkpt>
      <trkpt lat="48.01725" lon="7.00495">
        <ele>1193.21</ele>
        <time>2018-07-08T14:17:59Z</time>
      </trkpt>
      <trkpt lat="48.01731" lon="7.00475">
        <ele>1194.38</ele>
        <time>2018-07-08T14:18:13Z</time>
      </trkpt>
      <trkpt lat="48.01739" lon="7.00454">
        <ele>1195.59</ele>
        <time>2018-07-08T14:18:30Z</time>
      </trkpt>
      <trkpt lat="48.0174" lon="7.00451">
        <ele>1196.66</ele>
        <time>2018-07-08T14:18:32Z</time>
      </trkpt>
      <trkpt lat="48.01747" lon="7.00434">
        <ele>1198.14</ele>
        <time>2018-07-08T14:18:44Z</time>
      </trkpt>
      <trkpt lat="48.01751" lon="7.00414">
        <ele>1199.52</ele>
        <time>2018-07-08T14:18:57Z</time>
      </trkpt>
      <trkpt lat="48.01752" lon="7.00411">
        <ele>1199.38</ele>
        <time>2018-07-08T14:18:59Z</time>
      </trkpt>
      <trkpt lat="48.01755" lon="7.00389">
        <ele>1201.48</ele>
        <time>2018-07-08T14:19:13Z</time>
      </trkpt>
      <trkpt lat="48.01756" lon="7.00382">
        <ele>1202.23</ele>
        <time>2018-07-08T14:19:17Z</time>
      </trkpt>
      <trkpt lat="48.01758" lon="7.00371">
        <ele>1202.83</ele>
        <time>2018-07-08T14:19:23Z</time>
      </trkpt>
      <trkpt lat="48.01759" lon="7.00368">
        <ele>1203.33</ele>
        <time>2018-07-08T14:19:25Z</time>
      </trkpt>
      <trkpt lat="48.0176" lon="7.00364">
        <ele>1203.17</ele>
        <time>2018-07-08T14:19:28Z</time>
      </trkpt>
      <trkpt lat="48.01765" lon="7.00346">
        <ele>1204.45</ele>
        <time>2018-07-08T14:19:41Z</time>
      </trkpt>
      <trkpt lat="48.01773" lon="7.00335">
        <ele>1205.8</ele>
        <time>2018-07-08T14:19:59Z</time>
      </trkpt>
      <trkpt lat="48.01771" lon="7.0034">
        <ele>1205.62</ele>
        <time>2018-07-08T14:20:24Z</time>
      </trkpt>
      <trkpt lat="48.01772" lon="7.0033">
        <ele>1207.11</ele>
        <time>2018-07-08T14:20:46Z</time>
      </trkpt>
      <trkpt lat="48.01772" lon="7.00318">
        <ele>1207.03</ele>
        <time>2018-07-08T14:20:55Z</time>
      </trkpt>
      <trkpt lat="48.0177" lon="7.00294">
        <ele>1210.24</ele>
        <time>2018-07-08T14:21:12Z</time>
      </trkpt>
      <trkpt lat="48.01768" lon="7.00266">
        <ele>1211.52</ele>
        <time>2018-07-08T14:21:35Z</time>
      </trkpt>
      <trkpt lat="48.01763" lon="7.00246">
        <ele>1211.01</ele>
        <time>2018-07-08T14:21:55Z</time>
      </trkpt>
      <trkpt lat="48.01761" lon="7.00235">
        <ele>1211.03</ele>
        <time>2018-07-08T14:22:14Z</time>
      </trkpt>
      <trkpt lat="48.01759" lon="7.00215">
        <ele>1210.46</ele>
        <time>2018-07-08T14:22:37Z</time>
      </trkpt>
      <trkpt lat="48.01756" lon="7.00204">
        <ele>1210.7</ele>
        <time>2018-07-08T14:22:59Z</time>
      </trkpt>
      <trkpt lat="48.01753" lon="7.00192">
        <ele>1210.68</ele>
        <time>2018-07-08T14:23:15Z</time>
      </trkpt>
      <trkpt lat="48.0175" lon="7.00166">
        <ele>1212.35</ele>
        <time>2018-07-08T14:23:33Z</time>
      </trkpt>
      <trkpt lat="48.01744" lon="7.00149">
        <ele>1212.49</ele>
        <time>2018-07-08T14:23:59Z</time>
      </trkpt>
      <trkpt lat="48.01744" lon="7.00147">
        <ele>1212.61</ele>
        <time>2018-07-08T14:24:00Z</time>
      </trkpt>
      <trkpt lat="48.0174" lon="7.00127">
        <ele>1212.77</ele>
        <time>2018-07-08T14:24:22Z</time>
      </trkpt>
      <trkpt lat="48.01738" lon="7.00092">
        <ele>1214.8</ele>
        <time>2018-07-08T14:24:48Z</time>
      </trkpt>
      <trkpt lat="48.01736" lon="7.00071">
        <ele>1215.81</ele>
        <time>2018-07-08T14:25:04Z</time>
      </trkpt>
      <trkpt lat="48.01733" lon="7.00047">
        <ele>1216.42</ele>
        <time>2018-07-08T14:25:23Z</time>
      </trkpt>
      <trkpt lat="48.01732" lon="7.00021">
        <ele>1218.79</ele>
        <time>2018-07-08T14:25:42Z</time>
      </trkpt>
      <trkpt lat="48.0173" lon="6.99989">
        <ele>1220.01</ele>
        <time>2018-07-08T14:26:03Z</time>
      </trkpt>
      <trkpt lat="48.0173" lon="6.99977">
        <ele>1221.97</ele>
        <time>2018-07-08T14:26:12Z</time>
      </trkpt>
      <trkpt lat="48.01729" lon="6.99954">
        <ele>1222.68</ele>
        <time>2018-07-08T14:26:27Z</time>
      </trkpt>
      <trkpt lat="48.01728" lon="6.99933">
        <ele>1223.21</ele>
        <time>2018-07-08T14:26:41Z</time>
      </trkpt>
      <trkpt lat="48.01727" lon="6.99911">
        <ele>1223.76</ele>
        <time>2018-07-08T14:26:56Z</time>
      </trkpt>
      <trkpt lat="48.01729" lon="6.99893">
        <ele>1224.45</ele>
        <time>2018-07-08T14:27:09Z</time>
      </trkpt>
      <trkpt lat="48.01734" lon="6.99879">
        <ele>1224.9</ele>
        <time>2018-07-08T14:27:19Z</time>
      </trkpt>
      <trkpt lat="48.01739" lon="6.99854">
        <ele>1226.74</ele>
        <time>2018-07-08T14:27:39Z</time>
      </trkpt>
      <trkpt lat="48.01741" lon="6.9983">
        <ele>1228.02</ele>
        <time>2018-07-08T14:28:00Z</time>
      </trkpt>
      <trkpt lat="48.01744" lon="6.99803">
        <ele>1230.3</ele>
        <time>2018-07-08T14:28:24Z</time>
      </trkpt>
      <trkpt lat="48.01751" lon="6.99785">
        <ele>1232.57</ele>
        <time>2018-07-08T14:28:43Z</time>
      </trkpt>
      <trkpt lat="48.01757" lon="6.99773">
        <ele>1234.81</ele>
        <time>2018-07-08T14:28:57Z</time>
      </trkpt>
      <trkpt lat="48.01772" lon="6.99755">
        <ele>1234.65</ele>
        <time>2018-07-08T14:29:19Z</time>
      </trkpt>
      <trkpt lat="48.01774" lon="6.99752">
        <ele>1234.45</ele>
        <time>2018-07-08T14:29:21Z</time>
      </trkpt>
      <trkpt lat="48.01793" lon="6.99733">
        <ele>1235.65</ele>
        <time>2018-07-08T14:29:43Z</time>
      </trkpt>
      <trkpt lat="48.01805" lon="6.99715">
        <ele>1236.43</ele>
        <time>2018-07-08T14:30:06Z</time>
      </trkpt>
      <trkpt lat="48.01823" lon="6.99697">
        <ele>1238.14</ele>
        <time>2018-07-08T14:30:26Z</time>
      </trkpt>
      <trkpt lat="48.01834" lon="6.99688">
        <ele>1239.21</ele>
        <time>2018-07-08T14:30:45Z</time>
      </trkpt>
      <trkpt lat="48.01839" lon="6.99675">
        <ele>1238.88</ele>
        <time>2018-07-08T14:30:54Z</time>
      </trkpt>
      <trkpt lat="48.01845" lon="6.99658">
        <ele>1240.5</ele>
        <time>2018-07-08T14:31:10Z</time>
      </trkpt>
      <trkpt lat="48.01852" lon="6.9964">
        <ele>1240.98</ele>
        <time>2018-07-08T14:31:27Z</time>
      </trkpt>
      <trkpt lat="48.01856" lon="6.99634">
        <ele>1241.13</ele>
        <time>2018-07-08T14:31:33Z</time>
      </trkpt>
      <trkpt lat="48.01867" lon="6.99618">
        <ele>1242.92</ele>
        <time>2018-07-08T14:31:52Z</time>
      </trkpt>
      <trkpt lat="48.01877" lon="6.99601">
        <ele>1244.66</ele>
        <time>2018-07-08T14:32:09Z</time>
      </trkpt>
      <trkpt lat="48.01884" lon="6.99586">
        <ele>1244.17</ele>
        <time>2018-07-08T14:32:30Z</time>
      </trkpt>
      <trkpt lat="48.01896" lon="6.99558">
        <ele>1244.19</ele>
        <time>2018-07-08T14:32:54Z</time>
      </trkpt>
      <trkpt lat="48.01905" lon="6.99534">
        <ele>1242.82</ele>
        <time>2018-07-08T14:33:17Z</time>
      </trkpt>
      <trkpt lat="48.01908" lon="6.99513">
        <ele>1239.49</ele>
        <time>2018-07-08T14:33:34Z</time>
      </trkpt>
      <trkpt lat="48.01918" lon="6.99492">
        <ele>1237.81</ele>
        <time>2018-07-08T14:33:53Z</time>
      </trkpt>
      <trkpt lat="48.01925" lon="6.99477">
        <ele>1238.04</ele>
        <time>2018-07-08T14:34:09Z</time>
      </trkpt>
      <trkpt lat="48.01934" lon="6.99458">
        <ele>1236.69</ele>
        <time>2018-07-08T14:34:27Z</time>
      </trkpt>
      <trkpt lat="48.01935" lon="6.9944">
        <ele>1233.67</ele>
        <time>2018-07-08T14:34:45Z</time>
      </trkpt>
      <trkpt lat="48.01934" lon="6.99402">
        <ele>1232.92</ele>
        <time>2018-07-08T14:34:59Z</time>
      </trkpt>
      <trkpt lat="48.01939" lon="6.99386">
        <ele>1230.44</ele>
        <time>2018-07-08T14:35:19Z</time>
      </trkpt>
      <trkpt lat="48.01943" lon="6.99363">
        <ele>1228.4</ele>
        <time>2018-07-08T14:35:41Z</time>
      </trkpt>
      <trkpt lat="48.01948" lon="6.9934">
        <ele>1228.58</ele>
        <time>2018-07-08T14:35:59Z</time>
      </trkpt>
      <trkpt lat="48.0195" lon="6.99311">
        <ele>1230.5</ele>
        <time>2018-07-08T14:36:20Z</time>
      </trkpt>
      <trkpt lat="48.0195" lon="6.99285">
        <ele>1231.87</ele>
        <time>2018-07-08T14:36:42Z</time>
      </trkpt>
      <trkpt lat="48.0195" lon="6.99263">
        <ele>1231.33</ele>
        <time>2018-07-08T14:36:59Z</time>
      </trkpt>
      <trkpt lat="48.01932" lon="6.99239">
        <ele>1232.25</ele>
        <time>2018-07-08T14:37:21Z</time>
      </trkpt>
      <trkpt lat="48.01924" lon="6.99231">
        <ele>1236.76</ele>
        <time>2018-07-08T14:37:40Z</time>
      </trkpt>
      <trkpt lat="48.01923" lon="6.99231">
        <ele>1236.76</ele>
        <time>2018-07-08T14:37:41Z</time>
      </trkpt>
      <trkpt lat="48.01917" lon="6.99223">
        <ele>1238.49</ele>
        <time>2018-07-08T14:37:56Z</time>
      </trkpt>
      <trkpt lat="48.01906" lon="6.992">
        <ele>1239.56</ele>
        <time>2018-07-08T14:38:19Z</time>
      </trkpt>
      <trkpt lat="48.01902" lon="6.99175">
        <ele>1238.65</ele>
        <time>2018-07-08T14:38:43Z</time>
      </trkpt>
      <trkpt lat="48.01896" lon="6.99153">
        <ele>1237.16</ele>
        <time>2018-07-08T14:39:04Z</time>
      </trkpt>
      <trkpt lat="48.01891" lon="6.99126">
        <ele>1234.08</ele>
        <time>2018-07-08T14:39:24Z</time>
      </trkpt>
      <trkpt lat="48.0188" lon="6.99092">
        <ele>1233.36</ele>
        <time>2018-07-08T14:39:46Z</time>
      </trkpt>
      <trkpt lat="48.01875" lon="6.99081">
        <ele>1232.78</ele>
        <time>2018-07-08T14:39:52Z</time>
      </trkpt>
      <trkpt lat="48.01867" lon="6.99048">
        <ele>1232</ele>
        <time>2018-07-08T14:40:08Z</time>
      </trkpt>
      <trkpt lat="48.01859" lon="6.99016">
        <ele>1231.77</ele>
        <time>2018-07-08T14:40:27Z</time>
      </trkpt>
      <trkpt lat="48.01851" lon="6.9899">
        <ele>1230.28</ele>
        <time>2018-07-08T14:40:46Z</time>
      </trkpt>
      <trkpt lat="48.01844" lon="6.98967">
        <ele>1228.73</ele>
        <time>2018-07-08T14:41:05Z</time>
      </trkpt>
      <trkpt lat="48.01838" lon="6.9895">
        <ele>1227.2</ele>
        <time>2018-07-08T14:41:24Z</time>
      </trkpt>
      <trkpt lat="48.01828" lon="6.98939">
        <ele>1224.45</ele>
        <time>2018-07-08T14:41:40Z</time>
      </trkpt>
      <trkpt lat="48.01818" lon="6.98927">
        <ele>1222.21</ele>
        <time>2018-07-08T14:41:56Z</time>
      </trkpt>
      <trkpt lat="48.01817" lon="6.98926">
        <ele>1222.35</ele>
        <time>2018-07-08T14:41:57Z</time>
      </trkpt>
      <trkpt lat="48.01805" lon="6.98914">
        <ele>1220.03</ele>
        <time>2018-07-08T14:42:15Z</time>
      </trkpt>
      <trkpt lat="48.01792" lon="6.98903">
        <ele>1217.62</ele>
        <time>2018-07-08T14:42:33Z</time>
      </trkpt>
      <trkpt lat="48.01779" lon="6.98889">
        <ele>1215.63</ele>
        <time>2018-07-08T14:42:52Z</time>
      </trkpt>
      <trkpt lat="48.01768" lon="6.98881">
        <ele>1213.27</ele>
        <time>2018-07-08T14:43:09Z</time>
      </trkpt>
      <trkpt lat="48.01758" lon="6.9887">
        <ele>1210.68</ele>
        <time>2018-07-08T14:43:25Z</time>
      </trkpt>
      <trkpt lat="48.01749" lon="6.98863">
        <ele>1209.19</ele>
        <time>2018-07-08T14:43:43Z</time>
      </trkpt>
      <trkpt lat="48.01747" lon="6.98862">
        <ele>1208.98</ele>
        <time>2018-07-08T14:43:46Z</time>
      </trkpt>
      <trkpt lat="48.01738" lon="6.98854">
        <ele>1206.67</ele>
        <time>2018-07-08T14:44:03Z</time>
      </trkpt>
      <trkpt lat="48.01733" lon="6.98846">
        <ele>1205.93</ele>
        <time>2018-07-08T14:44:12Z</time>
      </trkpt>
      <trkpt lat="48.01731" lon="6.98844">
        <ele>1205.8</ele>
        <time>2018-07-08T14:44:14Z</time>
      </trkpt>
      <trkpt lat="48.0173" lon="6.98826">
        <ele>1205.01</ele>
        <time>2018-07-08T14:44:23Z</time>
      </trkpt>
      <trkpt lat="48.01732" lon="6.988">
        <ele>1202.96</ele>
        <time>2018-07-08T14:44:38Z</time>
      </trkpt>
      <trkpt lat="48.01734" lon="6.9879">
        <ele>1202.99</ele>
        <time>2018-07-08T14:44:43Z</time>
      </trkpt>
      <trkpt lat="48.0174" lon="6.98764">
        <ele>1201.31</ele>
        <time>2018-07-08T14:44:59Z</time>
      </trkpt>
      <trkpt lat="48.01753" lon="6.98739">
        <ele>1201.44</ele>
        <time>2018-07-08T14:45:20Z</time>
      </trkpt>
      <trkpt lat="48.01755" lon="6.9874">
        <ele>1200.95</ele>
        <time>2018-07-08T14:45:39Z</time>
      </trkpt>
      <trkpt lat="48.01755" lon="6.98739">
        <ele>1201.46</ele>
        <time>2018-07-08T14:46:09Z</time>
      </trkpt>
      <trkpt lat="48.01758" lon="6.9874">
        <ele>1201.75</ele>
        <time>2018-07-08T14:46:35Z</time>
      </trkpt>
    </trkseg>
  </trk>
</gpx>